<?xml version='1.0' encoding='UTF-8'?>
<gpx xmlns="http://www.topografix.com/GPX/1/1" creator="www.balnam.be" version="1.1" xmlns:xsi="http://www.w3.org/2001/XMLSchema-instance" xsi:schemaLocation="http://www.topografix.com/GPX/1/1 http://www.topografix.com/GPX/1/1/gpx.xsd">
<trk>
<name>lsrbc10</name>
<cmt>r</cmt>
<desc>Boncelles Chemin n°10 Rue Wagner</desc>
<link href="https://chemins.be/boncelles/chemin/10"/><trkseg>
<trkpt lat="50.562875" lon="5.540517"><time>2026-05-03T06:40:43Z</time></trkpt>
<trkpt lat="50.562441" lon="5.539955"><time>2026-05-03T06:50:43Z</time></trkpt>
</trkseg>
</trk>
<trk>
<name>lsrbc14</name>
<cmt>v</cmt>
<desc>Boncelles Chemin n°14 Rue de Liège / chemin communal n°14 - rue de Liège / Rue Robiet</desc>
<link href="https://chemins.be/boncelles/chemin/14"/><trkseg>
<trkpt lat="50.570910" lon="5.551960"><time>2026-05-03T06:40:43Z</time></trkpt>
<trkpt lat="50.571655" lon="5.551565"><time>2026-05-03T06:50:43Z</time></trkpt>
<trkpt lat="50.572724" lon="5.549535"><time>2026-05-03T07:00:43Z</time></trkpt>
<trkpt lat="50.574056" lon="5.546869"><time>2026-05-03T07:10:43Z</time></trkpt>
</trkseg></trk>
<trk>
<name>lsrbc14</name>
<cmt>r</cmt>
<desc>Boncelles Chemin n°14 Rue de Liège / chemin communal n°14 - rue de Liège / Rue Robiet</desc>
<link href="https://chemins.be/boncelles/chemin/14"/><trkseg>
<trkpt lat="50.574056" lon="5.546869"><time>2026-05-03T07:10:43Z</time></trkpt>
<trkpt lat="50.574074" lon="5.546780"><time>2026-05-03T07:20:43Z</time></trkpt>
<trkpt lat="50.574646" lon="5.545959"><time>2026-05-03T07:30:43Z</time></trkpt>
</trkseg></trk>
<trk>
<name>lsrbc14</name>
<cmt>s</cmt>
<desc>Boncelles Chemin n°14 Rue de Liège / chemin communal n°14 - rue de Liège / Rue Robiet</desc>
<link href="https://chemins.be/boncelles/chemin/14"/><trkseg>
<trkpt lat="50.574646" lon="5.545959"><time>2026-05-03T07:30:43Z</time></trkpt>
<trkpt lat="50.575067" lon="5.545414"><time>2026-05-03T07:40:43Z</time></trkpt>
</trkseg>
</trk>
<trk>
<name>lsrbc16</name>
<cmt>v</cmt>
<desc>Boncelles Chemin n°16 Rue du Messager / Rue Vivaldi / Rue Damry</desc>
<link href="https://chemins.be/boncelles/chemin/16"/><trkseg>
<trkpt lat="50.571314" lon="5.530470"><time>2026-05-03T06:40:43Z</time></trkpt>
<trkpt lat="50.570579" lon="5.530980"><time>2026-05-03T06:50:43Z</time></trkpt>
</trkseg></trk>
<trk>
<name>lsrbc16</name>
<cmt>s</cmt>
<desc>Boncelles Chemin n°16 Rue du Messager / Rue Vivaldi / Rue Damry</desc>
<link href="https://chemins.be/boncelles/chemin/16"/><trkseg>
<trkpt lat="50.570579" lon="5.530980"><time>2026-05-03T06:50:43Z</time></trkpt>
<trkpt lat="50.569796" lon="5.531523"><time>2026-05-03T07:00:43Z</time></trkpt>
</trkseg></trk>
<trk>
<name>lsrbc16</name>
<cmt>r</cmt>
<desc>Boncelles Chemin n°16 Rue du Messager / Rue Vivaldi / Rue Damry</desc>
<link href="https://chemins.be/boncelles/chemin/16"/><trkseg>
<trkpt lat="50.569796" lon="5.531523"><time>2026-05-03T07:00:43Z</time></trkpt>
<trkpt lat="50.568779" lon="5.532344"><time>2026-05-03T07:10:43Z</time></trkpt>
<trkpt lat="50.568941" lon="5.532712"><time>2026-05-03T07:20:43Z</time></trkpt>
<trkpt lat="50.564292" lon="5.534968"><time>2026-05-03T07:30:43Z</time></trkpt>
<trkpt lat="50.564437" lon="5.535857"><time>2026-05-03T07:40:43Z</time></trkpt>
</trkseg></trk>
<trk>
<name>lsrbc16</name>
<cmt>v</cmt>
<desc>Boncelles Chemin n°16 Rue du Messager / Rue Vivaldi / Rue Damry</desc>
<link href="https://chemins.be/boncelles/chemin/16"/><trkseg>
<trkpt lat="50.564437" lon="5.535857"><time>2026-05-03T07:40:43Z</time></trkpt>
<trkpt lat="50.563411" lon="5.535920"><time>2026-05-03T07:50:43Z</time></trkpt>
</trkseg>
</trk>
<trk>
<name>lsrbc17</name>
<cmt>v</cmt>
<desc>Boncelles Chemin n°17 Rue Couperin</desc>
<link href="https://chemins.be/boncelles/chemin/17"/><trkseg>
<trkpt lat="50.572157" lon="5.532992"><time>2026-05-03T06:40:43Z</time></trkpt>
<trkpt lat="50.570958" lon="5.533138"><time>2026-05-03T06:50:43Z</time></trkpt>
<trkpt lat="50.570936" lon="5.533567"><time>2026-05-03T07:00:43Z</time></trkpt>
<trkpt lat="50.569787" lon="5.534573"><time>2026-05-03T07:10:43Z</time></trkpt>
</trkseg></trk>
<trk>
<name>lsrbc17</name>
<cmt>r</cmt>
<desc>Boncelles Chemin n°17 Rue Couperin</desc>
<link href="https://chemins.be/boncelles/chemin/17"/><trkseg>
<trkpt lat="50.569787" lon="5.534573"><time>2026-05-03T07:10:43Z</time></trkpt>
<trkpt lat="50.564639" lon="5.537034"><time>2026-05-03T07:20:43Z</time></trkpt>
</trkseg></trk>
<trk>
<name>lsrbc17</name>
<cmt>s</cmt>
<desc>Boncelles Chemin n°17 Rue Couperin</desc>
<link href="https://chemins.be/boncelles/chemin/17"/><trkseg>
<trkpt lat="50.564639" lon="5.537034"><time>2026-05-03T07:20:43Z</time></trkpt>
<trkpt lat="50.563230" lon="5.537349"><time>2026-05-03T07:30:43Z</time></trkpt>
</trkseg>
</trk>
<trk>
<name>lsrbc17bis</name>
<cmt>v</cmt>
<desc>Boncelles Chemin n°17bis </desc>
<link href="https://chemins.be/boncelles/chemin/17bis"/><trkseg>
<trkpt lat="50.563439" lon="5.535893"><time>2026-05-03T06:40:43Z</time></trkpt>
<trkpt lat="50.563212" lon="5.537367"><time>2026-05-03T06:50:43Z</time></trkpt>
</trkseg>
</trk>
<trk>
<name>lsrbc18</name>
<cmt>r</cmt>
<desc>Boncelles Chemin n°18 Rue de Nomont - Beauregard</desc>
<link href="https://chemins.be/boncelles/chemin/18"/><trkseg>
<trkpt lat="50.561564" lon="5.548312"><time>2026-05-03T06:40:43Z</time></trkpt>
<trkpt lat="50.561668" lon="5.549385"><time>2026-05-03T06:50:43Z</time></trkpt>
<trkpt lat="50.561172" lon="5.551351"><time>2026-05-03T07:00:43Z</time></trkpt>
</trkseg></trk>
<trk>
<name>lsrbc18</name>
<cmt>v</cmt>
<desc>Boncelles Chemin n°18 Rue de Nomont - Beauregard</desc>
<link href="https://chemins.be/boncelles/chemin/18"/><trkseg>
<trkpt lat="50.561172" lon="5.551351"><time>2026-05-03T07:00:43Z</time></trkpt>
<trkpt lat="50.561003" lon="5.552647"><time>2026-05-03T07:10:43Z</time></trkpt>
</trkseg>
</trk>
<trk>
<name>lsrbc19</name>
<cmt>v</cmt>
<desc>Boncelles Chemin n°19 Rue Beer / Ruelle Beer</desc>
<link href="https://chemins.be/boncelles/chemin/19"/><trkseg>
<trkpt lat="50.565377" lon="5.542944"><time>2026-05-03T06:40:43Z</time></trkpt>
<trkpt lat="50.563555" lon="5.543165"><time>2026-05-03T06:50:43Z</time></trkpt>
</trkseg>
</trk>
<trk>
<name>lsrbc2</name>
<cmt>v</cmt>
<desc>Boncelles Chemin n°2 </desc>
<link href="https://chemins.be/boncelles/chemin/2"/><trkseg>
<trkpt lat="50.577923" lon="5.531601"><time>2026-05-03T06:40:43Z</time></trkpt>
<trkpt lat="50.577975" lon="5.531018"><time>2026-05-03T06:50:43Z</time></trkpt>
</trkseg></trk>
<trk>
<name>lsrbc2</name>
<cmt>s</cmt>
<desc>Boncelles Chemin n°2 </desc>
<link href="https://chemins.be/boncelles/chemin/2"/><trkseg>
<trkpt lat="50.577975" lon="5.531018"><time>2026-05-03T06:50:43Z</time></trkpt>
<trkpt lat="50.577646" lon="5.529455"><time>2026-05-03T07:00:43Z</time></trkpt>
</trkseg>
</trk>
<trk>
<name>lsrbc21</name>
<cmt>v</cmt>
<desc>Boncelles Sentier n°21 </desc>
<link href="https://chemins.be/boncelles/sentier/21"/><trkseg>
<trkpt lat="50.563596" lon="5.543123"><time>2026-05-03T06:40:43Z</time></trkpt>
<trkpt lat="50.563018" lon="5.543724"><time>2026-05-03T06:50:43Z</time></trkpt>
<trkpt lat="50.562187" lon="5.544103"><time>2026-05-03T07:00:43Z</time></trkpt>
<trkpt lat="50.560915" lon="5.545104"><time>2026-05-03T07:10:43Z</time></trkpt>
</trkseg>
</trk>
<trk>
<name>lsrbc22</name>
<cmt>s</cmt>
<desc>Boncelles Sentier n°22 </desc>
<link href="https://chemins.be/boncelles/sentier/22"/><trkseg>
<trkpt lat="50.567563" lon="5.546795"><time>2026-05-03T06:40:43Z</time></trkpt>
<trkpt lat="50.569035" lon="5.551430"><time>2026-05-03T06:50:43Z</time></trkpt>
</trkseg>
</trk>
<trk>
<name>lsrbc23</name>
<cmt>q</cmt>
<desc>Boncelles Sentier n°23 </desc>
<link href="https://chemins.be/boncelles/sentier/23"/><trkseg>
<trkpt lat="50.565084" lon="5.546812"><time>2026-05-03T06:40:43Z</time></trkpt>
<trkpt lat="50.565200" lon="5.547856"><time>2026-05-03T06:50:43Z</time></trkpt>
<trkpt lat="50.565361" lon="5.549036"><time>2026-05-03T07:00:43Z</time></trkpt>
</trkseg></trk>
<trk>
<name>lsrbc23</name>
<cmt>s</cmt>
<desc>Boncelles Sentier n°23 </desc>
<link href="https://chemins.be/boncelles/sentier/23"/><trkseg>
<trkpt lat="50.565361" lon="5.549036"><time>2026-05-03T07:00:43Z</time></trkpt>
<trkpt lat="50.565187" lon="5.549545"><time>2026-05-03T07:10:43Z</time></trkpt>
</trkseg></trk>
<trk>
<name>lsrbc23</name>
<cmt>v</cmt>
<desc>Boncelles Sentier n°23 </desc>
<link href="https://chemins.be/boncelles/sentier/23"/><trkseg>
<trkpt lat="50.565187" lon="5.549545"><time>2026-05-03T07:10:43Z</time></trkpt>
<trkpt lat="50.565181" lon="5.550013"><time>2026-05-03T07:20:43Z</time></trkpt>
<trkpt lat="50.565193" lon="5.551032"><time>2026-05-03T07:30:43Z</time></trkpt>
</trkseg>
</trk>
<trk>
<name>lsrbc24</name>
<cmt>r</cmt>
<desc>Boncelles Sentier n°24 Rue des Libellules</desc>
<link href="https://chemins.be/boncelles/sentier/24"/><trkseg>
<trkpt lat="50.567396" lon="5.543232"><time>2026-05-03T06:40:43Z</time></trkpt>
<trkpt lat="50.567757" lon="5.544584"><time>2026-05-03T06:50:43Z</time></trkpt>
<trkpt lat="50.568314" lon="5.545074"><time>2026-05-03T07:00:43Z</time></trkpt>
<trkpt lat="50.568414" lon="5.545685"><time>2026-05-03T07:10:43Z</time></trkpt>
<trkpt lat="50.568236" lon="5.546490"><time>2026-05-03T07:20:43Z</time></trkpt>
</trkseg>
</trk>
<trk>
<name>lsrbc25</name>
<cmt>s</cmt>
<desc>Boncelles Sentier n°25 Avenue des Sillons</desc>
<link href="https://chemins.be/boncelles/sentier/25"/><trkseg>
<trkpt lat="50.565783" lon="5.544680"><time>2026-05-03T06:40:43Z</time></trkpt>
<trkpt lat="50.566308" lon="5.544412"><time>2026-05-03T06:50:43Z</time></trkpt>
<trkpt lat="50.566285" lon="5.544106"><time>2026-05-03T07:00:43Z</time></trkpt>
<trkpt lat="50.566570" lon="5.543611"><time>2026-05-03T07:10:43Z</time></trkpt>
<trkpt lat="50.566580" lon="5.543116"><time>2026-05-03T07:20:43Z</time></trkpt>
</trkseg></trk>
<trk>
<name>lsrbc25</name>
<cmt>r</cmt>
<desc>Boncelles Sentier n°25 Avenue des Sillons</desc>
<link href="https://chemins.be/boncelles/sentier/25"/><trkseg>
<trkpt lat="50.566580" lon="5.543116"><time>2026-05-03T07:20:43Z</time></trkpt>
<trkpt lat="50.566803" lon="5.543107"><time>2026-05-03T07:30:43Z</time></trkpt>
</trkseg></trk>
<trk>
<name>lsrbc25</name>
<cmt>d</cmt>
<desc>Boncelles Sentier n°25 Avenue des Sillons</desc>
<link href="https://chemins.be/boncelles/sentier/25"/><trkseg>
<trkpt lat="50.566803" lon="5.543107"><time>2026-05-03T07:30:43Z</time></trkpt>
<trkpt lat="50.567735" lon="5.540285"><time>2026-05-03T07:40:43Z</time></trkpt>
<trkpt lat="50.568055" lon="5.539429"><time>2026-05-03T07:50:43Z</time></trkpt>
</trkseg></trk>
<trk>
<name>lsrbc25</name>
<cmt>s</cmt>
<desc>Boncelles Sentier n°25 Avenue des Sillons</desc>
<link href="https://chemins.be/boncelles/sentier/25"/><trkseg>
<trkpt lat="50.568055" lon="5.539429"><time>2026-05-03T07:50:43Z</time></trkpt>
<trkpt lat="50.568293" lon="5.538794"><time>2026-05-03T08:00:43Z</time></trkpt>
</trkseg>
</trk>
<trk>
<name>lsrbc26</name>
<cmt>s</cmt>
<desc>Boncelles Sentier n°26 </desc>
<link href="https://chemins.be/boncelles/sentier/26"/><trkseg>
<trkpt lat="50.568370" lon="5.540585"><time>2026-05-03T06:40:43Z</time></trkpt>
<trkpt lat="50.568450" lon="5.540500"><time>2026-05-03T06:50:43Z</time></trkpt>
<trkpt lat="50.569254" lon="5.541987"><time>2026-05-03T07:00:43Z</time></trkpt>
<trkpt lat="50.569479" lon="5.542599"><time>2026-05-03T07:10:43Z</time></trkpt>
<trkpt lat="50.568857" lon="5.544909"><time>2026-05-03T07:20:43Z</time></trkpt>
<trkpt lat="50.568457" lon="5.545721"><time>2026-05-03T07:30:43Z</time></trkpt>
</trkseg>
</trk>
<trk>
<name>lsrbc27</name>
<cmt>v</cmt>
<desc>Boncelles Sentier n°27 Sentier des Messes</desc>
<link href="https://chemins.be/boncelles/sentier/27"/><trkseg>
<trkpt lat="50.575023" lon="5.534904"><time>2026-05-03T06:40:43Z</time></trkpt>
<trkpt lat="50.574842" lon="5.534799"><time>2026-05-03T06:50:43Z</time></trkpt>
<trkpt lat="50.574482" lon="5.534584"><time>2026-05-03T07:00:43Z</time></trkpt>
<trkpt lat="50.574290" lon="5.534418"><time>2026-05-03T07:10:43Z</time></trkpt>
<trkpt lat="50.574106" lon="5.534135"><time>2026-05-03T07:20:43Z</time></trkpt>
<trkpt lat="50.573996" lon="5.533698"><time>2026-05-03T07:30:43Z</time></trkpt>
<trkpt lat="50.573926" lon="5.533317"><time>2026-05-03T07:40:43Z</time></trkpt>
<trkpt lat="50.573653" lon="5.531790"><time>2026-05-03T07:50:43Z</time></trkpt>
<trkpt lat="50.573601" lon="5.531461"><time>2026-05-03T08:00:43Z</time></trkpt>
<trkpt lat="50.573843" lon="5.531070"><time>2026-05-03T08:10:43Z</time></trkpt>
</trkseg>
</trk>
<trk>
<name>lsrbc28</name>
<cmt>v</cmt>
<desc>Boncelles Sentier n°28 Sentier Domalius / Sentier de la Fontaine Domalius</desc>
<link href="https://chemins.be/boncelles/sentier/28"/><trkseg>
<trkpt lat="50.575989" lon="5.537499"><time>2026-05-03T06:40:43Z</time></trkpt>
<trkpt lat="50.576289" lon="5.537757"><time>2026-05-03T06:50:43Z</time></trkpt>
<trkpt lat="50.576396" lon="5.538123"><time>2026-05-03T07:00:43Z</time></trkpt>
<trkpt lat="50.576917" lon="5.538695"><time>2026-05-03T07:10:43Z</time></trkpt>
<trkpt lat="50.577396" lon="5.538923"><time>2026-05-03T07:20:43Z</time></trkpt>
</trkseg></trk>
<trk>
<name>lsrbc28</name>
<cmt>b</cmt>
<desc>Boncelles Sentier n°28 Sentier Domalius / Sentier de la Fontaine Domalius</desc>
<link href="https://chemins.be/boncelles/sentier/28"/><trkseg>
<trkpt lat="50.577396" lon="5.538923"><time>2026-05-03T07:20:43Z</time></trkpt>
<trkpt lat="50.577531" lon="5.538965"><time>2026-05-03T07:30:43Z</time></trkpt>
</trkseg></trk>
<trk>
<name>lsrbc28</name>
<cmt>v</cmt>
<desc>Boncelles Sentier n°28 Sentier Domalius / Sentier de la Fontaine Domalius</desc>
<link href="https://chemins.be/boncelles/sentier/28"/><trkseg>
<trkpt lat="50.577531" lon="5.538965"><time>2026-05-03T07:30:43Z</time></trkpt>
<trkpt lat="50.577786" lon="5.538880"><time>2026-05-03T07:40:43Z</time></trkpt>
<trkpt lat="50.578094" lon="5.539153"><time>2026-05-03T07:50:43Z</time></trkpt>
</trkseg></trk>
<trk>
<name>lsrbc28</name>
<cmt>s</cmt>
<desc>Boncelles Sentier n°28 Sentier Domalius / Sentier de la Fontaine Domalius</desc>
<link href="https://chemins.be/boncelles/sentier/28"/><trkseg>
<trkpt lat="50.578094" lon="5.539153"><time>2026-05-03T07:50:43Z</time></trkpt>
<trkpt lat="50.578188" lon="5.539381"><time>2026-05-03T08:00:43Z</time></trkpt>
<trkpt lat="50.578401" lon="5.540017"><time>2026-05-03T08:10:43Z</time></trkpt>
</trkseg>
</trk>
<trk>
<name>lsrbc28bis</name>
<cmt>d</cmt>
<desc>Boncelles Sentier n°28bis </desc>
<link href="https://chemins.be/boncelles/sentier/28bis"/><trkseg>
<trkpt lat="50.578102" lon="5.539151"><time>2026-05-03T06:40:43Z</time></trkpt>
<trkpt lat="50.578334" lon="5.538939"><time>2026-05-03T06:50:43Z</time></trkpt>
</trkseg></trk>
<trk>
<name>lsrbc28bis</name>
<cmt>v</cmt>
<desc>Boncelles Sentier n°28bis </desc>
<link href="https://chemins.be/boncelles/sentier/28bis"/><trkseg>
<trkpt lat="50.578334" lon="5.538939"><time>2026-05-03T06:50:43Z</time></trkpt>
<trkpt lat="50.578638" lon="5.539140"><time>2026-05-03T07:00:43Z</time></trkpt>
</trkseg>
</trk>
<trk>
<name>lsrbc29</name>
<cmt>v</cmt>
<desc>Boncelles Sentier n°29 </desc>
<link href="https://chemins.be/boncelles/sentier/29"/><trkseg>
<trkpt lat="50.577881" lon="5.532373"><time>2026-05-03T06:40:43Z</time></trkpt>
<trkpt lat="50.579185" lon="5.531235"><time>2026-05-03T06:50:43Z</time></trkpt>
<trkpt lat="50.579250" lon="5.531058"><time>2026-05-03T07:00:43Z</time></trkpt>
<trkpt lat="50.579567" lon="5.530769"><time>2026-05-03T07:10:43Z</time></trkpt>
</trkseg></trk>
<trk>
<name>lsrbc29</name>
<cmt>d</cmt>
<desc>Boncelles Sentier n°29 </desc>
<link href="https://chemins.be/boncelles/sentier/29"/><trkseg>
<trkpt lat="50.579567" lon="5.530769"><time>2026-05-03T07:10:43Z</time></trkpt>
<trkpt lat="50.580170" lon="5.530425"><time>2026-05-03T07:20:43Z</time></trkpt>
<trkpt lat="50.580235" lon="5.530238"><time>2026-05-03T07:30:43Z</time></trkpt>
<trkpt lat="50.580603" lon="5.530044"><time>2026-05-03T07:40:43Z</time></trkpt>
<trkpt lat="50.581352" lon="5.530109"><time>2026-05-03T07:50:43Z</time></trkpt>
<trkpt lat="50.582060" lon="5.528848"><time>2026-05-03T08:00:43Z</time></trkpt>
<trkpt lat="50.582411" lon="5.528741"><time>2026-05-03T08:10:43Z</time></trkpt>
<trkpt lat="50.582452" lon="5.528210"><time>2026-05-03T08:20:43Z</time></trkpt>
<trkpt lat="50.582530" lon="5.528194"><time>2026-05-03T08:30:43Z</time></trkpt>
<trkpt lat="50.582687" lon="5.527850"><time>2026-05-03T08:40:43Z</time></trkpt>
<trkpt lat="50.582667" lon="5.526960"><time>2026-05-03T08:50:43Z</time></trkpt>
</trkseg>
</trk>
<trk>
<name>lsrbc30</name>
<cmt>s</cmt>
<desc>Boncelles Chemin n°30 </desc>
<link href="https://chemins.be/boncelles/chemin/30"/><trkseg>
<trkpt lat="50.578855" lon="5.529104"><time>2026-05-03T06:40:43Z</time></trkpt>
<trkpt lat="50.576883" lon="5.529655"><time>2026-05-03T06:50:43Z</time></trkpt>
</trkseg>
</trk>
<trk>
<name>lsrbci1</name>
<cmt>v</cmt>
<desc>Boncelles Sentier n°i1 </desc>
<link href="https://chemins.be/boncelles/sentier/i1"/><trkseg>
<trkpt lat="50.564088" lon="5.527523"><time>2026-05-03T06:40:43Z</time></trkpt>
<trkpt lat="50.562000" lon="5.528251"><time>2026-05-03T06:50:43Z</time></trkpt>
</trkseg>
</trk>
<trk>
<name>lsrbci2</name>
<cmt>v</cmt>
<desc>Boncelles Chemin n°i2 Chemin de Boncelles à Plainevaux</desc>
<link href="https://chemins.be/boncelles/chemin/i2"/><trkseg>
<trkpt lat="50.562027" lon="5.530451"><time>2026-05-03T06:40:43Z</time></trkpt>
<trkpt lat="50.561928" lon="5.530505"><time>2026-05-03T06:50:43Z</time></trkpt>
<trkpt lat="50.561675" lon="5.530598"><time>2026-05-03T07:00:43Z</time></trkpt>
<trkpt lat="50.561139" lon="5.530801"><time>2026-05-03T07:10:43Z</time></trkpt>
</trkseg>
</trk>
<trk>
<name>lsrbci3</name>
<cmt>v</cmt>
<desc>Boncelles Sentier n°i3 </desc>
<link href="https://chemins.be/boncelles/sentier/i3"/><trkseg>
<trkpt lat="50.576590" lon="5.537243"><time>2026-05-03T06:40:43Z</time></trkpt>
<trkpt lat="50.576550" lon="5.537406"><time>2026-05-03T06:50:43Z</time></trkpt>
<trkpt lat="50.576486" lon="5.537458"><time>2026-05-03T07:00:43Z</time></trkpt>
<trkpt lat="50.576450" lon="5.537616"><time>2026-05-03T07:10:43Z</time></trkpt>
<trkpt lat="50.576518" lon="5.537703"><time>2026-05-03T07:20:43Z</time></trkpt>
<trkpt lat="50.576395" lon="5.538121"><time>2026-05-03T07:30:43Z</time></trkpt>
</trkseg>
</trk>
<trk>
<name>lsrbci5</name>
<cmt>v</cmt>
<desc>Boncelles Sentier n°i5 </desc>
<link href="https://chemins.be/boncelles/sentier/i5"/><trkseg>
<trkpt lat="50.577891" lon="5.537921"><time>2026-05-03T06:40:43Z</time></trkpt>
<trkpt lat="50.577962" lon="5.538073"><time>2026-05-03T06:50:43Z</time></trkpt>
<trkpt lat="50.577973" lon="5.538297"><time>2026-05-03T07:00:43Z</time></trkpt>
<trkpt lat="50.577946" lon="5.538415"><time>2026-05-03T07:10:43Z</time></trkpt>
<trkpt lat="50.577896" lon="5.538436"><time>2026-05-03T07:20:43Z</time></trkpt>
<trkpt lat="50.577789" lon="5.538853"><time>2026-05-03T07:30:43Z</time></trkpt>
</trkseg>
</trk>
<trk>
<name>lsrbci7</name>
<cmt>v</cmt>
<desc>Boncelles Sentier n°i7 </desc>
<link href="https://chemins.be/boncelles/sentier/i7"/><trkseg>
<trkpt lat="50.563657" lon="5.532031"><time>2026-05-03T06:40:43Z</time></trkpt>
<trkpt lat="50.564711" lon="5.531630"><time>2026-05-03T06:50:43Z</time></trkpt>
<trkpt lat="50.565133" lon="5.532210"><time>2026-05-03T07:00:43Z</time></trkpt>
</trkseg>
</trk>
<trk>
<name>lsrbcLv725</name>
<cmt>s</cmt>
<desc>Boncelles Chemin n°Lv725 Rue de la Fontaine Domalus</desc>
<link href="https://chemins.be/boncelles/chemin/Lv725"/><trkseg>
<trkpt lat="50.582157" lon="5.537721"><time>2026-05-03T06:40:43Z</time></trkpt>
<trkpt lat="50.580363" lon="5.539201"><time>2026-05-03T06:50:43Z</time></trkpt>
</trkseg></trk>
<trk>
<name>lsrbcLv725</name>
<cmt>v</cmt>
<desc>Boncelles Chemin n°Lv725 Rue de la Fontaine Domalus</desc>
<link href="https://chemins.be/boncelles/chemin/Lv725"/><trkseg>
<trkpt lat="50.580363" lon="5.539201"><time>2026-05-03T06:50:43Z</time></trkpt>
<trkpt lat="50.579652" lon="5.541358"><time>2026-05-03T07:00:43Z</time></trkpt>
<trkpt lat="50.579230" lon="5.542071"><time>2026-05-03T07:10:43Z</time></trkpt>
<trkpt lat="50.578579" lon="5.542710"><time>2026-05-03T07:20:43Z</time></trkpt>
<trkpt lat="50.577891" lon="5.543037"><time>2026-05-03T07:30:43Z</time></trkpt>
<trkpt lat="50.577063" lon="5.542919"><time>2026-05-03T07:40:43Z</time></trkpt>
<trkpt lat="50.576280" lon="5.542345"><time>2026-05-03T07:50:43Z</time></trkpt>
<trkpt lat="50.575053" lon="5.540462"><time>2026-05-03T08:00:43Z</time></trkpt>
<trkpt lat="50.574065" lon="5.538960"><time>2026-05-03T08:10:43Z</time></trkpt>
<trkpt lat="50.573725" lon="5.537801"><time>2026-05-03T08:20:43Z</time></trkpt>
<trkpt lat="50.573432" lon="5.535511"><time>2026-05-03T08:30:43Z</time></trkpt>
<trkpt lat="50.573298" lon="5.535364"><time>2026-05-03T08:40:43Z</time></trkpt>
<trkpt lat="50.573218" lon="5.534681"><time>2026-05-03T08:50:43Z</time></trkpt>
<trkpt lat="50.572866" lon="5.534373"><time>2026-05-03T09:00:43Z</time></trkpt>
<trkpt lat="50.572730" lon="5.534159"><time>2026-05-03T09:10:43Z</time></trkpt>
<trkpt lat="50.572239" lon="5.534220"><time>2026-05-03T09:20:43Z</time></trkpt>
<trkpt lat="50.571962" lon="5.534391"><time>2026-05-03T09:30:43Z</time></trkpt>
<trkpt lat="50.571801" lon="5.534656"><time>2026-05-03T09:40:43Z</time></trkpt>
<trkpt lat="50.570452" lon="5.535572"><time>2026-05-03T09:50:43Z</time></trkpt>
<trkpt lat="50.570372" lon="5.535786"><time>2026-05-03T10:00:43Z</time></trkpt>
<trkpt lat="50.569228" lon="5.536162"><time>2026-05-03T10:10:43Z</time></trkpt>
<trkpt lat="50.567998" lon="5.536787"><time>2026-05-03T10:20:43Z</time></trkpt>
<trkpt lat="50.564933" lon="5.538379"><time>2026-05-03T10:30:43Z</time></trkpt>
<trkpt lat="50.563832" lon="5.538998"><time>2026-05-03T10:40:43Z</time></trkpt>
<trkpt lat="50.562831" lon="5.539241"><time>2026-05-03T10:50:43Z</time></trkpt>
<trkpt lat="50.562516" lon="5.539184"><time>2026-05-03T11:00:43Z</time></trkpt>
</trkseg>
</trk>
<trk>
<name>lsrjm11</name>
<cmt>s</cmt>
<desc>Jemeppe-sur-Meuse Chemin n°11 </desc>
<link href="https://chemins.be/jemeppessurmeuse/chemin/11"/><trkseg>
<trkpt lat="50.621866" lon="5.487180"><time>2026-05-03T06:40:43Z</time></trkpt>
<trkpt lat="50.621989" lon="5.487727"><time>2026-05-03T06:50:43Z</time></trkpt>
<trkpt lat="50.621685" lon="5.488911"><time>2026-05-03T07:00:43Z</time></trkpt>
<trkpt lat="50.621691" lon="5.489387"><time>2026-05-03T07:10:43Z</time></trkpt>
<trkpt lat="50.621596" lon="5.489533"><time>2026-05-03T07:20:43Z</time></trkpt>
</trkseg>
</trk>
<trk>
<name>lsrjm12</name>
<cmt>s</cmt>
<desc>Jemeppe-sur-Meuse Chemin n°12 Rue de la Commune</desc>
<link href="https://chemins.be/jemeppessurmeuse/chemin/12"/><trkseg>
<trkpt lat="50.613438" lon="5.502719"><time>2026-05-03T06:40:43Z</time></trkpt>
<trkpt lat="50.612439" lon="5.502000"><time>2026-05-03T06:50:43Z</time></trkpt>
<trkpt lat="50.612034" lon="5.500795"><time>2026-05-03T07:00:43Z</time></trkpt>
</trkseg></trk>
<trk>
<name>lsrjm12</name>
<cmt>r</cmt>
<desc>Jemeppe-sur-Meuse Chemin n°12 Rue de la Commune</desc>
<link href="https://chemins.be/jemeppessurmeuse/chemin/12"/><trkseg>
<trkpt lat="50.612034" lon="5.500795"><time>2026-05-03T07:00:43Z</time></trkpt>
<trkpt lat="50.611188" lon="5.497979"><time>2026-05-03T07:10:43Z</time></trkpt>
</trkseg></trk>
<trk>
<name>lsrjm12</name>
<cmt>s</cmt>
<desc>Jemeppe-sur-Meuse Chemin n°12 Rue de la Commune</desc>
<link href="https://chemins.be/jemeppessurmeuse/chemin/12"/><trkseg>
<trkpt lat="50.611188" lon="5.497979"><time>2026-05-03T07:10:43Z</time></trkpt>
<trkpt lat="50.610436" lon="5.495774"><time>2026-05-03T07:20:43Z</time></trkpt>
</trkseg></trk>
<trk>
<name>lsrjm12</name>
<cmt>r</cmt>
<desc>Jemeppe-sur-Meuse Chemin n°12 Rue de la Commune</desc>
<link href="https://chemins.be/jemeppessurmeuse/chemin/12"/><trkseg>
<trkpt lat="50.610436" lon="5.495774"><time>2026-05-03T07:20:43Z</time></trkpt>
<trkpt lat="50.609922" lon="5.494654"><time>2026-05-03T07:30:43Z</time></trkpt>
<trkpt lat="50.610320" lon="5.493939"><time>2026-05-03T07:40:43Z</time></trkpt>
</trkseg>
</trk>
<trk>
<name>lsrjm13</name>
<cmt>q</cmt>
<desc>Jemeppe-sur-Meuse Chemin n°13 </desc>
<link href="https://chemins.be/jemeppessurmeuse/chemin/13"/><trkseg>
<trkpt lat="50.620500" lon="5.514970"><time>2026-05-03T06:40:43Z</time></trkpt>
<trkpt lat="50.620935" lon="5.516458"><time>2026-05-03T06:50:43Z</time></trkpt>
<trkpt lat="50.621217" lon="5.516494"><time>2026-05-03T07:00:43Z</time></trkpt>
<trkpt lat="50.621716" lon="5.518747"><time>2026-05-03T07:10:43Z</time></trkpt>
<trkpt lat="50.621707" lon="5.519684"><time>2026-05-03T07:20:43Z</time></trkpt>
<trkpt lat="50.621997" lon="5.520671"><time>2026-05-03T07:30:43Z</time></trkpt>
</trkseg>
</trk>
<trk>
<name>lsrjm14</name>
<cmt>s</cmt>
<desc>Jemeppe-sur-Meuse Chemin n°14 </desc>
<link href="https://chemins.be/jemeppessurmeuse/chemin/14"/><trkseg>
<trkpt lat="50.618579" lon="5.491070"><time>2026-05-03T06:40:43Z</time></trkpt>
<trkpt lat="50.618726" lon="5.489539"><time>2026-05-03T06:50:43Z</time></trkpt>
<trkpt lat="50.618622" lon="5.488263"><time>2026-05-03T07:00:43Z</time></trkpt>
</trkseg>
</trk>
<trk>
<name>lsrjm16</name>
<cmt>v</cmt>
<desc>Jemeppe-sur-Meuse Chemin n°16 </desc>
<link href="https://chemins.be/jemeppessurmeuse/chemin/16"/><trkseg>
<trkpt lat="50.621063" lon="5.512001"><time>2026-05-03T06:40:43Z</time></trkpt>
<trkpt lat="50.621463" lon="5.511838"><time>2026-05-03T06:50:43Z</time></trkpt>
<trkpt lat="50.623016" lon="5.512196"><time>2026-05-03T07:00:43Z</time></trkpt>
<trkpt lat="50.623216" lon="5.512007"><time>2026-05-03T07:10:43Z</time></trkpt>
</trkseg></trk>
<trk>
<name>lsrjm16</name>
<cmt>s</cmt>
<desc>Jemeppe-sur-Meuse Chemin n°16 </desc>
<link href="https://chemins.be/jemeppessurmeuse/chemin/16"/><trkseg>
<trkpt lat="50.623216" lon="5.512007"><time>2026-05-03T07:10:43Z</time></trkpt>
<trkpt lat="50.623835" lon="5.510919"><time>2026-05-03T07:20:43Z</time></trkpt>
</trkseg>
</trk>
<trk>
<name>lsrjm17</name>
<cmt>s</cmt>
<desc>Jemeppe-sur-Meuse Chemin n°17 </desc>
<link href="https://chemins.be/jemeppessurmeuse/chemin/17"/><trkseg>
<trkpt lat="50.607971" lon="5.490258"><time>2026-05-03T06:40:43Z</time></trkpt>
<trkpt lat="50.606904" lon="5.490158"><time>2026-05-03T06:50:43Z</time></trkpt>
</trkseg>
</trk>
<trk>
<name>lsrjm18</name>
<cmt>r</cmt>
<desc>Jemeppe-sur-Meuse Chemin n°18 Rue des Rhieux</desc>
<link href="https://chemins.be/jemeppessurmeuse/chemin/18"/><trkseg>
<trkpt lat="50.617614" lon="5.500958"><time>2026-05-03T06:40:43Z</time></trkpt>
<trkpt lat="50.617801" lon="5.500677"><time>2026-05-03T06:50:43Z</time></trkpt>
</trkseg></trk>
<trk>
<name>lsrjm18</name>
<cmt>s</cmt>
<desc>Jemeppe-sur-Meuse Chemin n°18 Rue des Rhieux</desc>
<link href="https://chemins.be/jemeppessurmeuse/chemin/18"/><trkseg>
<trkpt lat="50.617801" lon="5.500677"><time>2026-05-03T06:50:43Z</time></trkpt>
<trkpt lat="50.618228" lon="5.500309"><time>2026-05-03T07:00:43Z</time></trkpt>
<trkpt lat="50.618342" lon="5.499651"><time>2026-05-03T07:10:43Z</time></trkpt>
<trkpt lat="50.618484" lon="5.499347"><time>2026-05-03T07:20:43Z</time></trkpt>
</trkseg></trk>
<trk>
<name>lsrjm18</name>
<cmt>d</cmt>
<desc>Jemeppe-sur-Meuse Chemin n°18 Rue des Rhieux</desc>
<link href="https://chemins.be/jemeppessurmeuse/chemin/18"/><trkseg>
<trkpt lat="50.618484" lon="5.499347"><time>2026-05-03T07:20:43Z</time></trkpt>
<trkpt lat="50.618768" lon="5.499504"><time>2026-05-03T07:30:43Z</time></trkpt>
</trkseg></trk>
<trk>
<name>lsrjm18</name>
<cmt>s</cmt>
<desc>Jemeppe-sur-Meuse Chemin n°18 Rue des Rhieux</desc>
<link href="https://chemins.be/jemeppessurmeuse/chemin/18"/><trkseg>
<trkpt lat="50.618768" lon="5.499504"><time>2026-05-03T07:30:43Z</time></trkpt>
<trkpt lat="50.618963" lon="5.499161"><time>2026-05-03T07:40:43Z</time></trkpt>
<trkpt lat="50.620577" lon="5.497790"><time>2026-05-03T07:50:43Z</time></trkpt>
<trkpt lat="50.620718" lon="5.497046"><time>2026-05-03T08:00:43Z</time></trkpt>
<trkpt lat="50.621503" lon="5.496953"><time>2026-05-03T08:10:43Z</time></trkpt>
<trkpt lat="50.621916" lon="5.497382"><time>2026-05-03T08:20:43Z</time></trkpt>
</trkseg>
</trk>
<trk>
<name>lsrjm19</name>
<cmt>v</cmt>
<desc>Jemeppe-sur-Meuse Chemin n°19 Rue du Bois-de-Mont / Rue du Laveu</desc>
<link href="https://chemins.be/jemeppessurmeuse/chemin/19"/><trkseg>
<trkpt lat="50.620480" lon="5.482714"><time>2026-05-03T06:40:43Z</time></trkpt>
<trkpt lat="50.619767" lon="5.482994"><time>2026-05-03T06:50:43Z</time></trkpt>
<trkpt lat="50.619830" lon="5.483149"><time>2026-05-03T07:00:43Z</time></trkpt>
<trkpt lat="50.619549" lon="5.483239"><time>2026-05-03T07:10:43Z</time></trkpt>
<trkpt lat="50.619419" lon="5.483436"><time>2026-05-03T07:20:43Z</time></trkpt>
</trkseg></trk>
<trk>
<name>lsrjm19</name>
<cmt>q</cmt>
<desc>Jemeppe-sur-Meuse Chemin n°19 Rue du Bois-de-Mont / Rue du Laveu</desc>
<link href="https://chemins.be/jemeppessurmeuse/chemin/19"/><trkseg>
<trkpt lat="50.619419" lon="5.483436"><time>2026-05-03T07:20:43Z</time></trkpt>
<trkpt lat="50.618659" lon="5.484326"><time>2026-05-03T07:30:43Z</time></trkpt>
</trkseg></trk>
<trk>
<name>lsrjm19</name>
<cmt>v</cmt>
<desc>Jemeppe-sur-Meuse Chemin n°19 Rue du Bois-de-Mont / Rue du Laveu</desc>
<link href="https://chemins.be/jemeppessurmeuse/chemin/19"/><trkseg>
<trkpt lat="50.618659" lon="5.484326"><time>2026-05-03T07:30:43Z</time></trkpt>
<trkpt lat="50.618524" lon="5.484470"><time>2026-05-03T07:40:43Z</time></trkpt>
<trkpt lat="50.618555" lon="5.484622"><time>2026-05-03T07:50:43Z</time></trkpt>
<trkpt lat="50.618025" lon="5.484985"><time>2026-05-03T08:00:43Z</time></trkpt>
</trkseg></trk>
<trk>
<name>lsrjm19</name>
<cmt>r</cmt>
<desc>Jemeppe-sur-Meuse Chemin n°19 Rue du Bois-de-Mont / Rue du Laveu</desc>
<link href="https://chemins.be/jemeppessurmeuse/chemin/19"/><trkseg>
<trkpt lat="50.618025" lon="5.484985"><time>2026-05-03T08:00:43Z</time></trkpt>
<trkpt lat="50.617848" lon="5.483629"><time>2026-05-03T08:10:43Z</time></trkpt>
<trkpt lat="50.617333" lon="5.483831"><time>2026-05-03T08:20:43Z</time></trkpt>
<trkpt lat="50.616644" lon="5.484466"><time>2026-05-03T08:30:43Z</time></trkpt>
<trkpt lat="50.616835" lon="5.485440"><time>2026-05-03T08:40:43Z</time></trkpt>
<trkpt lat="50.615304" lon="5.486565"><time>2026-05-03T08:50:43Z</time></trkpt>
</trkseg></trk>
<trk>
<name>lsrjm19</name>
<cmt>v</cmt>
<desc>Jemeppe-sur-Meuse Chemin n°19 Rue du Bois-de-Mont / Rue du Laveu</desc>
<link href="https://chemins.be/jemeppessurmeuse/chemin/19"/><trkseg>
<trkpt lat="50.615304" lon="5.486565"><time>2026-05-03T08:50:43Z</time></trkpt>
<trkpt lat="50.615263" lon="5.486399"><time>2026-05-03T09:00:43Z</time></trkpt>
<trkpt lat="50.614964" lon="5.486590"><time>2026-05-03T09:10:43Z</time></trkpt>
<trkpt lat="50.614781" lon="5.486967"><time>2026-05-03T09:20:43Z</time></trkpt>
</trkseg>
</trk>
<trk>
<name>lsrjm2</name>
<cmt>r</cmt>
<desc>Jemeppe-sur-Meuse Chemin n°2 </desc>
<link href="https://chemins.be/jemeppessurmeuse/chemin/2"/><trkseg>
<trkpt lat="50.616209" lon="5.499319"><time>2026-05-03T06:40:43Z</time></trkpt>
<trkpt lat="50.615328" lon="5.497552"><time>2026-05-03T06:50:43Z</time></trkpt>
<trkpt lat="50.614765" lon="5.496421"><time>2026-05-03T07:00:43Z</time></trkpt>
</trkseg></trk>
<trk>
<name>lsrjm2</name>
<cmt>s</cmt>
<desc>Jemeppe-sur-Meuse Chemin n°2 </desc>
<link href="https://chemins.be/jemeppessurmeuse/chemin/2"/><trkseg>
<trkpt lat="50.614765" lon="5.496421"><time>2026-05-03T07:00:43Z</time></trkpt>
<trkpt lat="50.614260" lon="5.495505"><time>2026-05-03T07:10:43Z</time></trkpt>
<trkpt lat="50.612661" lon="5.492865"><time>2026-05-03T07:20:43Z</time></trkpt>
</trkseg></trk>
<trk>
<name>lsrjm2</name>
<cmt>r</cmt>
<desc>Jemeppe-sur-Meuse Chemin n°2 </desc>
<link href="https://chemins.be/jemeppessurmeuse/chemin/2"/><trkseg>
<trkpt lat="50.612661" lon="5.492865"><time>2026-05-03T07:20:43Z</time></trkpt>
<trkpt lat="50.611625" lon="5.491422"><time>2026-05-03T07:30:43Z</time></trkpt>
</trkseg>
</trk>
<trk>
<name>lsrjm20</name>
<cmt>q</cmt>
<desc>Jemeppe-sur-Meuse Chemin n°20 </desc>
<link href="https://chemins.be/jemeppessurmeuse/chemin/20"/><trkseg>
<trkpt lat="50.613687" lon="5.486720"><time>2026-05-03T06:40:43Z</time></trkpt>
<trkpt lat="50.612544" lon="5.484394"><time>2026-05-03T06:50:43Z</time></trkpt>
<trkpt lat="50.612359" lon="5.483399"><time>2026-05-03T07:00:43Z</time></trkpt>
<trkpt lat="50.611868" lon="5.482678"><time>2026-05-03T07:10:43Z</time></trkpt>
</trkseg>
</trk>
<trk>
<name>lsrjm21</name>
<cmt>r</cmt>
<desc>Jemeppe-sur-Meuse Sentier n°21 Cité du Onze Novembre</desc>
<link href="https://chemins.be/jemeppessurmeuse/sentier/21"/><trkseg>
<trkpt lat="50.616428" lon="5.483911"><time>2026-05-03T06:40:43Z</time></trkpt>
<trkpt lat="50.615867" lon="5.484294"><time>2026-05-03T06:50:43Z</time></trkpt>
</trkseg></trk>
<trk>
<name>lsrjm21</name>
<cmt>v</cmt>
<desc>Jemeppe-sur-Meuse Sentier n°21 Cité du Onze Novembre</desc>
<link href="https://chemins.be/jemeppessurmeuse/sentier/21"/><trkseg>
<trkpt lat="50.615867" lon="5.484294"><time>2026-05-03T06:50:43Z</time></trkpt>
<trkpt lat="50.615839" lon="5.484378"><time>2026-05-03T07:00:43Z</time></trkpt>
<trkpt lat="50.615179" lon="5.484843"><time>2026-05-03T07:10:43Z</time></trkpt>
<trkpt lat="50.614871" lon="5.484987"><time>2026-05-03T07:20:43Z</time></trkpt>
<trkpt lat="50.614592" lon="5.485144"><time>2026-05-03T07:30:43Z</time></trkpt>
<trkpt lat="50.614694" lon="5.485616"><time>2026-05-03T07:40:43Z</time></trkpt>
</trkseg></trk>
<trk>
<name>lsrjm21</name>
<cmt>q</cmt>
<desc>Jemeppe-sur-Meuse Sentier n°21 Cité du Onze Novembre</desc>
<link href="https://chemins.be/jemeppessurmeuse/sentier/21"/><trkseg>
<trkpt lat="50.614694" lon="5.485616"><time>2026-05-03T07:40:43Z</time></trkpt>
<trkpt lat="50.614296" lon="5.485836"><time>2026-05-03T07:50:43Z</time></trkpt>
<trkpt lat="50.613901" lon="5.486400"><time>2026-05-03T08:00:43Z</time></trkpt>
<trkpt lat="50.613946" lon="5.486520"><time>2026-05-03T08:10:43Z</time></trkpt>
<trkpt lat="50.613725" lon="5.486786"><time>2026-05-03T08:20:43Z</time></trkpt>
</trkseg>
</trk>
<trk>
<name>lsrjm21bis</name>
<cmt>q</cmt>
<desc>Jemeppe-sur-Meuse Chemin n°21bis </desc>
<link href="https://chemins.be/jemeppessurmeuse/chemin/21bis"/><trkseg>
<trkpt lat="50.615156" lon="5.484836"><time>2026-05-03T06:40:43Z</time></trkpt>
<trkpt lat="50.614484" lon="5.484610"><time>2026-05-03T06:50:43Z</time></trkpt>
<trkpt lat="50.613943" lon="5.485096"><time>2026-05-03T07:00:43Z</time></trkpt>
<trkpt lat="50.613386" lon="5.484868"><time>2026-05-03T07:10:43Z</time></trkpt>
<trkpt lat="50.612947" lon="5.484452"><time>2026-05-03T07:20:43Z</time></trkpt>
</trkseg>
</trk>
<trk>
<name>lsrjm22</name>
<cmt>r</cmt>
<desc>Jemeppe-sur-Meuse Chemin n°22 Rue Bigaye</desc>
<link href="https://chemins.be/jemeppessurmeuse/chemin/22"/><trkseg>
<trkpt lat="50.609924" lon="5.484851"><time>2026-05-03T06:40:43Z</time></trkpt>
<trkpt lat="50.610467" lon="5.485617"><time>2026-05-03T06:50:43Z</time></trkpt>
</trkseg></trk>
<trk>
<name>lsrjm22</name>
<cmt>q</cmt>
<desc>Jemeppe-sur-Meuse Chemin n°22 Rue Bigaye</desc>
<link href="https://chemins.be/jemeppessurmeuse/chemin/22"/><trkseg>
<trkpt lat="50.610467" lon="5.485617"><time>2026-05-03T06:50:43Z</time></trkpt>
<trkpt lat="50.611141" lon="5.486475"><time>2026-05-03T07:00:43Z</time></trkpt>
<trkpt lat="50.612434" lon="5.488985"><time>2026-05-03T07:10:43Z</time></trkpt>
<trkpt lat="50.612766" lon="5.489386"><time>2026-05-03T07:20:43Z</time></trkpt>
</trkseg>
</trk>
<trk>
<name>lsrjm23</name>
<cmt>r</cmt>
<desc>Jemeppe-sur-Meuse Chemin n°23 Rue des Kessales</desc>
<link href="https://chemins.be/jemeppessurmeuse/chemin/23"/><trkseg>
<trkpt lat="50.615402" lon="5.489611"><time>2026-05-03T06:40:43Z</time></trkpt>
<trkpt lat="50.615474" lon="5.491685"><time>2026-05-03T06:50:43Z</time></trkpt>
</trkseg></trk>
<trk>
<name>lsrjm23</name>
<cmt>s</cmt>
<desc>Jemeppe-sur-Meuse Chemin n°23 Rue des Kessales</desc>
<link href="https://chemins.be/jemeppessurmeuse/chemin/23"/><trkseg>
<trkpt lat="50.615474" lon="5.491685"><time>2026-05-03T06:50:43Z</time></trkpt>
<trkpt lat="50.615293" lon="5.493777"><time>2026-05-03T07:00:43Z</time></trkpt>
<trkpt lat="50.614276" lon="5.495540"><time>2026-05-03T07:10:43Z</time></trkpt>
</trkseg>
</trk>
<trk>
<name>lsrjm24</name>
<cmt>r</cmt>
<desc>Jemeppe-sur-Meuse Sentier n°24 Rue des Peupliers</desc>
<link href="https://chemins.be/jemeppessurmeuse/sentier/24"/><trkseg>
<trkpt lat="50.621848" lon="5.487173"><time>2026-05-03T06:40:43Z</time></trkpt>
<trkpt lat="50.622470" lon="5.486180"><time>2026-05-03T06:50:43Z</time></trkpt>
</trkseg></trk>
<trk>
<name>lsrjm24</name>
<cmt>v</cmt>
<desc>Jemeppe-sur-Meuse Sentier n°24 Rue des Peupliers</desc>
<link href="https://chemins.be/jemeppessurmeuse/sentier/24"/><trkseg>
<trkpt lat="50.622470" lon="5.486180"><time>2026-05-03T06:50:43Z</time></trkpt>
<trkpt lat="50.622851" lon="5.485545"><time>2026-05-03T07:00:43Z</time></trkpt>
<trkpt lat="50.623237" lon="5.484899"><time>2026-05-03T07:10:43Z</time></trkpt>
<trkpt lat="50.623518" lon="5.484430"><time>2026-05-03T07:20:43Z</time></trkpt>
</trkseg>
</trk>
<trk>
<name>lsrjm25</name>
<cmt>r</cmt>
<desc>Jemeppe-sur-Meuse Sentier n°25 Rue des Mineurs / Ruelle des Moudreux / Rue Aripette</desc>
<link href="https://chemins.be/jemeppessurmeuse/sentier/25"/><trkseg>
<trkpt lat="50.614110" lon="5.499948"><time>2026-05-03T06:40:43Z</time></trkpt>
<trkpt lat="50.615063" lon="5.498758"><time>2026-05-03T06:50:43Z</time></trkpt>
</trkseg></trk>
<trk>
<name>lsrjm25</name>
<cmt>v</cmt>
<desc>Jemeppe-sur-Meuse Sentier n°25 Rue des Mineurs / Ruelle des Moudreux / Rue Aripette</desc>
<link href="https://chemins.be/jemeppessurmeuse/sentier/25"/><trkseg>
<trkpt lat="50.615063" lon="5.498758"><time>2026-05-03T06:50:43Z</time></trkpt>
<trkpt lat="50.614883" lon="5.498436"><time>2026-05-03T07:00:43Z</time></trkpt>
<trkpt lat="50.615340" lon="5.497592"><time>2026-05-03T07:10:43Z</time></trkpt>
</trkseg></trk>
<trk>
<name>lsrjm25</name>
<cmt>r</cmt>
<desc>Jemeppe-sur-Meuse Sentier n°25 Rue des Mineurs / Ruelle des Moudreux / Rue Aripette</desc>
<link href="https://chemins.be/jemeppessurmeuse/sentier/25"/><trkseg>
<trkpt lat="50.615340" lon="5.497592"><time>2026-05-03T07:10:43Z</time></trkpt>
<trkpt lat="50.615872" lon="5.496589"><time>2026-05-03T07:20:43Z</time></trkpt>
</trkseg></trk>
<trk>
<name>lsrjm25</name>
<cmt>v</cmt>
<desc>Jemeppe-sur-Meuse Sentier n°25 Rue des Mineurs / Ruelle des Moudreux / Rue Aripette</desc>
<link href="https://chemins.be/jemeppessurmeuse/sentier/25"/><trkseg>
<trkpt lat="50.615872" lon="5.496589"><time>2026-05-03T07:20:43Z</time></trkpt>
<trkpt lat="50.615958" lon="5.496419"><time>2026-05-03T07:30:43Z</time></trkpt>
</trkseg></trk>
<trk>
<name>lsrjm25</name>
<cmt>s</cmt>
<desc>Jemeppe-sur-Meuse Sentier n°25 Rue des Mineurs / Ruelle des Moudreux / Rue Aripette</desc>
<link href="https://chemins.be/jemeppessurmeuse/sentier/25"/><trkseg>
<trkpt lat="50.615958" lon="5.496419"><time>2026-05-03T07:30:43Z</time></trkpt>
<trkpt lat="50.616181" lon="5.495942"><time>2026-05-03T07:40:43Z</time></trkpt>
</trkseg>
</trk>
<trk>
<name>lsrjm33</name>
<cmt>v</cmt>
<desc>Jemeppe-sur-Meuse Chemin n°33 </desc>
<link href="https://chemins.be/jemeppessurmeuse/chemin/33"/><trkseg>
<trkpt lat="50.626422" lon="5.517980"><time>2026-05-03T06:40:43Z</time></trkpt>
<trkpt lat="50.627048" lon="5.517486"><time>2026-05-03T06:50:43Z</time></trkpt>
</trkseg>
</trk>
<trk>
<name>lsrjm38</name>
<cmt>b</cmt>
<desc>Jemeppe-sur-Meuse Sentier n°38 Sentier du Triffou</desc>
<link href="https://chemins.be/jemeppessurmeuse/sentier/38"/><trkseg>
<trkpt lat="50.622709" lon="5.500356"><time>2026-05-03T06:40:43Z</time></trkpt>
<trkpt lat="50.622908" lon="5.500724"><time>2026-05-03T06:50:43Z</time></trkpt>
<trkpt lat="50.623146" lon="5.501826"><time>2026-05-03T07:00:43Z</time></trkpt>
<trkpt lat="50.623359" lon="5.502436"><time>2026-05-03T07:10:43Z</time></trkpt>
</trkseg></trk>
<trk>
<name>lsrjm38</name>
<cmt>d</cmt>
<desc>Jemeppe-sur-Meuse Sentier n°38 Sentier du Triffou</desc>
<link href="https://chemins.be/jemeppessurmeuse/sentier/38"/><trkseg>
<trkpt lat="50.623359" lon="5.502436"><time>2026-05-03T07:10:43Z</time></trkpt>
<trkpt lat="50.623634" lon="5.503135"><time>2026-05-03T07:20:43Z</time></trkpt>
<trkpt lat="50.623913" lon="5.503477"><time>2026-05-03T07:30:43Z</time></trkpt>
<trkpt lat="50.623965" lon="5.503650"><time>2026-05-03T07:40:43Z</time></trkpt>
<trkpt lat="50.624718" lon="5.504792"><time>2026-05-03T07:50:43Z</time></trkpt>
<trkpt lat="50.625285" lon="5.505810"><time>2026-05-03T08:00:43Z</time></trkpt>
</trkseg></trk>
<trk>
<name>lsrjm38</name>
<cmt>s</cmt>
<desc>Jemeppe-sur-Meuse Sentier n°38 Sentier du Triffou</desc>
<link href="https://chemins.be/jemeppessurmeuse/sentier/38"/><trkseg>
<trkpt lat="50.625285" lon="5.505810"><time>2026-05-03T08:00:43Z</time></trkpt>
<trkpt lat="50.625593" lon="5.506264"><time>2026-05-03T08:10:43Z</time></trkpt>
<trkpt lat="50.626560" lon="5.507898"><time>2026-05-03T08:20:43Z</time></trkpt>
<trkpt lat="50.626801" lon="5.509143"><time>2026-05-03T08:30:43Z</time></trkpt>
</trkseg>
</trk>
<trk>
<name>lsrjm39</name>
<cmt>s</cmt>
<desc>Jemeppe-sur-Meuse Sentier n°39 </desc>
<link href="https://chemins.be/jemeppessurmeuse/sentier/39"/><trkseg>
<trkpt lat="50.611674" lon="5.499633"><time>2026-05-03T06:40:43Z</time></trkpt>
<trkpt lat="50.612957" lon="5.497984"><time>2026-05-03T06:50:43Z</time></trkpt>
</trkseg>
</trk>
<trk>
<name>lsrjm4</name>
<cmt>v</cmt>
<desc>Jemeppe-sur-Meuse Chemin n°4 Rue du Carrefour</desc>
<link href="https://chemins.be/jemeppessurmeuse/chemin/4"/><trkseg>
<trkpt lat="50.622928" lon="5.507970"><time>2026-05-03T06:40:43Z</time></trkpt>
<trkpt lat="50.624322" lon="5.508163"><time>2026-05-03T06:50:43Z</time></trkpt>
</trkseg></trk>
<trk>
<name>lsrjm4</name>
<cmt>s</cmt>
<desc>Jemeppe-sur-Meuse Chemin n°4 Rue du Carrefour</desc>
<link href="https://chemins.be/jemeppessurmeuse/chemin/4"/><trkseg>
<trkpt lat="50.624322" lon="5.508163"><time>2026-05-03T06:50:43Z</time></trkpt>
<trkpt lat="50.626630" lon="5.509137"><time>2026-05-03T07:00:43Z</time></trkpt>
</trkseg>
</trk>
<trk>
<name>lsrjm40</name>
<cmt>q</cmt>
<desc>Jemeppe-sur-Meuse Sentier n°40 </desc>
<link href="https://chemins.be/jemeppessurmeuse/sentier/40"/><trkseg>
<trkpt lat="50.623832" lon="5.484815"><time>2026-05-03T06:40:43Z</time></trkpt>
<trkpt lat="50.624272" lon="5.484150"><time>2026-05-03T06:50:43Z</time></trkpt>
<trkpt lat="50.624458" lon="5.484257"><time>2026-05-03T07:00:43Z</time></trkpt>
</trkseg></trk>
<trk>
<name>lsrjm40</name>
<cmt>r</cmt>
<desc>Jemeppe-sur-Meuse Sentier n°40 </desc>
<link href="https://chemins.be/jemeppessurmeuse/sentier/40"/><trkseg>
<trkpt lat="50.624458" lon="5.484257"><time>2026-05-03T07:00:43Z</time></trkpt>
<trkpt lat="50.624889" lon="5.483885"><time>2026-05-03T07:10:43Z</time></trkpt>
<trkpt lat="50.625006" lon="5.483608"><time>2026-05-03T07:20:43Z</time></trkpt>
</trkseg></trk>
<trk>
<name>lsrjm40</name>
<cmt>q</cmt>
<desc>Jemeppe-sur-Meuse Sentier n°40 </desc>
<link href="https://chemins.be/jemeppessurmeuse/sentier/40"/><trkseg>
<trkpt lat="50.625006" lon="5.483608"><time>2026-05-03T07:20:43Z</time></trkpt>
<trkpt lat="50.625151" lon="5.482877"><time>2026-05-03T07:30:43Z</time></trkpt>
<trkpt lat="50.625307" lon="5.482090"><time>2026-05-03T07:40:43Z</time></trkpt>
</trkseg>
</trk>
<trk>
<name>lsrjm41</name>
<cmt>q</cmt>
<desc>Jemeppe-sur-Meuse Sentier n°41 </desc>
<link href="https://chemins.be/jemeppessurmeuse/sentier/41"/><trkseg>
<trkpt lat="50.612914" lon="5.482231"><time>2026-05-03T06:40:43Z</time></trkpt>
<trkpt lat="50.613336" lon="5.483846"><time>2026-05-03T06:50:43Z</time></trkpt>
<trkpt lat="50.612961" lon="5.484425"><time>2026-05-03T07:00:43Z</time></trkpt>
<trkpt lat="50.612702" lon="5.484645"><time>2026-05-03T07:10:43Z</time></trkpt>
</trkseg>
</trk>
<trk>
<name>lsrjm42</name>
<cmt>v</cmt>
<desc>Jemeppe-sur-Meuse Sentier n°42 </desc>
<link href="https://chemins.be/jemeppessurmeuse/sentier/42"/><trkseg>
<trkpt lat="50.618335" lon="5.480951"><time>2026-05-03T06:40:43Z</time></trkpt>
<trkpt lat="50.618800" lon="5.481992"><time>2026-05-03T06:50:43Z</time></trkpt>
<trkpt lat="50.618956" lon="5.482342"><time>2026-05-03T07:00:43Z</time></trkpt>
</trkseg></trk>
<trk>
<name>lsrjm42</name>
<cmt>s</cmt>
<desc>Jemeppe-sur-Meuse Sentier n°42 </desc>
<link href="https://chemins.be/jemeppessurmeuse/sentier/42"/><trkseg>
<trkpt lat="50.618956" lon="5.482342"><time>2026-05-03T07:00:43Z</time></trkpt>
<trkpt lat="50.619370" lon="5.483368"><time>2026-05-03T07:10:43Z</time></trkpt>
</trkseg>
</trk>
<trk>
<name>lsrjm5</name>
<cmt>r</cmt>
<desc>Jemeppe-sur-Meuse Chemin n°5 Rue Xhavée</desc>
<link href="https://chemins.be/jemeppessurmeuse/chemin/5"/><trkseg>
<trkpt lat="50.625264" lon="5.514738"><time>2026-05-03T06:40:43Z</time></trkpt>
<trkpt lat="50.624594" lon="5.513115"><time>2026-05-03T06:50:43Z</time></trkpt>
<trkpt lat="50.623921" lon="5.511167"><time>2026-05-03T07:00:43Z</time></trkpt>
</trkseg></trk>
<trk>
<name>lsrjm5</name>
<cmt>s</cmt>
<desc>Jemeppe-sur-Meuse Chemin n°5 Rue Xhavée</desc>
<link href="https://chemins.be/jemeppessurmeuse/chemin/5"/><trkseg>
<trkpt lat="50.623921" lon="5.511167"><time>2026-05-03T07:00:43Z</time></trkpt>
<trkpt lat="50.623695" lon="5.510515"><time>2026-05-03T07:10:43Z</time></trkpt>
<trkpt lat="50.623336" lon="5.509656"><time>2026-05-03T07:20:43Z</time></trkpt>
</trkseg></trk>
<trk>
<name>lsrjm5</name>
<cmt>r</cmt>
<desc>Jemeppe-sur-Meuse Chemin n°5 Rue Xhavée</desc>
<link href="https://chemins.be/jemeppessurmeuse/chemin/5"/><trkseg>
<trkpt lat="50.623336" lon="5.509656"><time>2026-05-03T07:20:43Z</time></trkpt>
<trkpt lat="50.623331" lon="5.509184"><time>2026-05-03T07:30:43Z</time></trkpt>
<trkpt lat="50.622988" lon="5.507983"><time>2026-05-03T07:40:43Z</time></trkpt>
</trkseg>
</trk>
<trk>
<name>lsrjm6</name>
<cmt>d</cmt>
<desc>Jemeppe-sur-Meuse Chemin n°6 Chemin du Bois des Pourçais / Chemin n° 6</desc>
<link href="https://chemins.be/jemeppessurmeuse/chemin/6"/><trkseg>
<trkpt lat="50.622211" lon="5.497970"><time>2026-05-03T06:40:43Z</time></trkpt>
<trkpt lat="50.622423" lon="5.498151"><time>2026-05-03T06:50:43Z</time></trkpt>
</trkseg></trk>
<trk>
<name>lsrjm6</name>
<cmt>r</cmt>
<desc>Jemeppe-sur-Meuse Chemin n°6 Chemin du Bois des Pourçais / Chemin n° 6</desc>
<link href="https://chemins.be/jemeppessurmeuse/chemin/6"/><trkseg>
<trkpt lat="50.622423" lon="5.498151"><time>2026-05-03T06:50:43Z</time></trkpt>
<trkpt lat="50.622730" lon="5.498977"><time>2026-05-03T07:00:43Z</time></trkpt>
</trkseg></trk>
<trk>
<name>lsrjm6</name>
<cmt>v</cmt>
<desc>Jemeppe-sur-Meuse Chemin n°6 Chemin du Bois des Pourçais / Chemin n° 6</desc>
<link href="https://chemins.be/jemeppessurmeuse/chemin/6"/><trkseg>
<trkpt lat="50.622730" lon="5.498977"><time>2026-05-03T07:00:43Z</time></trkpt>
<trkpt lat="50.622890" lon="5.499393"><time>2026-05-03T07:10:43Z</time></trkpt>
<trkpt lat="50.623111" lon="5.499821"><time>2026-05-03T07:20:43Z</time></trkpt>
<trkpt lat="50.623728" lon="5.501023"><time>2026-05-03T07:30:43Z</time></trkpt>
</trkseg></trk>
<trk>
<name>lsrjm6</name>
<cmt>d</cmt>
<desc>Jemeppe-sur-Meuse Chemin n°6 Chemin du Bois des Pourçais / Chemin n° 6</desc>
<link href="https://chemins.be/jemeppessurmeuse/chemin/6"/><trkseg>
<trkpt lat="50.623728" lon="5.501023"><time>2026-05-03T07:30:43Z</time></trkpt>
<trkpt lat="50.624237" lon="5.502782"><time>2026-05-03T07:40:43Z</time></trkpt>
<trkpt lat="50.624513" lon="5.503040"><time>2026-05-03T07:50:43Z</time></trkpt>
</trkseg></trk>
<trk>
<name>lsrjm6</name>
<cmt>v</cmt>
<desc>Jemeppe-sur-Meuse Chemin n°6 Chemin du Bois des Pourçais / Chemin n° 6</desc>
<link href="https://chemins.be/jemeppessurmeuse/chemin/6"/><trkseg>
<trkpt lat="50.624513" lon="5.503040"><time>2026-05-03T07:50:43Z</time></trkpt>
<trkpt lat="50.624970" lon="5.503577"><time>2026-05-03T08:00:43Z</time></trkpt>
<trkpt lat="50.625252" lon="5.503377"><time>2026-05-03T08:10:43Z</time></trkpt>
</trkseg></trk>
<trk>
<name>lsrjm6</name>
<cmt>d</cmt>
<desc>Jemeppe-sur-Meuse Chemin n°6 Chemin du Bois des Pourçais / Chemin n° 6</desc>
<link href="https://chemins.be/jemeppessurmeuse/chemin/6"/><trkseg>
<trkpt lat="50.625252" lon="5.503377"><time>2026-05-03T08:10:43Z</time></trkpt>
<trkpt lat="50.625562" lon="5.504493"><time>2026-05-03T08:20:43Z</time></trkpt>
</trkseg></trk>
<trk>
<name>lsrjm6</name>
<cmt>s</cmt>
<desc>Jemeppe-sur-Meuse Chemin n°6 Chemin du Bois des Pourçais / Chemin n° 6</desc>
<link href="https://chemins.be/jemeppessurmeuse/chemin/6"/><trkseg>
<trkpt lat="50.625562" lon="5.504493"><time>2026-05-03T08:20:43Z</time></trkpt>
<trkpt lat="50.625865" lon="5.504904"><time>2026-05-03T08:30:43Z</time></trkpt>
<trkpt lat="50.626289" lon="5.505390"><time>2026-05-03T08:40:43Z</time></trkpt>
</trkseg></trk>
<trk>
<name>lsrjm6</name>
<cmt>v</cmt>
<desc>Jemeppe-sur-Meuse Chemin n°6 Chemin du Bois des Pourçais / Chemin n° 6</desc>
<link href="https://chemins.be/jemeppessurmeuse/chemin/6"/><trkseg>
<trkpt lat="50.626289" lon="5.505390"><time>2026-05-03T08:40:43Z</time></trkpt>
<trkpt lat="50.626324" lon="5.505515"><time>2026-05-03T08:50:43Z</time></trkpt>
<trkpt lat="50.626977" lon="5.505937"><time>2026-05-03T09:00:43Z</time></trkpt>
<trkpt lat="50.627285" lon="5.506591"><time>2026-05-03T09:10:43Z</time></trkpt>
</trkseg></trk>
<trk>
<name>lsrjm6</name>
<cmt>q</cmt>
<desc>Jemeppe-sur-Meuse Chemin n°6 Chemin du Bois des Pourçais / Chemin n° 6</desc>
<link href="https://chemins.be/jemeppessurmeuse/chemin/6"/><trkseg>
<trkpt lat="50.627285" lon="5.506591"><time>2026-05-03T09:10:43Z</time></trkpt>
<trkpt lat="50.627783" lon="5.506977"><time>2026-05-03T09:20:43Z</time></trkpt>
<trkpt lat="50.628030" lon="5.507251"><time>2026-05-03T09:30:43Z</time></trkpt>
<trkpt lat="50.628568" lon="5.507884"><time>2026-05-03T09:40:43Z</time></trkpt>
</trkseg>
</trk>
<trk>
<name>lsrjmi1</name>
<cmt>b</cmt>
<desc>Jemeppe-sur-Meuse Chemin n°i1 Rue du Carrefour</desc>
<link href="https://chemins.be/jemeppessurmeuse/chemin/i1"/><trkseg>
<trkpt lat="50.623917" lon="5.509024"><time>2026-05-03T06:40:43Z</time></trkpt>
<trkpt lat="50.624362" lon="5.508166"><time>2026-05-03T06:50:43Z</time></trkpt>
</trkseg></trk>
<trk>
<name>lsrjmi1</name>
<cmt>v</cmt>
<desc>Jemeppe-sur-Meuse Chemin n°i1 Rue du Carrefour</desc>
<link href="https://chemins.be/jemeppessurmeuse/chemin/i1"/><trkseg>
<trkpt lat="50.624362" lon="5.508166"><time>2026-05-03T06:50:43Z</time></trkpt>
<trkpt lat="50.624981" lon="5.506833"><time>2026-05-03T07:00:43Z</time></trkpt>
<trkpt lat="50.625312" lon="5.505801"><time>2026-05-03T07:10:43Z</time></trkpt>
<trkpt lat="50.625554" lon="5.504484"><time>2026-05-03T07:20:43Z</time></trkpt>
</trkseg>
</trk>
<trk>
<name>lsrjmi10</name>
<cmt>v</cmt>
<desc>Jemeppe-sur-Meuse Chemin n°i10 </desc>
<link href="https://chemins.be/jemeppessurmeuse/chemin/i10"/><trkseg>
<trkpt lat="50.627293" lon="5.506618"><time>2026-05-03T06:40:43Z</time></trkpt>
<trkpt lat="50.627366" lon="5.506957"><time>2026-05-03T06:50:43Z</time></trkpt>
</trkseg>
</trk>
<trk>
<name>lsrjmi11</name>
<cmt>v</cmt>
<desc>Jemeppe-sur-Meuse Chemin n°i11 </desc>
<link href="https://chemins.be/jemeppessurmeuse/chemin/i11"/><trkseg>
<trkpt lat="50.624989" lon="5.506800"><time>2026-05-03T06:40:43Z</time></trkpt>
<trkpt lat="50.625154" lon="5.506982"><time>2026-05-03T06:50:43Z</time></trkpt>
</trkseg></trk>
<trk>
<name>lsrjmi11</name>
<cmt>d</cmt>
<desc>Jemeppe-sur-Meuse Chemin n°i11 </desc>
<link href="https://chemins.be/jemeppessurmeuse/chemin/i11"/><trkseg>
<trkpt lat="50.625154" lon="5.506982"><time>2026-05-03T06:50:43Z</time></trkpt>
<trkpt lat="50.625275" lon="5.507109"><time>2026-05-03T07:00:43Z</time></trkpt>
</trkseg>
</trk>
<trk>
<name>lsrjmi12</name>
<cmt>v</cmt>
<desc>Jemeppe-sur-Meuse Sentier n°i12 </desc>
<link href="https://chemins.be/jemeppessurmeuse/sentier/i12"/><trkseg>
<trkpt lat="50.627195" lon="5.506764"><time>2026-05-03T06:40:43Z</time></trkpt>
<trkpt lat="50.627276" lon="5.506610"><time>2026-05-03T06:50:43Z</time></trkpt>
</trkseg>
</trk>
<trk>
<name>lsrjmi2</name>
<cmt>v</cmt>
<desc>Jemeppe-sur-Meuse Sentier n°i2 </desc>
<link href="https://chemins.be/jemeppessurmeuse/sentier/i2"/><trkseg>
<trkpt lat="50.620458" lon="5.491177"><time>2026-05-03T06:40:43Z</time></trkpt>
<trkpt lat="50.620763" lon="5.491108"><time>2026-05-03T06:50:43Z</time></trkpt>
<trkpt lat="50.620643" lon="5.488190"><time>2026-05-03T07:00:43Z</time></trkpt>
<trkpt lat="50.620922" lon="5.487912"><time>2026-05-03T07:10:43Z</time></trkpt>
<trkpt lat="50.621068" lon="5.487744"><time>2026-05-03T07:20:43Z</time></trkpt>
<trkpt lat="50.620848" lon="5.486226"><time>2026-05-03T07:30:43Z</time></trkpt>
<trkpt lat="50.620399" lon="5.484964"><time>2026-05-03T07:40:43Z</time></trkpt>
<trkpt lat="50.620268" lon="5.484076"><time>2026-05-03T07:50:43Z</time></trkpt>
<trkpt lat="50.619805" lon="5.483050"><time>2026-05-03T08:00:43Z</time></trkpt>
<trkpt lat="50.619173" lon="5.481650"><time>2026-05-03T08:10:43Z</time></trkpt>
</trkseg>
</trk>
<trk>
<name>lsrjmi3</name>
<cmt>q</cmt>
<desc>Jemeppe-sur-Meuse Chemin n°i3 </desc>
<link href="https://chemins.be/jemeppessurmeuse/chemin/i3"/><trkseg>
<trkpt lat="50.619031" lon="5.481960"><time>2026-05-03T06:40:43Z</time></trkpt>
<trkpt lat="50.618929" lon="5.482018"><time>2026-05-03T06:50:43Z</time></trkpt>
<trkpt lat="50.618808" lon="5.481987"><time>2026-05-03T07:00:43Z</time></trkpt>
<trkpt lat="50.618628" lon="5.481532"><time>2026-05-03T07:10:43Z</time></trkpt>
<trkpt lat="50.618514" lon="5.481000"><time>2026-05-03T07:20:43Z</time></trkpt>
<trkpt lat="50.618582" lon="5.480884"><time>2026-05-03T07:30:43Z</time></trkpt>
<trkpt lat="50.618520" lon="5.480648"><time>2026-05-03T07:40:43Z</time></trkpt>
</trkseg>
</trk>
<trk>
<name>lsrjmi4</name>
<cmt>v</cmt>
<desc>Jemeppe-sur-Meuse Sentier n°i4 </desc>
<link href="https://chemins.be/jemeppessurmeuse/sentier/i4"/><trkseg>
<trkpt lat="50.621542" lon="5.489372"><time>2026-05-03T06:40:43Z</time></trkpt>
<trkpt lat="50.620694" lon="5.489384"><time>2026-05-03T06:50:43Z</time></trkpt>
</trkseg>
</trk>
<trk>
<name>lsrjmi5</name>
<cmt>v</cmt>
<desc>Jemeppe-sur-Meuse Sentier n°i5 </desc>
<link href="https://chemins.be/jemeppessurmeuse/sentier/i5"/><trkseg>
<trkpt lat="50.621430" lon="5.511807"><time>2026-05-03T06:40:43Z</time></trkpt>
<trkpt lat="50.621363" lon="5.511669"><time>2026-05-03T06:50:43Z</time></trkpt>
</trkseg>
</trk>
<trk>
<name>lsrjmi6</name>
<cmt>v</cmt>
<desc>Jemeppe-sur-Meuse Chemin n°i6 Rue Xhavée</desc>
<link href="https://chemins.be/jemeppessurmeuse/chemin/i6"/><trkseg>
<trkpt lat="50.623322" lon="5.509679"><time>2026-05-03T06:40:43Z</time></trkpt>
<trkpt lat="50.623234" lon="5.510266"><time>2026-05-03T06:50:43Z</time></trkpt>
<trkpt lat="50.623338" lon="5.510809"><time>2026-05-03T07:00:43Z</time></trkpt>
<trkpt lat="50.623302" lon="5.511428"><time>2026-05-03T07:10:43Z</time></trkpt>
<trkpt lat="50.623216" lon="5.512022"><time>2026-05-03T07:20:43Z</time></trkpt>
</trkseg>
</trk>
<trk>
<name>lsrjmi7</name>
<cmt>v</cmt>
<desc>Jemeppe-sur-Meuse Chemin n°i7 RAVeL Ligne 212</desc>
<link href="https://chemins.be/jemeppessurmeuse/chemin/i7"/><trkseg>
<trkpt lat="50.624370" lon="5.509424"><time>2026-05-03T06:40:43Z</time></trkpt>
<trkpt lat="50.624649" lon="5.508538"><time>2026-05-03T06:50:43Z</time></trkpt>
</trkseg></trk>
<trk>
<name>lsrjmi7</name>
<cmt>d</cmt>
<desc>Jemeppe-sur-Meuse Chemin n°i7 RAVeL Ligne 212</desc>
<link href="https://chemins.be/jemeppessurmeuse/chemin/i7"/><trkseg>
<trkpt lat="50.624649" lon="5.508538"><time>2026-05-03T06:50:43Z</time></trkpt>
<trkpt lat="50.624759" lon="5.507964"><time>2026-05-03T07:00:43Z</time></trkpt>
<trkpt lat="50.625353" lon="5.506991"><time>2026-05-03T07:10:43Z</time></trkpt>
<trkpt lat="50.626272" lon="5.505996"><time>2026-05-03T07:20:43Z</time></trkpt>
<trkpt lat="50.626735" lon="5.506124"><time>2026-05-03T07:30:43Z</time></trkpt>
<trkpt lat="50.626941" lon="5.506409"><time>2026-05-03T07:40:43Z</time></trkpt>
</trkseg></trk>
<trk>
<name>lsrjmi7</name>
<cmt>v</cmt>
<desc>Jemeppe-sur-Meuse Chemin n°i7 RAVeL Ligne 212</desc>
<link href="https://chemins.be/jemeppessurmeuse/chemin/i7"/><trkseg>
<trkpt lat="50.626941" lon="5.506409"><time>2026-05-03T07:40:43Z</time></trkpt>
<trkpt lat="50.627251" lon="5.506857"><time>2026-05-03T07:50:43Z</time></trkpt>
<trkpt lat="50.627348" lon="5.506951"><time>2026-05-03T08:00:43Z</time></trkpt>
<trkpt lat="50.627516" lon="5.507253"><time>2026-05-03T08:10:43Z</time></trkpt>
<trkpt lat="50.628107" lon="5.508184"><time>2026-05-03T08:20:43Z</time></trkpt>
</trkseg>
</trk>
<trk>
<name>lsrjmi8</name>
<cmt>v</cmt>
<desc>Jemeppe-sur-Meuse Chemin n°i8 RAVeL</desc>
<link href="https://chemins.be/jemeppessurmeuse/chemin/i8"/><trkseg>
<trkpt lat="50.624683" lon="5.508469"><time>2026-05-03T06:40:43Z</time></trkpt>
<trkpt lat="50.624962" lon="5.508276"><time>2026-05-03T06:50:43Z</time></trkpt>
<trkpt lat="50.625272" lon="5.507659"><time>2026-05-03T07:00:43Z</time></trkpt>
<trkpt lat="50.626287" lon="5.506669"><time>2026-05-03T07:10:43Z</time></trkpt>
<trkpt lat="50.626554" lon="5.506764"><time>2026-05-03T07:20:43Z</time></trkpt>
<trkpt lat="50.627403" lon="5.508601"><time>2026-05-03T07:30:43Z</time></trkpt>
</trkseg>
</trk>
<trk>
<name>lsrjmi9</name>
<cmt>q</cmt>
<desc>Jemeppe-sur-Meuse Sentier n°i9 </desc>
<link href="https://chemins.be/jemeppessurmeuse/sentier/i9"/><trkseg>
<trkpt lat="50.626167" lon="5.506060"><time>2026-05-03T06:40:43Z</time></trkpt>
<trkpt lat="50.626303" lon="5.505400"><time>2026-05-03T06:50:43Z</time></trkpt>
<trkpt lat="50.626596" lon="5.504821"><time>2026-05-03T07:00:43Z</time></trkpt>
</trkseg>
</trk>
<trk>
<name>lsrjmL210</name>
<cmt>q</cmt>
<desc>Jemeppe-sur-Meuse Chemin n°L210 Rue des Coquerais</desc>
<link href="https://chemins.be/jemeppessurmeuse/chemin/L210"/><trkseg>
<trkpt lat="50.622830" lon="5.519934"><time>2026-05-03T06:40:43Z</time></trkpt>
<trkpt lat="50.622118" lon="5.515683"><time>2026-05-03T06:50:43Z</time></trkpt>
</trkseg></trk>
<trk>
<name>lsrjmL210</name>
<cmt>r</cmt>
<desc>Jemeppe-sur-Meuse Chemin n°L210 Rue des Coquerais</desc>
<link href="https://chemins.be/jemeppessurmeuse/chemin/L210"/><trkseg>
<trkpt lat="50.622118" lon="5.515683"><time>2026-05-03T06:50:43Z</time></trkpt>
<trkpt lat="50.621773" lon="5.514162"><time>2026-05-03T07:00:43Z</time></trkpt>
</trkseg></trk>
<trk>
<name>lsrjmL210</name>
<cmt>v</cmt>
<desc>Jemeppe-sur-Meuse Chemin n°L210 Rue des Coquerais</desc>
<link href="https://chemins.be/jemeppessurmeuse/chemin/L210"/><trkseg>
<trkpt lat="50.621773" lon="5.514162"><time>2026-05-03T07:00:43Z</time></trkpt>
<trkpt lat="50.620995" lon="5.510587"><time>2026-05-03T07:10:43Z</time></trkpt>
<trkpt lat="50.620773" lon="5.509646"><time>2026-05-03T07:20:43Z</time></trkpt>
<trkpt lat="50.620793" lon="5.509453"><time>2026-05-03T07:30:43Z</time></trkpt>
<trkpt lat="50.620698" lon="5.508881"><time>2026-05-03T07:40:43Z</time></trkpt>
</trkseg></trk>
<trk>
<name>lsrjmL210</name>
<cmt>d</cmt>
<desc>Jemeppe-sur-Meuse Chemin n°L210 Rue des Coquerais</desc>
<link href="https://chemins.be/jemeppessurmeuse/chemin/L210"/><trkseg>
<trkpt lat="50.620698" lon="5.508881"><time>2026-05-03T07:40:43Z</time></trkpt>
<trkpt lat="50.620399" lon="5.507948"><time>2026-05-03T07:50:43Z</time></trkpt>
</trkseg></trk>
<trk>
<name>lsrjmL210</name>
<cmt>s</cmt>
<desc>Jemeppe-sur-Meuse Chemin n°L210 Rue des Coquerais</desc>
<link href="https://chemins.be/jemeppessurmeuse/chemin/L210"/><trkseg>
<trkpt lat="50.620399" lon="5.507948"><time>2026-05-03T07:50:43Z</time></trkpt>
<trkpt lat="50.619734" lon="5.505177"><time>2026-05-03T08:00:43Z</time></trkpt>
<trkpt lat="50.619135" lon="5.500084"><time>2026-05-03T08:10:43Z</time></trkpt>
<trkpt lat="50.618484" lon="5.497663"><time>2026-05-03T08:20:43Z</time></trkpt>
</trkseg></trk>
<trk>
<name>lsrjmL210</name>
<cmt>t</cmt>
<desc>Jemeppe-sur-Meuse Chemin n°L210 Rue des Coquerais</desc>
<link href="https://chemins.be/jemeppessurmeuse/chemin/L210"/><trkseg>
<trkpt lat="50.618484" lon="5.497663"><time>2026-05-03T08:20:43Z</time></trkpt>
<trkpt lat="50.617218" lon="5.495009"><time>2026-05-03T08:30:43Z</time></trkpt>
<trkpt lat="50.613825" lon="5.490843"><time>2026-05-03T08:40:43Z</time></trkpt>
<trkpt lat="50.609168" lon="5.485951"><time>2026-05-03T08:50:43Z</time></trkpt>
</trkseg>
</trk>
<trk>
<name>lsrog1</name>
<cmt>s</cmt>
<desc>Ougrée Chemin n°1 </desc>
<link href="https://chemins.be/ougree/chemin/1"/><trkseg>
<trkpt lat="50.604003" lon="5.542980"><time>2026-05-03T06:40:44Z</time></trkpt>
<trkpt lat="50.603454" lon="5.543309"><time>2026-05-03T06:50:44Z</time></trkpt>
<trkpt lat="50.603354" lon="5.545719"><time>2026-05-03T07:00:44Z</time></trkpt>
<trkpt lat="50.603653" lon="5.548573"><time>2026-05-03T07:10:44Z</time></trkpt>
<trkpt lat="50.603458" lon="5.549925"><time>2026-05-03T07:20:44Z</time></trkpt>
<trkpt lat="50.603608" lon="5.553115"><time>2026-05-03T07:30:44Z</time></trkpt>
<trkpt lat="50.604961" lon="5.559002"><time>2026-05-03T07:40:44Z</time></trkpt>
<trkpt lat="50.605841" lon="5.559445"><time>2026-05-03T07:50:44Z</time></trkpt>
</trkseg>
</trk>
<trk>
<name>lsrog10</name>
<cmt>s</cmt>
<desc>Ougrée Chemin n°10 </desc>
<link href="https://chemins.be/ougree/chemin/10"/><trkseg>
<trkpt lat="50.582115" lon="5.541340"><time>2026-05-03T06:40:44Z</time></trkpt>
<trkpt lat="50.586693" lon="5.540682"><time>2026-05-03T06:50:44Z</time></trkpt>
<trkpt lat="50.587446" lon="5.540296"><time>2026-05-03T07:00:44Z</time></trkpt>
<trkpt lat="50.592151" lon="5.535432"><time>2026-05-03T07:10:44Z</time></trkpt>
<trkpt lat="50.594230" lon="5.534703"><time>2026-05-03T07:20:44Z</time></trkpt>
<trkpt lat="50.595489" lon="5.533690"><time>2026-05-03T07:30:44Z</time></trkpt>
<trkpt lat="50.596165" lon="5.533518"><time>2026-05-03T07:40:44Z</time></trkpt>
</trkseg></trk>
<trk>
<name>lsrog10</name>
<cmt>r</cmt>
<desc>Ougrée Chemin n°10 </desc>
<link href="https://chemins.be/ougree/chemin/10"/><trkseg>
<trkpt lat="50.596165" lon="5.533518"><time>2026-05-03T07:40:44Z</time></trkpt>
<trkpt lat="50.597162" lon="5.532888"><time>2026-05-03T07:50:44Z</time></trkpt>
<trkpt lat="50.597489" lon="5.532956"><time>2026-05-03T08:00:44Z</time></trkpt>
<trkpt lat="50.597863" lon="5.533310"><time>2026-05-03T08:10:44Z</time></trkpt>
<trkpt lat="50.598129" lon="5.533901"><time>2026-05-03T08:20:44Z</time></trkpt>
</trkseg>
</trk>
<trk>
<name>lsrog12</name>
<cmt>s</cmt>
<desc>Ougrée Chemin n°12 </desc>
<link href="https://chemins.be/ougree/chemin/12"/><trkseg>
<trkpt lat="50.606520" lon="5.535481"><time>2026-05-03T06:40:44Z</time></trkpt>
<trkpt lat="50.606831" lon="5.533494"><time>2026-05-03T06:50:44Z</time></trkpt>
</trkseg>
</trk>
<trk>
<name>lsrog16</name>
<cmt>b</cmt>
<desc>Ougrée Chemin n°16 </desc>
<link href="https://chemins.be/ougree/chemin/16"/><trkseg>
<trkpt lat="50.602106" lon="5.558506"><time>2026-05-03T06:40:44Z</time></trkpt>
<trkpt lat="50.601962" lon="5.557556"><time>2026-05-03T06:50:44Z</time></trkpt>
<trkpt lat="50.601494" lon="5.556795"><time>2026-05-03T07:00:44Z</time></trkpt>
<trkpt lat="50.600928" lon="5.554012"><time>2026-05-03T07:10:44Z</time></trkpt>
<trkpt lat="50.600934" lon="5.552585"><time>2026-05-03T07:20:44Z</time></trkpt>
<trkpt lat="50.601141" lon="5.551700"><time>2026-05-03T07:30:44Z</time></trkpt>
<trkpt lat="50.601141" lon="5.550810"><time>2026-05-03T07:40:44Z</time></trkpt>
</trkseg>
</trk>
<trk>
<name>lsrog17</name>
<cmt>s</cmt>
<desc>Ougrée Chemin n°17 Rue de Renory / Rue Léopold Joset / Rue Petite Mai</desc>
<link href="https://chemins.be/ougree/chemin/17"/><trkseg>
<trkpt lat="50.606309" lon="5.546771"><time>2026-05-03T06:40:44Z</time></trkpt>
<trkpt lat="50.605533" lon="5.546763"><time>2026-05-03T06:50:44Z</time></trkpt>
<trkpt lat="50.604770" lon="5.547150"><time>2026-05-03T07:00:44Z</time></trkpt>
<trkpt lat="50.603272" lon="5.546141"><time>2026-05-03T07:10:44Z</time></trkpt>
</trkseg></trk>
<trk>
<name>lsrog17</name>
<cmt>r</cmt>
<desc>Ougrée Chemin n°17 Rue de Renory / Rue Léopold Joset / Rue Petite Mai</desc>
<link href="https://chemins.be/ougree/chemin/17"/><trkseg>
<trkpt lat="50.603272" lon="5.546141"><time>2026-05-03T07:10:44Z</time></trkpt>
<trkpt lat="50.603250" lon="5.545594"><time>2026-05-03T07:20:44Z</time></trkpt>
<trkpt lat="50.603200" lon="5.545312"><time>2026-05-03T07:30:44Z</time></trkpt>
<trkpt lat="50.601292" lon="5.544472"><time>2026-05-03T07:40:44Z</time></trkpt>
<trkpt lat="50.600717" lon="5.544189"><time>2026-05-03T07:50:44Z</time></trkpt>
<trkpt lat="50.600281" lon="5.543502"><time>2026-05-03T08:00:44Z</time></trkpt>
<trkpt lat="50.598978" lon="5.543895"><time>2026-05-03T08:10:44Z</time></trkpt>
<trkpt lat="50.598646" lon="5.544271"><time>2026-05-03T08:20:44Z</time></trkpt>
<trkpt lat="50.598639" lon="5.544408"><time>2026-05-03T08:30:44Z</time></trkpt>
</trkseg></trk>
<trk>
<name>lsrog17</name>
<cmt>v</cmt>
<desc>Ougrée Chemin n°17 Rue de Renory / Rue Léopold Joset / Rue Petite Mai</desc>
<link href="https://chemins.be/ougree/chemin/17"/><trkseg>
<trkpt lat="50.598639" lon="5.544408"><time>2026-05-03T08:30:44Z</time></trkpt>
<trkpt lat="50.598553" lon="5.544525"><time>2026-05-03T08:40:44Z</time></trkpt>
<trkpt lat="50.598499" lon="5.544706"><time>2026-05-03T08:50:44Z</time></trkpt>
<trkpt lat="50.598413" lon="5.544692"><time>2026-05-03T09:00:44Z</time></trkpt>
<trkpt lat="50.598174" lon="5.544716"><time>2026-05-03T09:10:44Z</time></trkpt>
</trkseg></trk>
<trk>
<name>lsrog17</name>
<cmt>r</cmt>
<desc>Ougrée Chemin n°17 Rue de Renory / Rue Léopold Joset / Rue Petite Mai</desc>
<link href="https://chemins.be/ougree/chemin/17"/><trkseg>
<trkpt lat="50.598174" lon="5.544716"><time>2026-05-03T09:10:44Z</time></trkpt>
<trkpt lat="50.597668" lon="5.544735"><time>2026-05-03T09:20:44Z</time></trkpt>
</trkseg>
</trk>
<trk>
<name>lsrog19</name>
<cmt>q</cmt>
<desc>Ougrée Chemin n°19 </desc>
<link href="https://chemins.be/ougree/chemin/19"/><trkseg>
<trkpt lat="50.619243" lon="5.543105"><time>2026-05-03T06:40:44Z</time></trkpt>
<trkpt lat="50.619108" lon="5.543934"><time>2026-05-03T06:50:44Z</time></trkpt>
</trkseg></trk>
<trk>
<name>lsrog19</name>
<cmt>d</cmt>
<desc>Ougrée Chemin n°19 </desc>
<link href="https://chemins.be/ougree/chemin/19"/><trkseg>
<trkpt lat="50.619108" lon="5.543934"><time>2026-05-03T06:50:44Z</time></trkpt>
<trkpt lat="50.619258" lon="5.544009"><time>2026-05-03T07:00:44Z</time></trkpt>
</trkseg>
</trk>
<trk>
<name>lsrog2</name>
<cmt>v</cmt>
<desc>Ougrée Chemin n°2 Boulevard du Rectorat</desc>
<link href="https://chemins.be/ougree/chemin/2"/><trkseg>
<trkpt lat="50.596524" lon="5.543156"><time>2026-05-03T06:40:44Z</time></trkpt>
<trkpt lat="50.595413" lon="5.542984"><time>2026-05-03T06:50:44Z</time></trkpt>
<trkpt lat="50.593212" lon="5.542624"><time>2026-05-03T07:00:44Z</time></trkpt>
<trkpt lat="50.591403" lon="5.543414"><time>2026-05-03T07:10:44Z</time></trkpt>
<trkpt lat="50.590792" lon="5.543396"><time>2026-05-03T07:20:44Z</time></trkpt>
<trkpt lat="50.591021" lon="5.544173"><time>2026-05-03T07:30:44Z</time></trkpt>
<trkpt lat="50.590829" lon="5.544451"><time>2026-05-03T07:40:44Z</time></trkpt>
<trkpt lat="50.590458" lon="5.544724"><time>2026-05-03T07:50:44Z</time></trkpt>
<trkpt lat="50.589961" lon="5.544937"><time>2026-05-03T08:00:44Z</time></trkpt>
<trkpt lat="50.589545" lon="5.545181"><time>2026-05-03T08:10:44Z</time></trkpt>
<trkpt lat="50.589218" lon="5.545512"><time>2026-05-03T08:20:44Z</time></trkpt>
<trkpt lat="50.588957" lon="5.545576"><time>2026-05-03T08:30:44Z</time></trkpt>
<trkpt lat="50.588709" lon="5.546107"><time>2026-05-03T08:40:44Z</time></trkpt>
<trkpt lat="50.588374" lon="5.546324"><time>2026-05-03T08:50:44Z</time></trkpt>
<trkpt lat="50.588164" lon="5.546616"><time>2026-05-03T09:00:44Z</time></trkpt>
<trkpt lat="50.587790" lon="5.548061"><time>2026-05-03T09:10:44Z</time></trkpt>
<trkpt lat="50.587620" lon="5.548876"><time>2026-05-03T09:20:44Z</time></trkpt>
<trkpt lat="50.587493" lon="5.548929"><time>2026-05-03T09:30:44Z</time></trkpt>
<trkpt lat="50.587282" lon="5.549362"><time>2026-05-03T09:40:44Z</time></trkpt>
<trkpt lat="50.586955" lon="5.549679"><time>2026-05-03T09:50:44Z</time></trkpt>
<trkpt lat="50.586611" lon="5.549896"><time>2026-05-03T10:00:44Z</time></trkpt>
<trkpt lat="50.586371" lon="5.549951"><time>2026-05-03T10:10:44Z</time></trkpt>
</trkseg></trk>
<trk>
<name>lsrog2</name>
<cmt>d</cmt>
<desc>Ougrée Chemin n°2 Boulevard du Rectorat</desc>
<link href="https://chemins.be/ougree/chemin/2"/><trkseg>
<trkpt lat="50.586371" lon="5.549951"><time>2026-05-03T10:10:44Z</time></trkpt>
<trkpt lat="50.585720" lon="5.549590"><time>2026-05-03T10:20:44Z</time></trkpt>
</trkseg></trk>
<trk>
<name>lsrog2</name>
<cmt>s</cmt>
<desc>Ougrée Chemin n°2 Boulevard du Rectorat</desc>
<link href="https://chemins.be/ougree/chemin/2"/><trkseg>
<trkpt lat="50.585720" lon="5.549590"><time>2026-05-03T10:20:44Z</time></trkpt>
<trkpt lat="50.585335" lon="5.549436"><time>2026-05-03T10:30:44Z</time></trkpt>
</trkseg></trk>
<trk>
<name>lsrog2</name>
<cmt>d</cmt>
<desc>Ougrée Chemin n°2 Boulevard du Rectorat</desc>
<link href="https://chemins.be/ougree/chemin/2"/><trkseg>
<trkpt lat="50.585335" lon="5.549436"><time>2026-05-03T10:30:44Z</time></trkpt>
<trkpt lat="50.584902" lon="5.549431"><time>2026-05-03T10:40:44Z</time></trkpt>
<trkpt lat="50.584624" lon="5.549316"><time>2026-05-03T10:50:44Z</time></trkpt>
</trkseg></trk>
<trk>
<name>lsrog2</name>
<cmt>s</cmt>
<desc>Ougrée Chemin n°2 Boulevard du Rectorat</desc>
<link href="https://chemins.be/ougree/chemin/2"/><trkseg>
<trkpt lat="50.584624" lon="5.549316"><time>2026-05-03T10:50:44Z</time></trkpt>
<trkpt lat="50.583861" lon="5.549302"><time>2026-05-03T11:00:44Z</time></trkpt>
<trkpt lat="50.583632" lon="5.550280"><time>2026-05-03T11:10:44Z</time></trkpt>
<trkpt lat="50.579710" lon="5.556481"><time>2026-05-03T11:20:44Z</time></trkpt>
</trkseg></trk>
<trk>
<name>lsrog2</name>
<cmt>v</cmt>
<desc>Ougrée Chemin n°2 Boulevard du Rectorat</desc>
<link href="https://chemins.be/ougree/chemin/2"/><trkseg>
<trkpt lat="50.579710" lon="5.556481"><time>2026-05-03T11:20:44Z</time></trkpt>
<trkpt lat="50.578447" lon="5.557311"><time>2026-05-03T11:30:44Z</time></trkpt>
<trkpt lat="50.578139" lon="5.557315"><time>2026-05-03T11:40:44Z</time></trkpt>
<trkpt lat="50.577299" lon="5.557710"><time>2026-05-03T11:50:44Z</time></trkpt>
<trkpt lat="50.576683" lon="5.559667"><time>2026-05-03T12:00:44Z</time></trkpt>
</trkseg></trk>
<trk>
<name>lsrog2</name>
<cmt>d</cmt>
<desc>Ougrée Chemin n°2 Boulevard du Rectorat</desc>
<link href="https://chemins.be/ougree/chemin/2"/><trkseg>
<trkpt lat="50.576683" lon="5.559667"><time>2026-05-03T12:00:44Z</time></trkpt>
<trkpt lat="50.576561" lon="5.560118"><time>2026-05-03T12:10:44Z</time></trkpt>
<trkpt lat="50.576389" lon="5.560946"><time>2026-05-03T12:20:44Z</time></trkpt>
</trkseg></trk>
<trk>
<name>lsrog2</name>
<cmt>v</cmt>
<desc>Ougrée Chemin n°2 Boulevard du Rectorat</desc>
<link href="https://chemins.be/ougree/chemin/2"/><trkseg>
<trkpt lat="50.576389" lon="5.560946"><time>2026-05-03T12:20:44Z</time></trkpt>
<trkpt lat="50.575577" lon="5.561534"><time>2026-05-03T12:30:44Z</time></trkpt>
<trkpt lat="50.575417" lon="5.562869"><time>2026-05-03T12:40:44Z</time></trkpt>
<trkpt lat="50.575646" lon="5.566569"><time>2026-05-03T12:50:44Z</time></trkpt>
<trkpt lat="50.575406" lon="5.566929"><time>2026-05-03T13:00:44Z</time></trkpt>
</trkseg>
</trk>
<trk>
<name>lsrog22</name>
<cmt>r</cmt>
<desc>Ougrée Chemin n°22 Rue Côte d'Or / Rue Maréchal Foch</desc>
<link href="https://chemins.be/ougree/chemin/22"/><trkseg>
<trkpt lat="50.612331" lon="5.556934"><time>2026-05-03T06:40:44Z</time></trkpt>
<trkpt lat="50.613347" lon="5.554640"><time>2026-05-03T06:50:44Z</time></trkpt>
</trkseg></trk>
<trk>
<name>lsrog22</name>
<cmt>s</cmt>
<desc>Ougrée Chemin n°22 Rue Côte d'Or / Rue Maréchal Foch</desc>
<link href="https://chemins.be/ougree/chemin/22"/><trkseg>
<trkpt lat="50.613347" lon="5.554640"><time>2026-05-03T06:50:44Z</time></trkpt>
<trkpt lat="50.614057" lon="5.552891"><time>2026-05-03T07:00:44Z</time></trkpt>
</trkseg></trk>
<trk>
<name>lsrog22</name>
<cmt>r</cmt>
<desc>Ougrée Chemin n°22 Rue Côte d'Or / Rue Maréchal Foch</desc>
<link href="https://chemins.be/ougree/chemin/22"/><trkseg>
<trkpt lat="50.614057" lon="5.552891"><time>2026-05-03T07:00:44Z</time></trkpt>
<trkpt lat="50.614259" lon="5.552394"><time>2026-05-03T07:10:44Z</time></trkpt>
</trkseg>
</trk>
<trk>
<name>lsrog23</name>
<cmt>r</cmt>
<desc>Ougrée Chemin n°23 Rue Galilée</desc>
<link href="https://chemins.be/ougree/chemin/23"/><trkseg>
<trkpt lat="50.618160" lon="5.542788"><time>2026-05-03T06:40:44Z</time></trkpt>
<trkpt lat="50.618312" lon="5.543155"><time>2026-05-03T06:50:44Z</time></trkpt>
<trkpt lat="50.618545" lon="5.543433"><time>2026-05-03T07:00:44Z</time></trkpt>
</trkseg></trk>
<trk>
<name>lsrog23</name>
<cmt>d</cmt>
<desc>Ougrée Chemin n°23 Rue Galilée</desc>
<link href="https://chemins.be/ougree/chemin/23"/><trkseg>
<trkpt lat="50.618545" lon="5.543433"><time>2026-05-03T07:00:44Z</time></trkpt>
<trkpt lat="50.618846" lon="5.543752"><time>2026-05-03T07:10:44Z</time></trkpt>
</trkseg></trk>
<trk>
<name>lsrog23</name>
<cmt>s</cmt>
<desc>Ougrée Chemin n°23 Rue Galilée</desc>
<link href="https://chemins.be/ougree/chemin/23"/><trkseg>
<trkpt lat="50.618846" lon="5.543752"><time>2026-05-03T07:10:44Z</time></trkpt>
<trkpt lat="50.618941" lon="5.543857"><time>2026-05-03T07:20:44Z</time></trkpt>
<trkpt lat="50.619098" lon="5.543913"><time>2026-05-03T07:30:44Z</time></trkpt>
</trkseg>
</trk>
<trk>
<name>lsrog24</name>
<cmt>s</cmt>
<desc>Ougrée Chemin n°24 </desc>
<link href="https://chemins.be/ougree/chemin/24"/><trkseg>
<trkpt lat="50.610012" lon="5.534513"><time>2026-05-03T06:40:44Z</time></trkpt>
<trkpt lat="50.612674" lon="5.535361"><time>2026-05-03T06:50:44Z</time></trkpt>
<trkpt lat="50.616258" lon="5.535693"><time>2026-05-03T07:00:44Z</time></trkpt>
<trkpt lat="50.617472" lon="5.535827"><time>2026-05-03T07:10:44Z</time></trkpt>
</trkseg></trk>
<trk>
<name>lsrog24</name>
<cmt>q</cmt>
<desc>Ougrée Chemin n°24 </desc>
<link href="https://chemins.be/ougree/chemin/24"/><trkseg>
<trkpt lat="50.617472" lon="5.535827"><time>2026-05-03T07:10:44Z</time></trkpt>
<trkpt lat="50.618225" lon="5.535561"><time>2026-05-03T07:20:44Z</time></trkpt>
<trkpt lat="50.619156" lon="5.536233"><time>2026-05-03T07:30:44Z</time></trkpt>
</trkseg>
</trk>
<trk>
<name>lsrog25</name>
<cmt>s</cmt>
<desc>Ougrée Chemin n°25 </desc>
<link href="https://chemins.be/ougree/chemin/25"/><trkseg>
<trkpt lat="50.615996" lon="5.541068"><time>2026-05-03T06:40:44Z</time></trkpt>
<trkpt lat="50.616786" lon="5.534030"><time>2026-05-03T06:50:44Z</time></trkpt>
</trkseg>
</trk>
<trk>
<name>lsrog26</name>
<cmt>v</cmt>
<desc>Ougrée Chemin n°26 Rue Thier del Dague</desc>
<link href="https://chemins.be/ougree/chemin/26"/><trkseg>
<trkpt lat="50.615882" lon="5.557293"><time>2026-05-03T06:40:44Z</time></trkpt>
<trkpt lat="50.616055" lon="5.556908"><time>2026-05-03T06:50:44Z</time></trkpt>
<trkpt lat="50.616098" lon="5.556807"><time>2026-05-03T07:00:44Z</time></trkpt>
<trkpt lat="50.616292" lon="5.556327"><time>2026-05-03T07:10:44Z</time></trkpt>
<trkpt lat="50.616447" lon="5.555945"><time>2026-05-03T07:20:44Z</time></trkpt>
<trkpt lat="50.616526" lon="5.555595"><time>2026-05-03T07:30:44Z</time></trkpt>
<trkpt lat="50.616480" lon="5.554810"><time>2026-05-03T07:40:44Z</time></trkpt>
</trkseg>
</trk>
<trk>
<name>lsrog27</name>
<cmt>v</cmt>
<desc>Ougrée Chemin n°27 </desc>
<link href="https://chemins.be/ougree/chemin/27"/><trkseg>
<trkpt lat="50.615481" lon="5.553457"><time>2026-05-03T06:40:44Z</time></trkpt>
<trkpt lat="50.615717" lon="5.553170"><time>2026-05-03T06:50:44Z</time></trkpt>
<trkpt lat="50.617115" lon="5.552498"><time>2026-05-03T07:00:44Z</time></trkpt>
</trkseg>
</trk>
<trk>
<name>lsrog3</name>
<cmt>v</cmt>
<desc>Ougrée Chemin n°3 Boulevard du Rectorat / Route du Condroz</desc>
<link href="https://chemins.be/ougree/chemin/3"/><trkseg>
<trkpt lat="50.584031" lon="5.562281"><time>2026-05-03T06:40:44Z</time></trkpt>
<trkpt lat="50.583477" lon="5.562095"><time>2026-05-03T06:50:44Z</time></trkpt>
<trkpt lat="50.582664" lon="5.561551"><time>2026-05-03T07:00:44Z</time></trkpt>
<trkpt lat="50.582479" lon="5.561590"><time>2026-05-03T07:10:44Z</time></trkpt>
</trkseg></trk>
<trk>
<name>lsrog3</name>
<cmt>r</cmt>
<desc>Ougrée Chemin n°3 Boulevard du Rectorat / Route du Condroz</desc>
<link href="https://chemins.be/ougree/chemin/3"/><trkseg>
<trkpt lat="50.582479" lon="5.561590"><time>2026-05-03T07:10:44Z</time></trkpt>
<trkpt lat="50.580830" lon="5.558468"><time>2026-05-03T07:20:44Z</time></trkpt>
</trkseg></trk>
<trk>
<name>lsrog3</name>
<cmt>d</cmt>
<desc>Ougrée Chemin n°3 Boulevard du Rectorat / Route du Condroz</desc>
<link href="https://chemins.be/ougree/chemin/3"/><trkseg>
<trkpt lat="50.580830" lon="5.558468"><time>2026-05-03T07:20:44Z</time></trkpt>
<trkpt lat="50.580299" lon="5.557463"><time>2026-05-03T07:30:44Z</time></trkpt>
<trkpt lat="50.579712" lon="5.556352"><time>2026-05-03T07:40:44Z</time></trkpt>
</trkseg></trk>
<trk>
<name>lsrog3</name>
<cmt>r</cmt>
<desc>Ougrée Chemin n°3 Boulevard du Rectorat / Route du Condroz</desc>
<link href="https://chemins.be/ougree/chemin/3"/><trkseg>
<trkpt lat="50.579712" lon="5.556352"><time>2026-05-03T07:40:44Z</time></trkpt>
<trkpt lat="50.578163" lon="5.554756"><time>2026-05-03T07:50:44Z</time></trkpt>
<trkpt lat="50.576728" lon="5.553855"><time>2026-05-03T08:00:44Z</time></trkpt>
<trkpt lat="50.575845" lon="5.553406"><time>2026-05-03T08:10:44Z</time></trkpt>
<trkpt lat="50.571186" lon="5.552556"><time>2026-05-03T08:20:44Z</time></trkpt>
</trkseg></trk>
<trk>
<name>lsrog3</name>
<cmt>s</cmt>
<desc>Ougrée Chemin n°3 Boulevard du Rectorat / Route du Condroz</desc>
<link href="https://chemins.be/ougree/chemin/3"/><trkseg>
<trkpt lat="50.571186" lon="5.552556"><time>2026-05-03T08:20:44Z</time></trkpt>
<trkpt lat="50.570866" lon="5.551998"><time>2026-05-03T08:30:44Z</time></trkpt>
</trkseg></trk>
<trk>
<name>lsrog3</name>
<cmt>r</cmt>
<desc>Ougrée Chemin n°3 Boulevard du Rectorat / Route du Condroz</desc>
<link href="https://chemins.be/ougree/chemin/3"/><trkseg>
<trkpt lat="50.570866" lon="5.551998"><time>2026-05-03T08:30:44Z</time></trkpt>
<trkpt lat="50.569875" lon="5.551848"><time>2026-05-03T08:40:44Z</time></trkpt>
</trkseg>
</trk>
<trk>
<name>lsrog30</name>
<cmt>v</cmt>
<desc>Ougrée Chemin n°30 Ruelle Hierby / Chemin vicinal n°30</desc>
<link href="https://chemins.be/ougree/chemin/30"/><trkseg>
<trkpt lat="50.617279" lon="5.545010"><time>2026-05-03T06:40:44Z</time></trkpt>
<trkpt lat="50.617982" lon="5.545259"><time>2026-05-03T06:50:44Z</time></trkpt>
<trkpt lat="50.618274" lon="5.544971"><time>2026-05-03T07:00:44Z</time></trkpt>
<trkpt lat="50.618513" lon="5.545125"><time>2026-05-03T07:10:44Z</time></trkpt>
<trkpt lat="50.618390" lon="5.545442"><time>2026-05-03T07:20:44Z</time></trkpt>
</trkseg></trk>
<trk>
<name>lsrog30</name>
<cmt>b</cmt>
<desc>Ougrée Chemin n°30 Ruelle Hierby / Chemin vicinal n°30</desc>
<link href="https://chemins.be/ougree/chemin/30"/><trkseg>
<trkpt lat="50.618390" lon="5.545442"><time>2026-05-03T07:20:44Z</time></trkpt>
<trkpt lat="50.618430" lon="5.545514"><time>2026-05-03T07:30:44Z</time></trkpt>
<trkpt lat="50.618568" lon="5.545518"><time>2026-05-03T07:40:44Z</time></trkpt>
<trkpt lat="50.618744" lon="5.545474"><time>2026-05-03T07:50:44Z</time></trkpt>
<trkpt lat="50.619112" lon="5.545617"><time>2026-05-03T08:00:44Z</time></trkpt>
<trkpt lat="50.619251" lon="5.545796"><time>2026-05-03T08:10:44Z</time></trkpt>
</trkseg>
</trk>
<trk>
<name>lsrog32</name>
<cmt>s</cmt>
<desc>Ougrée Chemin n°32 </desc>
<link href="https://chemins.be/ougree/chemin/32"/><trkseg>
<trkpt lat="50.605009" lon="5.543166"><time>2026-05-03T06:40:44Z</time></trkpt>
<trkpt lat="50.605137" lon="5.542148"><time>2026-05-03T06:50:44Z</time></trkpt>
<trkpt lat="50.605573" lon="5.541973"><time>2026-05-03T07:00:44Z</time></trkpt>
<trkpt lat="50.605877" lon="5.542088"><time>2026-05-03T07:10:44Z</time></trkpt>
<trkpt lat="50.606122" lon="5.542535"><time>2026-05-03T07:20:44Z</time></trkpt>
<trkpt lat="50.606492" lon="5.542620"><time>2026-05-03T07:30:44Z</time></trkpt>
</trkseg>
</trk>
<trk>
<name>lsrog33</name>
<cmt>s</cmt>
<desc>Ougrée Chemin n°33 </desc>
<link href="https://chemins.be/ougree/chemin/33"/><trkseg>
<trkpt lat="50.606044" lon="5.543348"><time>2026-05-03T06:40:44Z</time></trkpt>
<trkpt lat="50.606136" lon="5.542694"><time>2026-05-03T06:50:44Z</time></trkpt>
</trkseg>
</trk>
<trk>
<name>lsrog34</name>
<cmt>s</cmt>
<desc>Ougrée Chemin n°34 </desc>
<link href="https://chemins.be/ougree/chemin/34"/><trkseg>
<trkpt lat="50.605881" lon="5.542560"><time>2026-05-03T06:40:44Z</time></trkpt>
<trkpt lat="50.605686" lon="5.542962"><time>2026-05-03T06:50:44Z</time></trkpt>
<trkpt lat="50.605605" lon="5.543345"><time>2026-05-03T07:00:44Z</time></trkpt>
<trkpt lat="50.605484" lon="5.543479"><time>2026-05-03T07:10:44Z</time></trkpt>
<trkpt lat="50.605421" lon="5.545582"><time>2026-05-03T07:20:44Z</time></trkpt>
<trkpt lat="50.605551" lon="5.546814"><time>2026-05-03T07:30:44Z</time></trkpt>
</trkseg>
</trk>
<trk>
<name>lsrog35</name>
<cmt>r</cmt>
<desc>Ougrée Chemin n°35 </desc>
<link href="https://chemins.be/ougree/chemin/35"/><trkseg>
<trkpt lat="50.618397" lon="5.542275"><time>2026-05-03T06:40:44Z</time></trkpt>
<trkpt lat="50.618576" lon="5.542328"><time>2026-05-03T06:50:44Z</time></trkpt>
<trkpt lat="50.619018" lon="5.542870"><time>2026-05-03T07:00:44Z</time></trkpt>
<trkpt lat="50.619302" lon="5.543119"><time>2026-05-03T07:10:44Z</time></trkpt>
</trkseg></trk>
<trk>
<name>lsrog35</name>
<cmt>d</cmt>
<desc>Ougrée Chemin n°35 </desc>
<link href="https://chemins.be/ougree/chemin/35"/><trkseg>
<trkpt lat="50.619302" lon="5.543119"><time>2026-05-03T07:10:44Z</time></trkpt>
<trkpt lat="50.619672" lon="5.543074"><time>2026-05-03T07:20:44Z</time></trkpt>
<trkpt lat="50.620536" lon="5.542501"><time>2026-05-03T07:30:44Z</time></trkpt>
<trkpt lat="50.621035" lon="5.542701"><time>2026-05-03T07:40:44Z</time></trkpt>
</trkseg>
</trk>
<trk>
<name>lsrog36</name>
<cmt>r</cmt>
<desc>Ougrée Chemin n°36 Rue de la Scierie</desc>
<link href="https://chemins.be/ougree/chemin/36"/><trkseg>
<trkpt lat="50.609598" lon="5.553008"><time>2026-05-03T06:40:44Z</time></trkpt>
<trkpt lat="50.607719" lon="5.552743"><time>2026-05-03T06:50:44Z</time></trkpt>
</trkseg>
</trk>
<trk>
<name>lsrog38</name>
<cmt>v</cmt>
<desc>Ougrée Chemin n°38 Rue Salèwe</desc>
<link href="https://chemins.be/ougree/chemin/38"/><trkseg>
<trkpt lat="50.599903" lon="5.543647"><time>2026-05-03T06:40:44Z</time></trkpt>
<trkpt lat="50.600068" lon="5.543963"><time>2026-05-03T06:50:44Z</time></trkpt>
<trkpt lat="50.600069" lon="5.544064"><time>2026-05-03T07:00:44Z</time></trkpt>
<trkpt lat="50.600087" lon="5.544160"><time>2026-05-03T07:10:44Z</time></trkpt>
<trkpt lat="50.600150" lon="5.544267"><time>2026-05-03T07:20:44Z</time></trkpt>
<trkpt lat="50.600117" lon="5.544318"><time>2026-05-03T07:30:44Z</time></trkpt>
<trkpt lat="50.599959" lon="5.545172"><time>2026-05-03T07:40:44Z</time></trkpt>
<trkpt lat="50.599922" lon="5.545287"><time>2026-05-03T07:50:44Z</time></trkpt>
<trkpt lat="50.599742" lon="5.545733"><time>2026-05-03T08:00:44Z</time></trkpt>
</trkseg>
</trk>
<trk>
<name>lsrog38bis</name>
<cmt>d</cmt>
<desc>Ougrée Chemin n°38bis </desc>
<link href="https://chemins.be/ougree/chemin/38bis"/><trkseg>
<trkpt lat="50.600333" lon="5.545905"><time>2026-05-03T06:40:44Z</time></trkpt>
<trkpt lat="50.600241" lon="5.545978"><time>2026-05-03T06:50:44Z</time></trkpt>
<trkpt lat="50.599965" lon="5.545120"><time>2026-05-03T07:00:44Z</time></trkpt>
</trkseg>
</trk>
<trk>
<name>lsrog39</name>
<cmt>d</cmt>
<desc>Ougrée Chemin n°39 Rue Eudore Davio</desc>
<link href="https://chemins.be/ougree/chemin/39"/><trkseg>
<trkpt lat="50.598513" lon="5.544716"><time>2026-05-03T06:40:44Z</time></trkpt>
<trkpt lat="50.598476" lon="5.545052"><time>2026-05-03T06:50:44Z</time></trkpt>
</trkseg></trk>
<trk>
<name>lsrog39</name>
<cmt>v</cmt>
<desc>Ougrée Chemin n°39 Rue Eudore Davio</desc>
<link href="https://chemins.be/ougree/chemin/39"/><trkseg>
<trkpt lat="50.598476" lon="5.545052"><time>2026-05-03T06:50:44Z</time></trkpt>
<trkpt lat="50.598479" lon="5.545225"><time>2026-05-03T07:00:44Z</time></trkpt>
<trkpt lat="50.598408" lon="5.545760"><time>2026-05-03T07:10:44Z</time></trkpt>
</trkseg></trk>
<trk>
<name>lsrog39</name>
<cmt>d</cmt>
<desc>Ougrée Chemin n°39 Rue Eudore Davio</desc>
<link href="https://chemins.be/ougree/chemin/39"/><trkseg>
<trkpt lat="50.598408" lon="5.545760"><time>2026-05-03T07:10:44Z</time></trkpt>
<trkpt lat="50.598345" lon="5.546549"><time>2026-05-03T07:20:44Z</time></trkpt>
</trkseg>
</trk>
<trk>
<name>lsrog4</name>
<cmt>v</cmt>
<desc>Ougrée Chemin n°4 </desc>
<link href="https://chemins.be/ougree/chemin/4"/><trkseg>
<trkpt lat="50.597667" lon="5.535354"><time>2026-05-03T06:40:44Z</time></trkpt>
<trkpt lat="50.597482" lon="5.535938"><time>2026-05-03T06:50:44Z</time></trkpt>
</trkseg></trk>
<trk>
<name>lsrog4</name>
<cmt>r</cmt>
<desc>Ougrée Chemin n°4 </desc>
<link href="https://chemins.be/ougree/chemin/4"/><trkseg>
<trkpt lat="50.597482" lon="5.535938"><time>2026-05-03T06:50:44Z</time></trkpt>
<trkpt lat="50.595204" lon="5.537036"><time>2026-05-03T07:00:44Z</time></trkpt>
<trkpt lat="50.593499" lon="5.539345"><time>2026-05-03T07:10:44Z</time></trkpt>
<trkpt lat="50.589254" lon="5.541980"><time>2026-05-03T07:20:44Z</time></trkpt>
<trkpt lat="50.588399" lon="5.543002"><time>2026-05-03T07:30:44Z</time></trkpt>
<trkpt lat="50.584743" lon="5.548636"><time>2026-05-03T07:40:44Z</time></trkpt>
<trkpt lat="50.583837" lon="5.549319"><time>2026-05-03T07:50:44Z</time></trkpt>
<trkpt lat="50.580606" lon="5.551799"><time>2026-05-03T08:00:44Z</time></trkpt>
<trkpt lat="50.576610" lon="5.553078"><time>2026-05-03T08:10:44Z</time></trkpt>
<trkpt lat="50.576545" lon="5.553576"><time>2026-05-03T08:20:44Z</time></trkpt>
<trkpt lat="50.576649" lon="5.553833"><time>2026-05-03T08:30:44Z</time></trkpt>
</trkseg></trk>
<trk>
<name>lsrog4</name>
<cmt>v</cmt>
<desc>Ougrée Chemin n°4 </desc>
<link href="https://chemins.be/ougree/chemin/4"/><trkseg>
<trkpt lat="50.576649" lon="5.553833"><time>2026-05-03T08:30:44Z</time></trkpt>
<trkpt lat="50.575110" lon="5.554805"><time>2026-05-03T08:40:44Z</time></trkpt>
</trkseg></trk>
<trk>
<name>lsrog4</name>
<cmt>q</cmt>
<desc>Ougrée Chemin n°4 </desc>
<link href="https://chemins.be/ougree/chemin/4"/><trkseg>
<trkpt lat="50.575110" lon="5.554805"><time>2026-05-03T08:40:44Z</time></trkpt>
<trkpt lat="50.570845" lon="5.557456"><time>2026-05-03T08:50:44Z</time></trkpt>
<trkpt lat="50.569809" lon="5.557250"><time>2026-05-03T09:00:44Z</time></trkpt>
<trkpt lat="50.568664" lon="5.557421"><time>2026-05-03T09:10:44Z</time></trkpt>
<trkpt lat="50.568043" lon="5.556065"><time>2026-05-03T09:20:44Z</time></trkpt>
<trkpt lat="50.567061" lon="5.555842"><time>2026-05-03T09:30:44Z</time></trkpt>
<trkpt lat="50.565099" lon="5.557112"><time>2026-05-03T09:40:44Z</time></trkpt>
<trkpt lat="50.564194" lon="5.559412"><time>2026-05-03T09:50:44Z</time></trkpt>
<trkpt lat="50.562732" lon="5.559773"><time>2026-05-03T10:00:44Z</time></trkpt>
<trkpt lat="50.561871" lon="5.560786"><time>2026-05-03T10:10:44Z</time></trkpt>
</trkseg>
</trk>
<trk>
<name>lsrog41</name>
<cmt>v</cmt>
<desc>Ougrée Chemin n°41 Rue des Escaliers</desc>
<link href="https://chemins.be/ougree/chemin/41"/><trkseg>
<trkpt lat="50.598588" lon="5.537242"><time>2026-05-03T06:40:44Z</time></trkpt>
<trkpt lat="50.598509" lon="5.537123"><time>2026-05-03T06:50:44Z</time></trkpt>
<trkpt lat="50.598456" lon="5.536837"><time>2026-05-03T07:00:44Z</time></trkpt>
<trkpt lat="50.598028" lon="5.536277"><time>2026-05-03T07:10:44Z</time></trkpt>
<trkpt lat="50.597847" lon="5.535812"><time>2026-05-03T07:20:44Z</time></trkpt>
<trkpt lat="50.597487" lon="5.535925"><time>2026-05-03T07:30:44Z</time></trkpt>
</trkseg>
</trk>
<trk>
<name>lsrog42</name>
<cmt>r</cmt>
<desc>Ougrée Sentier n°42 Rue des Pampres</desc>
<link href="https://chemins.be/ougree/sentier/42"/><trkseg>
<trkpt lat="50.609700" lon="5.553363"><time>2026-05-03T06:40:44Z</time></trkpt>
<trkpt lat="50.610983" lon="5.555246"><time>2026-05-03T06:50:44Z</time></trkpt>
<trkpt lat="50.611679" lon="5.556492"><time>2026-05-03T07:00:44Z</time></trkpt>
</trkseg>
</trk>
<trk>
<name>lsrog43</name>
<cmt>s</cmt>
<desc>Ougrée Sentier n°43 Avenue du Petit-Bourgogne</desc>
<link href="https://chemins.be/ougree/sentier/43"/><trkseg>
<trkpt lat="50.612360" lon="5.559738"><time>2026-05-03T06:40:44Z</time></trkpt>
<trkpt lat="50.612710" lon="5.559731"><time>2026-05-03T06:50:44Z</time></trkpt>
</trkseg></trk>
<trk>
<name>lsrog43</name>
<cmt>r</cmt>
<desc>Ougrée Sentier n°43 Avenue du Petit-Bourgogne</desc>
<link href="https://chemins.be/ougree/sentier/43"/><trkseg>
<trkpt lat="50.612710" lon="5.559731"><time>2026-05-03T06:50:44Z</time></trkpt>
<trkpt lat="50.613154" lon="5.560911"><time>2026-05-03T07:00:44Z</time></trkpt>
<trkpt lat="50.614357" lon="5.561491"><time>2026-05-03T07:10:44Z</time></trkpt>
</trkseg></trk>
<trk>
<name>lsrog43</name>
<cmt>s</cmt>
<desc>Ougrée Sentier n°43 Avenue du Petit-Bourgogne</desc>
<link href="https://chemins.be/ougree/sentier/43"/><trkseg>
<trkpt lat="50.614357" lon="5.561491"><time>2026-05-03T07:10:44Z</time></trkpt>
<trkpt lat="50.616209" lon="5.562263"><time>2026-05-03T07:20:44Z</time></trkpt>
<trkpt lat="50.617672" lon="5.565768"><time>2026-05-03T07:30:44Z</time></trkpt>
</trkseg>
</trk>
<trk>
<name>lsrog45</name>
<cmt>v</cmt>
<desc>Ougrée Sentier n°45 En Tchirrowe</desc>
<link href="https://chemins.be/ougree/sentier/45"/><trkseg>
<trkpt lat="50.608725" lon="5.539384"><time>2026-05-03T06:40:44Z</time></trkpt>
<trkpt lat="50.609306" lon="5.539727"><time>2026-05-03T06:50:44Z</time></trkpt>
<trkpt lat="50.609918" lon="5.541324"><time>2026-05-03T07:00:44Z</time></trkpt>
<trkpt lat="50.609916" lon="5.541522"><time>2026-05-03T07:10:44Z</time></trkpt>
</trkseg></trk>
<trk>
<name>lsrog45</name>
<cmt>s</cmt>
<desc>Ougrée Sentier n°45 En Tchirrowe</desc>
<link href="https://chemins.be/ougree/sentier/45"/><trkseg>
<trkpt lat="50.609916" lon="5.541522"><time>2026-05-03T07:10:44Z</time></trkpt>
<trkpt lat="50.610954" lon="5.543582"><time>2026-05-03T07:20:44Z</time></trkpt>
</trkseg>
</trk>
<trk>
<name>lsrog47</name>
<cmt>r</cmt>
<desc>Ougrée Sentier n°47 </desc>
<link href="https://chemins.be/ougree/sentier/47"/><trkseg>
<trkpt lat="50.606359" lon="5.546849"><time>2026-05-03T06:40:44Z</time></trkpt>
<trkpt lat="50.606341" lon="5.551956"><time>2026-05-03T06:50:44Z</time></trkpt>
</trkseg></trk>
<trk>
<name>lsrog47</name>
<cmt>s</cmt>
<desc>Ougrée Sentier n°47 </desc>
<link href="https://chemins.be/ougree/sentier/47"/><trkseg>
<trkpt lat="50.606341" lon="5.551956"><time>2026-05-03T06:50:44Z</time></trkpt>
<trkpt lat="50.605583" lon="5.554724"><time>2026-05-03T07:00:44Z</time></trkpt>
<trkpt lat="50.605401" lon="5.556884"><time>2026-05-03T07:10:44Z</time></trkpt>
<trkpt lat="50.605932" lon="5.559352"><time>2026-05-03T07:20:44Z</time></trkpt>
</trkseg>
</trk>
<trk>
<name>lsrog49</name>
<cmt>v</cmt>
<desc>Ougrée Sentier n°49 Rue des Trois Limites</desc>
<link href="https://chemins.be/ougree/sentier/49"/><trkseg>
<trkpt lat="50.597941" lon="5.534405"><time>2026-05-03T06:40:44Z</time></trkpt>
<trkpt lat="50.597639" lon="5.533622"><time>2026-05-03T06:50:44Z</time></trkpt>
<trkpt lat="50.597552" lon="5.533469"><time>2026-05-03T07:00:44Z</time></trkpt>
</trkseg></trk>
<trk>
<name>lsrog49</name>
<cmt>r</cmt>
<desc>Ougrée Sentier n°49 Rue des Trois Limites</desc>
<link href="https://chemins.be/ougree/sentier/49"/><trkseg>
<trkpt lat="50.597552" lon="5.533469"><time>2026-05-03T07:00:44Z</time></trkpt>
<trkpt lat="50.595633" lon="5.534125"><time>2026-05-03T07:10:44Z</time></trkpt>
<trkpt lat="50.594161" lon="5.534811"><time>2026-05-03T07:20:44Z</time></trkpt>
</trkseg>
</trk>
<trk>
<name>lsrog5</name>
<cmt>s</cmt>
<desc>Ougrée Chemin n°5 </desc>
<link href="https://chemins.be/ougree/chemin/5"/><trkseg>
<trkpt lat="50.581153" lon="5.540010"><time>2026-05-03T06:40:44Z</time></trkpt>
<trkpt lat="50.581943" lon="5.540911"><time>2026-05-03T06:50:44Z</time></trkpt>
<trkpt lat="50.581879" lon="5.545002"><time>2026-05-03T07:00:44Z</time></trkpt>
<trkpt lat="50.582924" lon="5.546418"><time>2026-05-03T07:10:44Z</time></trkpt>
<trkpt lat="50.583998" lon="5.549324"><time>2026-05-03T07:20:44Z</time></trkpt>
<trkpt lat="50.584629" lon="5.549274"><time>2026-05-03T07:30:44Z</time></trkpt>
</trkseg></trk>
<trk>
<name>lsrog5</name>
<cmt>d</cmt>
<desc>Ougrée Chemin n°5 </desc>
<link href="https://chemins.be/ougree/chemin/5"/><trkseg>
<trkpt lat="50.584629" lon="5.549274"><time>2026-05-03T07:30:44Z</time></trkpt>
<trkpt lat="50.585309" lon="5.549512"><time>2026-05-03T07:40:44Z</time></trkpt>
</trkseg></trk>
<trk>
<name>lsrog5</name>
<cmt>s</cmt>
<desc>Ougrée Chemin n°5 </desc>
<link href="https://chemins.be/ougree/chemin/5"/><trkseg>
<trkpt lat="50.585309" lon="5.549512"><time>2026-05-03T07:40:44Z</time></trkpt>
<trkpt lat="50.585628" lon="5.549625"><time>2026-05-03T07:50:44Z</time></trkpt>
</trkseg></trk>
<trk>
<name>lsrog5</name>
<cmt>d</cmt>
<desc>Ougrée Chemin n°5 </desc>
<link href="https://chemins.be/ougree/chemin/5"/><trkseg>
<trkpt lat="50.585628" lon="5.549625"><time>2026-05-03T07:50:44Z</time></trkpt>
<trkpt lat="50.586382" lon="5.549903"><time>2026-05-03T08:00:44Z</time></trkpt>
</trkseg></trk>
<trk>
<name>lsrog5</name>
<cmt>v</cmt>
<desc>Ougrée Chemin n°5 </desc>
<link href="https://chemins.be/ougree/chemin/5"/><trkseg>
<trkpt lat="50.586382" lon="5.549903"><time>2026-05-03T08:00:44Z</time></trkpt>
<trkpt lat="50.585538" lon="5.550518"><time>2026-05-03T08:10:44Z</time></trkpt>
<trkpt lat="50.585088" lon="5.551268"><time>2026-05-03T08:20:44Z</time></trkpt>
<trkpt lat="50.584987" lon="5.551540"><time>2026-05-03T08:30:44Z</time></trkpt>
<trkpt lat="50.585472" lon="5.552175"><time>2026-05-03T08:40:44Z</time></trkpt>
</trkseg></trk>
<trk>
<name>lsrog5</name>
<cmt>d</cmt>
<desc>Ougrée Chemin n°5 </desc>
<link href="https://chemins.be/ougree/chemin/5"/><trkseg>
<trkpt lat="50.585472" lon="5.552175"><time>2026-05-03T08:40:44Z</time></trkpt>
<trkpt lat="50.586137" lon="5.554020"><time>2026-05-03T08:50:44Z</time></trkpt>
<trkpt lat="50.586028" lon="5.555462"><time>2026-05-03T09:00:44Z</time></trkpt>
</trkseg></trk>
<trk>
<name>lsrog5</name>
<cmt>s</cmt>
<desc>Ougrée Chemin n°5 </desc>
<link href="https://chemins.be/ougree/chemin/5"/><trkseg>
<trkpt lat="50.586028" lon="5.555462"><time>2026-05-03T09:00:44Z</time></trkpt>
<trkpt lat="50.586644" lon="5.557874"><time>2026-05-03T09:10:44Z</time></trkpt>
<trkpt lat="50.587184" lon="5.558243"><time>2026-05-03T09:20:44Z</time></trkpt>
</trkseg></trk>
<trk>
<name>lsrog5</name>
<cmt>d</cmt>
<desc>Ougrée Chemin n°5 </desc>
<link href="https://chemins.be/ougree/chemin/5"/><trkseg>
<trkpt lat="50.587184" lon="5.558243"><time>2026-05-03T09:20:44Z</time></trkpt>
<trkpt lat="50.588137" lon="5.559061"><time>2026-05-03T09:30:44Z</time></trkpt>
<trkpt lat="50.589152" lon="5.560606"><time>2026-05-03T09:40:44Z</time></trkpt>
<trkpt lat="50.589638" lon="5.560813"><time>2026-05-03T09:50:44Z</time></trkpt>
</trkseg></trk>
<trk>
<name>lsrog5</name>
<cmt>v</cmt>
<desc>Ougrée Chemin n°5 </desc>
<link href="https://chemins.be/ougree/chemin/5"/><trkseg>
<trkpt lat="50.589638" lon="5.560813"><time>2026-05-03T09:50:44Z</time></trkpt>
<trkpt lat="50.591381" lon="5.560442"><time>2026-05-03T10:00:44Z</time></trkpt>
<trkpt lat="50.594168" lon="5.563134"><time>2026-05-03T10:10:44Z</time></trkpt>
<trkpt lat="50.594199" lon="5.563239"><time>2026-05-03T10:20:44Z</time></trkpt>
<trkpt lat="50.594708" lon="5.563084"><time>2026-05-03T10:30:44Z</time></trkpt>
</trkseg></trk>
<trk>
<name>lsrog5</name>
<cmt>d</cmt>
<desc>Ougrée Chemin n°5 </desc>
<link href="https://chemins.be/ougree/chemin/5"/><trkseg>
<trkpt lat="50.594708" lon="5.563084"><time>2026-05-03T10:30:44Z</time></trkpt>
<trkpt lat="50.594823" lon="5.563015"><time>2026-05-03T10:40:44Z</time></trkpt>
</trkseg>
</trk>
<trk>
<name>lsrog52</name>
<cmt>s</cmt>
<desc>Ougrée Sentier n°52 </desc>
<link href="https://chemins.be/ougree/sentier/52"/><trkseg>
<trkpt lat="50.610539" lon="5.534749"><time>2026-05-03T06:40:44Z</time></trkpt>
<trkpt lat="50.610936" lon="5.533279"><time>2026-05-03T06:50:44Z</time></trkpt>
<trkpt lat="50.612005" lon="5.532274"><time>2026-05-03T07:00:44Z</time></trkpt>
<trkpt lat="50.612563" lon="5.532017"><time>2026-05-03T07:10:44Z</time></trkpt>
<trkpt lat="50.612811" lon="5.532024"><time>2026-05-03T07:20:44Z</time></trkpt>
</trkseg>
</trk>
<trk>
<name>lsrog53</name>
<cmt>s</cmt>
<desc>Ougrée Sentier n°53 </desc>
<link href="https://chemins.be/ougree/sentier/53"/><trkseg>
<trkpt lat="50.601843" lon="5.532210"><time>2026-05-03T06:40:44Z</time></trkpt>
<trkpt lat="50.602387" lon="5.532092"><time>2026-05-03T06:50:44Z</time></trkpt>
<trkpt lat="50.602950" lon="5.532163"><time>2026-05-03T07:00:44Z</time></trkpt>
</trkseg>
</trk>
<trk>
<name>lsrog6</name>
<cmt>v</cmt>
<desc>Ougrée Chemin n°6 </desc>
<link href="https://chemins.be/ougree/chemin/6"/><trkseg>
<trkpt lat="50.560983" lon="5.552667"><time>2026-05-03T06:40:44Z</time></trkpt>
<trkpt lat="50.560861" lon="5.553975"><time>2026-05-03T06:50:44Z</time></trkpt>
<trkpt lat="50.561674" lon="5.556893"><time>2026-05-03T07:00:44Z</time></trkpt>
<trkpt lat="50.561969" lon="5.558039"><time>2026-05-03T07:10:44Z</time></trkpt>
<trkpt lat="50.561847" lon="5.560795"><time>2026-05-03T07:20:44Z</time></trkpt>
<trkpt lat="50.561924" lon="5.561528"><time>2026-05-03T07:30:44Z</time></trkpt>
<trkpt lat="50.562575" lon="5.564250"><time>2026-05-03T07:40:44Z</time></trkpt>
<trkpt lat="50.562998" lon="5.564596"><time>2026-05-03T07:50:44Z</time></trkpt>
<trkpt lat="50.563768" lon="5.566531"><time>2026-05-03T08:00:44Z</time></trkpt>
<trkpt lat="50.563976" lon="5.567515"><time>2026-05-03T08:10:44Z</time></trkpt>
</trkseg>
</trk>
<trk>
<name>lsrog7</name>
<cmt>v</cmt>
<desc>Ougrée Chemin n°7 Chemin de Grand Maître</desc>
<link href="https://chemins.be/ougree/chemin/7"/><trkseg>
<trkpt lat="50.575077" lon="5.567328"><time>2026-05-03T06:40:44Z</time></trkpt>
<trkpt lat="50.574963" lon="5.567099"><time>2026-05-03T06:50:44Z</time></trkpt>
<trkpt lat="50.574937" lon="5.567014"><time>2026-05-03T07:00:44Z</time></trkpt>
<trkpt lat="50.574740" lon="5.566881"><time>2026-05-03T07:10:44Z</time></trkpt>
<trkpt lat="50.574545" lon="5.566622"><time>2026-05-03T07:20:44Z</time></trkpt>
<trkpt lat="50.574254" lon="5.566050"><time>2026-05-03T07:30:44Z</time></trkpt>
<trkpt lat="50.574045" lon="5.565424"><time>2026-05-03T07:40:44Z</time></trkpt>
<trkpt lat="50.573969" lon="5.564984"><time>2026-05-03T07:50:44Z</time></trkpt>
<trkpt lat="50.573856" lon="5.564529"><time>2026-05-03T08:00:44Z</time></trkpt>
<trkpt lat="50.572845" lon="5.562358"><time>2026-05-03T08:10:44Z</time></trkpt>
<trkpt lat="50.572195" lon="5.560859"><time>2026-05-03T08:20:44Z</time></trkpt>
<trkpt lat="50.571721" lon="5.559689"><time>2026-05-03T08:30:44Z</time></trkpt>
<trkpt lat="50.570047" lon="5.555496"><time>2026-05-03T08:40:44Z</time></trkpt>
<trkpt lat="50.570017" lon="5.554832"><time>2026-05-03T08:50:44Z</time></trkpt>
<trkpt lat="50.569675" lon="5.554047"><time>2026-05-03T09:00:44Z</time></trkpt>
<trkpt lat="50.570185" lon="5.552535"><time>2026-05-03T09:10:44Z</time></trkpt>
</trkseg>
</trk>
<trk>
<name>lsrog8</name>
<cmt>v</cmt>
<desc>Ougrée Chemin n°8 chemin communal n°14 - rue de Liège / Rue de Liège</desc>
<link href="https://chemins.be/ougree/chemin/8"/><trkseg>
<trkpt lat="50.570954" lon="5.551975"><time>2026-05-03T06:40:44Z</time></trkpt>
<trkpt lat="50.571630" lon="5.551575"><time>2026-05-03T06:50:44Z</time></trkpt>
<trkpt lat="50.572687" lon="5.549576"><time>2026-05-03T07:00:44Z</time></trkpt>
<trkpt lat="50.574054" lon="5.546899"><time>2026-05-03T07:10:44Z</time></trkpt>
</trkseg>
</trk>
<trk>
<name>lsrog9</name>
<cmt>s</cmt>
<desc>Ougrée Chemin n°9 </desc>
<link href="https://chemins.be/ougree/chemin/9"/><trkseg>
<trkpt lat="50.604747" lon="5.547135"><time>2026-05-03T06:40:44Z</time></trkpt>
<trkpt lat="50.603545" lon="5.547872"><time>2026-05-03T06:50:44Z</time></trkpt>
<trkpt lat="50.601215" lon="5.550781"><time>2026-05-03T07:00:44Z</time></trkpt>
</trkseg></trk>
<trk>
<name>lsrog9</name>
<cmt>v</cmt>
<desc>Ougrée Chemin n°9 </desc>
<link href="https://chemins.be/ougree/chemin/9"/><trkseg>
<trkpt lat="50.601215" lon="5.550781"><time>2026-05-03T07:00:44Z</time></trkpt>
<trkpt lat="50.600566" lon="5.551267"><time>2026-05-03T07:10:44Z</time></trkpt>
</trkseg></trk>
<trk>
<name>lsrog9</name>
<cmt>q</cmt>
<desc>Ougrée Chemin n°9 </desc>
<link href="https://chemins.be/ougree/chemin/9"/><trkseg>
<trkpt lat="50.600566" lon="5.551267"><time>2026-05-03T07:10:44Z</time></trkpt>
<trkpt lat="50.599642" lon="5.551489"><time>2026-05-03T07:20:44Z</time></trkpt>
<trkpt lat="50.599555" lon="5.551811"><time>2026-05-03T07:30:44Z</time></trkpt>
<trkpt lat="50.599816" lon="5.552540"><time>2026-05-03T07:40:44Z</time></trkpt>
<trkpt lat="50.599837" lon="5.553566"><time>2026-05-03T07:50:44Z</time></trkpt>
<trkpt lat="50.599182" lon="5.553308"><time>2026-05-03T08:00:44Z</time></trkpt>
<trkpt lat="50.598143" lon="5.554774"><time>2026-05-03T08:10:44Z</time></trkpt>
</trkseg></trk>
<trk>
<name>lsrog9</name>
<cmt>s</cmt>
<desc>Ougrée Chemin n°9 </desc>
<link href="https://chemins.be/ougree/chemin/9"/><trkseg>
<trkpt lat="50.598143" lon="5.554774"><time>2026-05-03T08:10:44Z</time></trkpt>
<trkpt lat="50.596581" lon="5.557428"><time>2026-05-03T08:20:44Z</time></trkpt>
<trkpt lat="50.595514" lon="5.558422"><time>2026-05-03T08:30:44Z</time></trkpt>
<trkpt lat="50.594383" lon="5.559366"><time>2026-05-03T08:40:44Z</time></trkpt>
<trkpt lat="50.593189" lon="5.560933"><time>2026-05-03T08:50:44Z</time></trkpt>
<trkpt lat="50.592113" lon="5.561421"><time>2026-05-03T09:00:44Z</time></trkpt>
</trkseg>
</trk>
<trk>
<name>lsrogi1</name>
<cmt>v</cmt>
<desc>Ougrée Sentier n°i1 </desc>
<link href="https://chemins.be/ougree/sentier/i1"/><trkseg>
<trkpt lat="50.599139" lon="5.560553"><time>2026-05-03T06:40:44Z</time></trkpt>
<trkpt lat="50.598876" lon="5.560405"><time>2026-05-03T06:50:44Z</time></trkpt>
<trkpt lat="50.597617" lon="5.558011"><time>2026-05-03T07:00:44Z</time></trkpt>
</trkseg></trk>
<trk>
<name>lsrogi1</name>
<cmt>b</cmt>
<desc>Ougrée Sentier n°i1 </desc>
<link href="https://chemins.be/ougree/sentier/i1"/><trkseg>
<trkpt lat="50.597617" lon="5.558011"><time>2026-05-03T07:00:44Z</time></trkpt>
<trkpt lat="50.596921" lon="5.557089"><time>2026-05-03T07:10:44Z</time></trkpt>
</trkseg></trk>
<trk>
<name>lsrogi1</name>
<cmt>v</cmt>
<desc>Ougrée Sentier n°i1 </desc>
<link href="https://chemins.be/ougree/sentier/i1"/><trkseg>
<trkpt lat="50.596921" lon="5.557089"><time>2026-05-03T07:10:44Z</time></trkpt>
<trkpt lat="50.596710" lon="5.556776"><time>2026-05-03T07:20:44Z</time></trkpt>
<trkpt lat="50.596546" lon="5.556448"><time>2026-05-03T07:30:44Z</time></trkpt>
<trkpt lat="50.596447" lon="5.556094"><time>2026-05-03T07:40:44Z</time></trkpt>
<trkpt lat="50.596376" lon="5.555746"><time>2026-05-03T07:50:44Z</time></trkpt>
<trkpt lat="50.596319" lon="5.555617"><time>2026-05-03T08:00:44Z</time></trkpt>
<trkpt lat="50.596266" lon="5.555483"><time>2026-05-03T08:10:44Z</time></trkpt>
</trkseg>
</trk>
<trk>
<name>lsrogi10</name>
<cmt>v</cmt>
<desc>Ougrée Sentier n°i10 </desc>
<link href="https://chemins.be/ougree/sentier/i10"/><trkseg>
<trkpt lat="50.596961" lon="5.539487"><time>2026-05-03T06:40:44Z</time></trkpt>
<trkpt lat="50.597451" lon="5.539923"><time>2026-05-03T06:50:44Z</time></trkpt>
<trkpt lat="50.597433" lon="5.540427"><time>2026-05-03T07:00:44Z</time></trkpt>
</trkseg>
</trk>
<trk>
<name>lsrogi11</name>
<cmt>v</cmt>
<desc>Ougrée Sentier n°i11 </desc>
<link href="https://chemins.be/ougree/sentier/i11"/><trkseg>
<trkpt lat="50.598246" lon="5.555798"><time>2026-05-03T06:40:44Z</time></trkpt>
<trkpt lat="50.598604" lon="5.555798"><time>2026-05-03T06:50:44Z</time></trkpt>
<trkpt lat="50.599301" lon="5.556728"><time>2026-05-03T07:00:44Z</time></trkpt>
<trkpt lat="50.599882" lon="5.556538"><time>2026-05-03T07:10:44Z</time></trkpt>
<trkpt lat="50.600293" lon="5.555734"><time>2026-05-03T07:20:44Z</time></trkpt>
<trkpt lat="50.600348" lon="5.555365"><time>2026-05-03T07:30:44Z</time></trkpt>
<trkpt lat="50.600032" lon="5.554532"><time>2026-05-03T07:40:44Z</time></trkpt>
<trkpt lat="50.599240" lon="5.554625"><time>2026-05-03T07:50:44Z</time></trkpt>
<trkpt lat="50.598763" lon="5.555197"><time>2026-05-03T08:00:44Z</time></trkpt>
<trkpt lat="50.598327" lon="5.555383"><time>2026-05-03T08:10:44Z</time></trkpt>
</trkseg>
</trk>
<trk>
<name>lsrogi12</name>
<cmt>v</cmt>
<desc>Ougrée Sentier n°i12 </desc>
<link href="https://chemins.be/ougree/sentier/i12"/><trkseg>
<trkpt lat="50.597490" lon="5.532965"><time>2026-05-03T06:40:44Z</time></trkpt>
<trkpt lat="50.597479" lon="5.533125"><time>2026-05-03T06:50:44Z</time></trkpt>
<trkpt lat="50.597501" lon="5.533479"><time>2026-05-03T07:00:44Z</time></trkpt>
</trkseg>
</trk>
<trk>
<name>lsrogi13</name>
<cmt>v</cmt>
<desc>Ougrée Sentier n°i13 Sentier des Trois Fontaines</desc>
<link href="https://chemins.be/ougree/sentier/i13"/><trkseg>
<trkpt lat="50.565191" lon="5.551074"><time>2026-05-03T06:40:44Z</time></trkpt>
<trkpt lat="50.565125" lon="5.551510"><time>2026-05-03T06:50:44Z</time></trkpt>
<trkpt lat="50.565005" lon="5.551664"><time>2026-05-03T07:00:44Z</time></trkpt>
</trkseg>
</trk>
<trk>
<name>lsrogi14</name>
<cmt>v</cmt>
<desc>Ougrée Chemin n°i14 </desc>
<link href="https://chemins.be/ougree/chemin/i14"/><trkseg>
<trkpt lat="50.566863" lon="5.553986"><time>2026-05-03T06:40:44Z</time></trkpt>
<trkpt lat="50.566436" lon="5.553600"><time>2026-05-03T06:50:44Z</time></trkpt>
<trkpt lat="50.566200" lon="5.552412"><time>2026-05-03T07:00:44Z</time></trkpt>
<trkpt lat="50.565014" lon="5.551643"><time>2026-05-03T07:10:44Z</time></trkpt>
<trkpt lat="50.564702" lon="5.551437"><time>2026-05-03T07:20:44Z</time></trkpt>
<trkpt lat="50.564139" lon="5.551299"><time>2026-05-03T07:30:44Z</time></trkpt>
<trkpt lat="50.563035" lon="5.551882"><time>2026-05-03T07:40:44Z</time></trkpt>
<trkpt lat="50.561331" lon="5.552908"><time>2026-05-03T07:50:44Z</time></trkpt>
<trkpt lat="50.561027" lon="5.552873"><time>2026-05-03T08:00:44Z</time></trkpt>
</trkseg>
</trk>
<trk>
<name>lsrogi2</name>
<cmt>v</cmt>
<desc>Ougrée Sentier n°i2 </desc>
<link href="https://chemins.be/ougree/sentier/i2"/><trkseg>
<trkpt lat="50.567863" lon="5.558939"><time>2026-05-03T06:40:44Z</time></trkpt>
<trkpt lat="50.566810" lon="5.559034"><time>2026-05-03T06:50:44Z</time></trkpt>
<trkpt lat="50.565622" lon="5.559749"><time>2026-05-03T07:00:44Z</time></trkpt>
<trkpt lat="50.561864" lon="5.561540"><time>2026-05-03T07:10:44Z</time></trkpt>
</trkseg>
</trk>
<trk>
<name>lsrogi3</name>
<cmt>v</cmt>
<desc>Ougrée Sentier n°i3 Chemin de l'Ecurie</desc>
<link href="https://chemins.be/ougree/sentier/i3"/><trkseg>
<trkpt lat="50.568787" lon="5.564720"><time>2026-05-03T06:40:44Z</time></trkpt>
<trkpt lat="50.567727" lon="5.563778"><time>2026-05-03T06:50:44Z</time></trkpt>
<trkpt lat="50.568173" lon="5.560953"><time>2026-05-03T07:00:44Z</time></trkpt>
<trkpt lat="50.567855" lon="5.559117"><time>2026-05-03T07:10:44Z</time></trkpt>
<trkpt lat="50.568007" lon="5.558176"><time>2026-05-03T07:20:44Z</time></trkpt>
<trkpt lat="50.567765" lon="5.557603"><time>2026-05-03T07:30:44Z</time></trkpt>
<trkpt lat="50.567765" lon="5.556006"><time>2026-05-03T07:40:44Z</time></trkpt>
</trkseg>
</trk>
<trk>
<name>lsrogi4</name>
<cmt>v</cmt>
<desc>Ougrée Chemin n°i4 </desc>
<link href="https://chemins.be/ougree/chemin/i4"/><trkseg>
<trkpt lat="50.565782" lon="5.567262"><time>2026-05-03T06:40:44Z</time></trkpt>
<trkpt lat="50.565044" lon="5.565057"><time>2026-05-03T06:50:44Z</time></trkpt>
<trkpt lat="50.564953" lon="5.562506"><time>2026-05-03T07:00:44Z</time></trkpt>
<trkpt lat="50.565411" lon="5.559853"><time>2026-05-03T07:10:44Z</time></trkpt>
<trkpt lat="50.565514" lon="5.559573"><time>2026-05-03T07:20:44Z</time></trkpt>
<trkpt lat="50.565324" lon="5.557201"><time>2026-05-03T07:30:44Z</time></trkpt>
<trkpt lat="50.565427" lon="5.556736"><time>2026-05-03T07:40:44Z</time></trkpt>
<trkpt lat="50.565002" lon="5.555511"><time>2026-05-03T07:50:44Z</time></trkpt>
<trkpt lat="50.564293" lon="5.551370"><time>2026-05-03T08:00:44Z</time></trkpt>
</trkseg>
</trk>
<trk>
<name>lsrogi5</name>
<cmt>v</cmt>
<desc>Ougrée Chemin n°i5 </desc>
<link href="https://chemins.be/ougree/chemin/i5"/><trkseg>
<trkpt lat="50.578693" lon="5.565199"><time>2026-05-03T06:40:44Z</time></trkpt>
<trkpt lat="50.578606" lon="5.564920"><time>2026-05-03T06:50:44Z</time></trkpt>
<trkpt lat="50.578311" lon="5.564906"><time>2026-05-03T07:00:44Z</time></trkpt>
<trkpt lat="50.577612" lon="5.563704"><time>2026-05-03T07:10:44Z</time></trkpt>
<trkpt lat="50.577153" lon="5.563418"><time>2026-05-03T07:20:44Z</time></trkpt>
</trkseg>
</trk>
<trk>
<name>lsrogi6</name>
<cmt>v</cmt>
<desc>Ougrée Sentier n°i6 Rue Bai Pairay</desc>
<link href="https://chemins.be/ougree/sentier/i6"/><trkseg>
<trkpt lat="50.598824" lon="5.544843"><time>2026-05-03T06:40:44Z</time></trkpt>
<trkpt lat="50.598856" lon="5.545207"><time>2026-05-03T06:50:44Z</time></trkpt>
<trkpt lat="50.599069" lon="5.545427"><time>2026-05-03T07:00:44Z</time></trkpt>
<trkpt lat="50.599122" lon="5.545377"><time>2026-05-03T07:10:44Z</time></trkpt>
<trkpt lat="50.599288" lon="5.545455"><time>2026-05-03T07:20:44Z</time></trkpt>
<trkpt lat="50.599390" lon="5.545563"><time>2026-05-03T07:30:44Z</time></trkpt>
<trkpt lat="50.599508" lon="5.546010"><time>2026-05-03T07:40:44Z</time></trkpt>
</trkseg>
</trk>
<trk>
<name>lsrogi7</name>
<cmt>v</cmt>
<desc>Ougrée Sentier n°i7 Rue des Coteaux</desc>
<link href="https://chemins.be/ougree/sentier/i7"/><trkseg>
<trkpt lat="50.598759" lon="5.541693"><time>2026-05-03T06:40:44Z</time></trkpt>
<trkpt lat="50.598688" lon="5.541718"><time>2026-05-03T06:50:44Z</time></trkpt>
<trkpt lat="50.598389" lon="5.541518"><time>2026-05-03T07:00:44Z</time></trkpt>
<trkpt lat="50.598268" lon="5.541275"><time>2026-05-03T07:10:44Z</time></trkpt>
</trkseg>
</trk>
<trk>
<name>lsrogi8</name>
<cmt>v</cmt>
<desc>Ougrée Sentier n°i8 Thier Laly</desc>
<link href="https://chemins.be/ougree/sentier/i8"/><trkseg>
<trkpt lat="50.599460" lon="5.541686"><time>2026-05-03T06:40:44Z</time></trkpt>
<trkpt lat="50.598863" lon="5.540889"><time>2026-05-03T06:50:44Z</time></trkpt>
</trkseg>
</trk>
<trk>
<name>lsrogi9</name>
<cmt>v</cmt>
<desc>Ougrée Sentier n°i9 </desc>
<link href="https://chemins.be/ougree/sentier/i9"/><trkseg>
<trkpt lat="50.596616" lon="5.540445"><time>2026-05-03T06:40:44Z</time></trkpt>
<trkpt lat="50.597792" lon="5.540427"><time>2026-05-03T06:50:44Z</time></trkpt>
</trkseg>
</trk>
<trk>
<name>lsrsr1</name>
<cmt>v</cmt>
<desc>Seraing Chemin n°1 Chemin du Mont Chera</desc>
<link href="https://chemins.be/seraing/chemin/1"/><trkseg>
<trkpt lat="50.575845" lon="5.501645"><time>2026-05-03T06:40:44Z</time></trkpt>
<trkpt lat="50.574980" lon="5.501177"><time>2026-05-03T06:50:44Z</time></trkpt>
<trkpt lat="50.574371" lon="5.500906"><time>2026-05-03T07:00:44Z</time></trkpt>
<trkpt lat="50.571210" lon="5.499147"><time>2026-05-03T07:10:44Z</time></trkpt>
<trkpt lat="50.569661" lon="5.498346"><time>2026-05-03T07:20:44Z</time></trkpt>
<trkpt lat="50.566352" lon="5.497510"><time>2026-05-03T07:30:44Z</time></trkpt>
<trkpt lat="50.565841" lon="5.497645"><time>2026-05-03T07:40:44Z</time></trkpt>
<trkpt lat="50.565592" lon="5.497920"><time>2026-05-03T07:50:44Z</time></trkpt>
<trkpt lat="50.565096" lon="5.497896"><time>2026-05-03T08:00:44Z</time></trkpt>
<trkpt lat="50.563878" lon="5.498425"><time>2026-05-03T08:10:44Z</time></trkpt>
<trkpt lat="50.563196" lon="5.498403"><time>2026-05-03T08:20:44Z</time></trkpt>
</trkseg>
</trk>
<trk>
<name>lsrsr10</name>
<cmt>v</cmt>
<desc>Seraing Chemin n°10 Chemin de Boncelles à Plainevaux</desc>
<link href="https://chemins.be/seraing/chemin/10"/><trkseg>
<trkpt lat="50.561097" lon="5.530824"><time>2026-05-03T06:40:44Z</time></trkpt>
<trkpt lat="50.560607" lon="5.530910"><time>2026-05-03T06:50:44Z</time></trkpt>
<trkpt lat="50.557949" lon="5.531379"><time>2026-05-03T07:00:44Z</time></trkpt>
<trkpt lat="50.557377" lon="5.531480"><time>2026-05-03T07:10:44Z</time></trkpt>
</trkseg></trk>
<trk>
<name>lsrsr10</name>
<cmt>s</cmt>
<desc>Seraing Chemin n°10 Chemin de Boncelles à Plainevaux</desc>
<link href="https://chemins.be/seraing/chemin/10"/><trkseg>
<trkpt lat="50.557377" lon="5.531480"><time>2026-05-03T07:10:44Z</time></trkpt>
<trkpt lat="50.557048" lon="5.531440"><time>2026-05-03T07:20:44Z</time></trkpt>
</trkseg></trk>
<trk>
<name>lsrsr10</name>
<cmt>v</cmt>
<desc>Seraing Chemin n°10 Chemin de Boncelles à Plainevaux</desc>
<link href="https://chemins.be/seraing/chemin/10"/><trkseg>
<trkpt lat="50.557048" lon="5.531440"><time>2026-05-03T07:20:44Z</time></trkpt>
<trkpt lat="50.556593" lon="5.531715"><time>2026-05-03T07:30:44Z</time></trkpt>
<trkpt lat="50.556536" lon="5.531780"><time>2026-05-03T07:40:44Z</time></trkpt>
</trkseg>
</trk>
<trk>
<name>lsrsr11</name>
<cmt>r</cmt>
<desc>Seraing Chemin n°11 Rue Damry / Chemin du Meunier</desc>
<link href="https://chemins.be/seraing/chemin/11"/><trkseg>
<trkpt lat="50.560587" lon="5.525137"><time>2026-05-03T06:40:44Z</time></trkpt>
<trkpt lat="50.560166" lon="5.524139"><time>2026-05-03T06:50:44Z</time></trkpt>
</trkseg></trk>
<trk>
<name>lsrsr11</name>
<cmt>v</cmt>
<desc>Seraing Chemin n°11 Rue Damry / Chemin du Meunier</desc>
<link href="https://chemins.be/seraing/chemin/11"/><trkseg>
<trkpt lat="50.560166" lon="5.524139"><time>2026-05-03T06:50:44Z</time></trkpt>
<trkpt lat="50.559527" lon="5.522401"><time>2026-05-03T07:00:44Z</time></trkpt>
<trkpt lat="50.556297" lon="5.517114"><time>2026-05-03T07:10:44Z</time></trkpt>
<trkpt lat="50.556031" lon="5.515919"><time>2026-05-03T07:20:44Z</time></trkpt>
</trkseg>
</trk>
<trk>
<name>lsrsr12</name>
<cmt>v</cmt>
<desc>Seraing Chemin n°12 Chemin du Crucifix</desc>
<link href="https://chemins.be/seraing/chemin/12"/><trkseg>
<trkpt lat="50.564660" lon="5.525222"><time>2026-05-03T06:40:44Z</time></trkpt>
<trkpt lat="50.563815" lon="5.521599"><time>2026-05-03T06:50:44Z</time></trkpt>
<trkpt lat="50.563150" lon="5.518749"><time>2026-05-03T07:00:44Z</time></trkpt>
<trkpt lat="50.561943" lon="5.513511"><time>2026-05-03T07:10:44Z</time></trkpt>
</trkseg>
</trk>
<trk>
<name>lsrsr13</name>
<cmt>v</cmt>
<desc>Seraing Chemin n°13 Chemin du Meunier</desc>
<link href="https://chemins.be/seraing/chemin/13"/><trkseg>
<trkpt lat="50.555987" lon="5.522992"><time>2026-05-03T06:40:44Z</time></trkpt>
<trkpt lat="50.556044" lon="5.516332"><time>2026-05-03T06:50:44Z</time></trkpt>
<trkpt lat="50.556046" lon="5.515174"><time>2026-05-03T07:00:44Z</time></trkpt>
</trkseg>
</trk>
<trk>
<name>lsrsr14</name>
<cmt>v</cmt>
<desc>Seraing Chemin n°14 Voie du Château</desc>
<link href="https://chemins.be/seraing/chemin/14"/><trkseg>
<trkpt lat="50.550840" lon="5.517294"><time>2026-05-03T06:40:44Z</time></trkpt>
<trkpt lat="50.551563" lon="5.515019"><time>2026-05-03T06:50:44Z</time></trkpt>
<trkpt lat="50.551345" lon="5.510427"><time>2026-05-03T07:00:44Z</time></trkpt>
<trkpt lat="50.550908" lon="5.508281"><time>2026-05-03T07:10:44Z</time></trkpt>
<trkpt lat="50.550159" lon="5.506479"><time>2026-05-03T07:20:44Z</time></trkpt>
</trkseg>
</trk>
<trk>
<name>lsrsr15</name>
<cmt>v</cmt>
<desc>Seraing Chemin n°15 Belle Voie</desc>
<link href="https://chemins.be/seraing/chemin/15"/><trkseg>
<trkpt lat="50.550352" lon="5.521939"><time>2026-05-03T06:40:44Z</time></trkpt>
<trkpt lat="50.551043" lon="5.526531"><time>2026-05-03T06:50:44Z</time></trkpt>
</trkseg>
</trk>
<trk>
<name>lsrsr16</name>
<cmt>v</cmt>
<desc>Seraing Chemin n°16 Drève de l'Évèché</desc>
<link href="https://chemins.be/seraing/chemin/16"/><trkseg>
<trkpt lat="50.569181" lon="5.524387"><time>2026-05-03T06:40:44Z</time></trkpt>
<trkpt lat="50.569140" lon="5.524033"><time>2026-05-03T06:50:44Z</time></trkpt>
<trkpt lat="50.568535" lon="5.522480"><time>2026-05-03T07:00:44Z</time></trkpt>
<trkpt lat="50.567423" lon="5.520321"><time>2026-05-03T07:10:44Z</time></trkpt>
<trkpt lat="50.566715" lon="5.518341"><time>2026-05-03T07:20:44Z</time></trkpt>
<trkpt lat="50.565059" lon="5.511714"><time>2026-05-03T07:30:44Z</time></trkpt>
<trkpt lat="50.564023" lon="5.507559"><time>2026-05-03T07:40:44Z</time></trkpt>
<trkpt lat="50.563483" lon="5.505291"><time>2026-05-03T07:50:44Z</time></trkpt>
</trkseg></trk>
<trk>
<name>lsrsr16</name>
<cmt>d</cmt>
<desc>Seraing Chemin n°16 Drève de l'Évèché</desc>
<link href="https://chemins.be/seraing/chemin/16"/><trkseg>
<trkpt lat="50.563483" lon="5.505291"><time>2026-05-03T07:50:44Z</time></trkpt>
<trkpt lat="50.564150" lon="5.501859"><time>2026-05-03T08:00:44Z</time></trkpt>
<trkpt lat="50.564172" lon="5.500794"><time>2026-05-03T08:10:44Z</time></trkpt>
<trkpt lat="50.563169" lon="5.498219"><time>2026-05-03T08:20:44Z</time></trkpt>
</trkseg>
</trk>
<trk>
<name>lsrsr17</name>
<cmt>s</cmt>
<desc>Seraing Chemin n°17 Rue du Grand Sart</desc>
<link href="https://chemins.be/seraing/chemin/17"/><trkseg>
<trkpt lat="50.591589" lon="5.479621"><time>2026-05-03T06:40:44Z</time></trkpt>
<trkpt lat="50.591294" lon="5.480608"><time>2026-05-03T06:50:44Z</time></trkpt>
<trkpt lat="50.590795" lon="5.480801"><time>2026-05-03T07:00:44Z</time></trkpt>
<trkpt lat="50.589284" lon="5.479533"><time>2026-05-03T07:10:44Z</time></trkpt>
</trkseg></trk>
<trk>
<name>lsrsr17</name>
<cmt>v</cmt>
<desc>Seraing Chemin n°17 Rue du Grand Sart</desc>
<link href="https://chemins.be/seraing/chemin/17"/><trkseg>
<trkpt lat="50.589284" lon="5.479533"><time>2026-05-03T07:10:44Z</time></trkpt>
<trkpt lat="50.588729" lon="5.479019"><time>2026-05-03T07:20:44Z</time></trkpt>
<trkpt lat="50.588563" lon="5.479050"><time>2026-05-03T07:30:44Z</time></trkpt>
<trkpt lat="50.588249" lon="5.478882"><time>2026-05-03T07:40:44Z</time></trkpt>
<trkpt lat="50.587596" lon="5.476589"><time>2026-05-03T07:50:44Z</time></trkpt>
</trkseg>
</trk>
<trk>
<name>lsrsr18</name>
<cmt>r</cmt>
<desc>Seraing Chemin n°18 </desc>
<link href="https://chemins.be/seraing/chemin/18"/><trkseg>
<trkpt lat="50.590797" lon="5.500243"><time>2026-05-03T06:40:44Z</time></trkpt>
<trkpt lat="50.590826" lon="5.498606"><time>2026-05-03T06:50:44Z</time></trkpt>
<trkpt lat="50.590683" lon="5.497597"><time>2026-05-03T07:00:44Z</time></trkpt>
</trkseg></trk>
<trk>
<name>lsrsr18</name>
<cmt>s</cmt>
<desc>Seraing Chemin n°18 </desc>
<link href="https://chemins.be/seraing/chemin/18"/><trkseg>
<trkpt lat="50.590683" lon="5.497597"><time>2026-05-03T07:00:44Z</time></trkpt>
<trkpt lat="50.591037" lon="5.497497"><time>2026-05-03T07:10:44Z</time></trkpt>
<trkpt lat="50.591519" lon="5.498169"><time>2026-05-03T07:20:44Z</time></trkpt>
<trkpt lat="50.592154" lon="5.498369"><time>2026-05-03T07:30:44Z</time></trkpt>
<trkpt lat="50.592327" lon="5.497733"><time>2026-05-03T07:40:44Z</time></trkpt>
<trkpt lat="50.592114" lon="5.493455"><time>2026-05-03T07:50:44Z</time></trkpt>
</trkseg></trk>
<trk>
<name>lsrsr18</name>
<cmt>v</cmt>
<desc>Seraing Chemin n°18 </desc>
<link href="https://chemins.be/seraing/chemin/18"/><trkseg>
<trkpt lat="50.592114" lon="5.493455"><time>2026-05-03T07:50:44Z</time></trkpt>
<trkpt lat="50.592103" lon="5.493153"><time>2026-05-03T08:00:44Z</time></trkpt>
</trkseg>
</trk>
<trk>
<name>lsrsr19</name>
<cmt>r</cmt>
<desc>Seraing Chemin n°19 Rue de la Forêt / Rue des Charrons</desc>
<link href="https://chemins.be/seraing/chemin/19"/><trkseg>
<trkpt lat="50.585962" lon="5.512996"><time>2026-05-03T06:40:44Z</time></trkpt>
<trkpt lat="50.586716" lon="5.513015"><time>2026-05-03T06:50:44Z</time></trkpt>
<trkpt lat="50.587177" lon="5.512929"><time>2026-05-03T07:00:44Z</time></trkpt>
<trkpt lat="50.590118" lon="5.512354"><time>2026-05-03T07:10:44Z</time></trkpt>
</trkseg></trk>
<trk>
<name>lsrsr19</name>
<cmt>v</cmt>
<desc>Seraing Chemin n°19 Rue de la Forêt / Rue des Charrons</desc>
<link href="https://chemins.be/seraing/chemin/19"/><trkseg>
<trkpt lat="50.590118" lon="5.512354"><time>2026-05-03T07:10:44Z</time></trkpt>
<trkpt lat="50.590739" lon="5.512411"><time>2026-05-03T07:20:44Z</time></trkpt>
<trkpt lat="50.591357" lon="5.512567"><time>2026-05-03T07:30:44Z</time></trkpt>
<trkpt lat="50.591453" lon="5.512608"><time>2026-05-03T07:40:44Z</time></trkpt>
<trkpt lat="50.591823" lon="5.512515"><time>2026-05-03T07:50:44Z</time></trkpt>
</trkseg></trk>
<trk>
<name>lsrsr19</name>
<cmt>r</cmt>
<desc>Seraing Chemin n°19 Rue de la Forêt / Rue des Charrons</desc>
<link href="https://chemins.be/seraing/chemin/19"/><trkseg>
<trkpt lat="50.591823" lon="5.512515"><time>2026-05-03T07:50:44Z</time></trkpt>
<trkpt lat="50.591932" lon="5.512391"><time>2026-05-03T08:00:44Z</time></trkpt>
<trkpt lat="50.592091" lon="5.512354"><time>2026-05-03T08:10:44Z</time></trkpt>
</trkseg></trk>
<trk>
<name>lsrsr19</name>
<cmt>v</cmt>
<desc>Seraing Chemin n°19 Rue de la Forêt / Rue des Charrons</desc>
<link href="https://chemins.be/seraing/chemin/19"/><trkseg>
<trkpt lat="50.592091" lon="5.512354"><time>2026-05-03T08:10:44Z</time></trkpt>
<trkpt lat="50.592444" lon="5.512309"><time>2026-05-03T08:20:44Z</time></trkpt>
</trkseg></trk>
<trk>
<name>lsrsr19</name>
<cmt>d</cmt>
<desc>Seraing Chemin n°19 Rue de la Forêt / Rue des Charrons</desc>
<link href="https://chemins.be/seraing/chemin/19"/><trkseg>
<trkpt lat="50.592444" lon="5.512309"><time>2026-05-03T08:20:44Z</time></trkpt>
<trkpt lat="50.592928" lon="5.512203"><time>2026-05-03T08:30:44Z</time></trkpt>
</trkseg></trk>
<trk>
<name>lsrsr19</name>
<cmt>r</cmt>
<desc>Seraing Chemin n°19 Rue de la Forêt / Rue des Charrons</desc>
<link href="https://chemins.be/seraing/chemin/19"/><trkseg>
<trkpt lat="50.592928" lon="5.512203"><time>2026-05-03T08:30:44Z</time></trkpt>
<trkpt lat="50.592928" lon="5.512218"><time>2026-05-03T08:40:44Z</time></trkpt>
<trkpt lat="50.593300" lon="5.512139"><time>2026-05-03T08:50:44Z</time></trkpt>
</trkseg>
</trk>
<trk>
<name>lsrsr2</name>
<cmt>r</cmt>
<desc>Seraing Chemin n°2 Rue de la Basse Marihaye / Chemin du Ban / Allée du Ban / Chemin du Meunier</desc>
<link href="https://chemins.be/seraing/chemin/2"/><trkseg>
<trkpt lat="50.607360" lon="5.498807"><time>2026-05-03T06:40:44Z</time></trkpt>
<trkpt lat="50.607060" lon="5.498952"><time>2026-05-03T06:50:44Z</time></trkpt>
<trkpt lat="50.606740" lon="5.498443"><time>2026-05-03T07:00:44Z</time></trkpt>
<trkpt lat="50.606114" lon="5.496629"><time>2026-05-03T07:10:44Z</time></trkpt>
<trkpt lat="50.605344" lon="5.497359"><time>2026-05-03T07:20:44Z</time></trkpt>
<trkpt lat="50.605118" lon="5.497362"><time>2026-05-03T07:30:44Z</time></trkpt>
</trkseg></trk>
<trk>
<name>lsrsr2</name>
<cmt>v</cmt>
<desc>Seraing Chemin n°2 Rue de la Basse Marihaye / Chemin du Ban / Allée du Ban / Chemin du Meunier</desc>
<link href="https://chemins.be/seraing/chemin/2"/><trkseg>
<trkpt lat="50.605118" lon="5.497362"><time>2026-05-03T07:30:44Z</time></trkpt>
<trkpt lat="50.604750" lon="5.497222"><time>2026-05-03T07:40:44Z</time></trkpt>
</trkseg></trk>
<trk>
<name>lsrsr2</name>
<cmt>r</cmt>
<desc>Seraing Chemin n°2 Rue de la Basse Marihaye / Chemin du Ban / Allée du Ban / Chemin du Meunier</desc>
<link href="https://chemins.be/seraing/chemin/2"/><trkseg>
<trkpt lat="50.604750" lon="5.497222"><time>2026-05-03T07:40:44Z</time></trkpt>
<trkpt lat="50.604541" lon="5.497209"><time>2026-05-03T07:50:44Z</time></trkpt>
<trkpt lat="50.604434" lon="5.497045"><time>2026-05-03T08:00:44Z</time></trkpt>
<trkpt lat="50.604174" lon="5.496998"><time>2026-05-03T08:10:44Z</time></trkpt>
<trkpt lat="50.602961" lon="5.496190"><time>2026-05-03T08:20:44Z</time></trkpt>
<trkpt lat="50.601967" lon="5.494323"><time>2026-05-03T08:30:44Z</time></trkpt>
<trkpt lat="50.601771" lon="5.493969"><time>2026-05-03T08:40:44Z</time></trkpt>
<trkpt lat="50.601441" lon="5.493619"><time>2026-05-03T08:50:44Z</time></trkpt>
</trkseg></trk>
<trk>
<name>lsrsr2</name>
<cmt>v</cmt>
<desc>Seraing Chemin n°2 Rue de la Basse Marihaye / Chemin du Ban / Allée du Ban / Chemin du Meunier</desc>
<link href="https://chemins.be/seraing/chemin/2"/><trkseg>
<trkpt lat="50.601441" lon="5.493619"><time>2026-05-03T08:50:44Z</time></trkpt>
<trkpt lat="50.601331" lon="5.493517"><time>2026-05-03T09:00:44Z</time></trkpt>
</trkseg></trk>
<trk>
<name>lsrsr2</name>
<cmt>r</cmt>
<desc>Seraing Chemin n°2 Rue de la Basse Marihaye / Chemin du Ban / Allée du Ban / Chemin du Meunier</desc>
<link href="https://chemins.be/seraing/chemin/2"/><trkseg>
<trkpt lat="50.601331" lon="5.493517"><time>2026-05-03T09:00:44Z</time></trkpt>
<trkpt lat="50.600884" lon="5.493287"><time>2026-05-03T09:10:44Z</time></trkpt>
<trkpt lat="50.600784" lon="5.493132"><time>2026-05-03T09:20:44Z</time></trkpt>
<trkpt lat="50.600463" lon="5.492933"><time>2026-05-03T09:30:44Z</time></trkpt>
<trkpt lat="50.598795" lon="5.491673"><time>2026-05-03T09:40:44Z</time></trkpt>
<trkpt lat="50.597496" lon="5.491952"><time>2026-05-03T09:50:44Z</time></trkpt>
<trkpt lat="50.597206" lon="5.492374"><time>2026-05-03T10:00:44Z</time></trkpt>
<trkpt lat="50.596093" lon="5.492288"><time>2026-05-03T10:10:44Z</time></trkpt>
<trkpt lat="50.594872" lon="5.492445"><time>2026-05-03T10:20:44Z</time></trkpt>
<trkpt lat="50.593722" lon="5.492891"><time>2026-05-03T10:30:44Z</time></trkpt>
<trkpt lat="50.591608" lon="5.493183"><time>2026-05-03T10:40:44Z</time></trkpt>
</trkseg></trk>
<trk>
<name>lsrsr2</name>
<cmt>s</cmt>
<desc>Seraing Chemin n°2 Rue de la Basse Marihaye / Chemin du Ban / Allée du Ban / Chemin du Meunier</desc>
<link href="https://chemins.be/seraing/chemin/2"/><trkseg>
<trkpt lat="50.591608" lon="5.493183"><time>2026-05-03T10:40:44Z</time></trkpt>
<trkpt lat="50.586269" lon="5.494679"><time>2026-05-03T10:50:44Z</time></trkpt>
</trkseg></trk>
<trk>
<name>lsrsr2</name>
<cmt>r</cmt>
<desc>Seraing Chemin n°2 Rue de la Basse Marihaye / Chemin du Ban / Allée du Ban / Chemin du Meunier</desc>
<link href="https://chemins.be/seraing/chemin/2"/><trkseg>
<trkpt lat="50.586269" lon="5.494679"><time>2026-05-03T10:50:44Z</time></trkpt>
<trkpt lat="50.585733" lon="5.495447"><time>2026-05-03T11:00:44Z</time></trkpt>
<trkpt lat="50.584397" lon="5.496415"><time>2026-05-03T11:10:44Z</time></trkpt>
<trkpt lat="50.584333" lon="5.498024"><time>2026-05-03T11:20:44Z</time></trkpt>
<trkpt lat="50.584092" lon="5.498725"><time>2026-05-03T11:30:44Z</time></trkpt>
<trkpt lat="50.583665" lon="5.499226"><time>2026-05-03T11:40:44Z</time></trkpt>
<trkpt lat="50.582243" lon="5.500327"><time>2026-05-03T11:50:44Z</time></trkpt>
<trkpt lat="50.579795" lon="5.500864"><time>2026-05-03T12:00:44Z</time></trkpt>
</trkseg></trk>
<trk>
<name>lsrsr2</name>
<cmt>s</cmt>
<desc>Seraing Chemin n°2 Rue de la Basse Marihaye / Chemin du Ban / Allée du Ban / Chemin du Meunier</desc>
<link href="https://chemins.be/seraing/chemin/2"/><trkseg>
<trkpt lat="50.579795" lon="5.500864"><time>2026-05-03T12:00:44Z</time></trkpt>
<trkpt lat="50.578228" lon="5.501236"><time>2026-05-03T12:10:44Z</time></trkpt>
</trkseg></trk>
<trk>
<name>lsrsr2</name>
<cmt>r</cmt>
<desc>Seraing Chemin n°2 Rue de la Basse Marihaye / Chemin du Ban / Allée du Ban / Chemin du Meunier</desc>
<link href="https://chemins.be/seraing/chemin/2"/><trkseg>
<trkpt lat="50.578228" lon="5.501236"><time>2026-05-03T12:10:44Z</time></trkpt>
<trkpt lat="50.576243" lon="5.502759"><time>2026-05-03T12:20:44Z</time></trkpt>
<trkpt lat="50.573474" lon="5.505531"><time>2026-05-03T12:30:44Z</time></trkpt>
<trkpt lat="50.572865" lon="5.506546"><time>2026-05-03T12:40:44Z</time></trkpt>
<trkpt lat="50.571994" lon="5.510135"><time>2026-05-03T12:50:44Z</time></trkpt>
</trkseg></trk>
<trk>
<name>lsrsr2</name>
<cmt>v</cmt>
<desc>Seraing Chemin n°2 Rue de la Basse Marihaye / Chemin du Ban / Allée du Ban / Chemin du Meunier</desc>
<link href="https://chemins.be/seraing/chemin/2"/><trkseg>
<trkpt lat="50.571994" lon="5.510135"><time>2026-05-03T12:50:44Z</time></trkpt>
<trkpt lat="50.571540" lon="5.510453"><time>2026-05-03T13:00:44Z</time></trkpt>
<trkpt lat="50.570041" lon="5.511038"><time>2026-05-03T13:10:44Z</time></trkpt>
<trkpt lat="50.568357" lon="5.511337"><time>2026-05-03T13:20:44Z</time></trkpt>
<trkpt lat="50.565018" lon="5.511800"><time>2026-05-03T13:30:44Z</time></trkpt>
<trkpt lat="50.562014" lon="5.513569"><time>2026-05-03T13:40:44Z</time></trkpt>
<trkpt lat="50.558317" lon="5.514735"><time>2026-05-03T13:50:44Z</time></trkpt>
<trkpt lat="50.556056" lon="5.515132"><time>2026-05-03T14:00:44Z</time></trkpt>
<trkpt lat="50.555427" lon="5.515046"><time>2026-05-03T14:10:44Z</time></trkpt>
<trkpt lat="50.554745" lon="5.514987"><time>2026-05-03T14:20:44Z</time></trkpt>
<trkpt lat="50.553531" lon="5.515875"><time>2026-05-03T14:30:44Z</time></trkpt>
</trkseg></trk>
<trk>
<name>lsrsr2</name>
<cmt>s</cmt>
<desc>Seraing Chemin n°2 Rue de la Basse Marihaye / Chemin du Ban / Allée du Ban / Chemin du Meunier</desc>
<link href="https://chemins.be/seraing/chemin/2"/><trkseg>
<trkpt lat="50.553531" lon="5.515875"><time>2026-05-03T14:30:44Z</time></trkpt>
<trkpt lat="50.553045" lon="5.516397"><time>2026-05-03T14:40:44Z</time></trkpt>
</trkseg></trk>
<trk>
<name>lsrsr2</name>
<cmt>d</cmt>
<desc>Seraing Chemin n°2 Rue de la Basse Marihaye / Chemin du Ban / Allée du Ban / Chemin du Meunier</desc>
<link href="https://chemins.be/seraing/chemin/2"/><trkseg>
<trkpt lat="50.553045" lon="5.516397"><time>2026-05-03T14:40:44Z</time></trkpt>
<trkpt lat="50.550860" lon="5.517288"><time>2026-05-03T14:50:44Z</time></trkpt>
</trkseg></trk>
<trk>
<name>lsrsr2</name>
<cmt>v</cmt>
<desc>Seraing Chemin n°2 Rue de la Basse Marihaye / Chemin du Ban / Allée du Ban / Chemin du Meunier</desc>
<link href="https://chemins.be/seraing/chemin/2"/><trkseg>
<trkpt lat="50.550860" lon="5.517288"><time>2026-05-03T14:50:44Z</time></trkpt>
<trkpt lat="50.550233" lon="5.519434"><time>2026-05-03T15:00:44Z</time></trkpt>
<trkpt lat="50.550426" lon="5.521874"><time>2026-05-03T15:10:44Z</time></trkpt>
</trkseg></trk>
<trk>
<name>lsrsr2</name>
<cmt>r</cmt>
<desc>Seraing Chemin n°2 Rue de la Basse Marihaye / Chemin du Ban / Allée du Ban / Chemin du Meunier</desc>
<link href="https://chemins.be/seraing/chemin/2"/><trkseg>
<trkpt lat="50.550426" lon="5.521874"><time>2026-05-03T15:10:44Z</time></trkpt>
<trkpt lat="50.549285" lon="5.521853"><time>2026-05-03T15:20:44Z</time></trkpt>
</trkseg>
</trk>
<trk>
<name>lsrsr21</name>
<cmt>r</cmt>
<desc>Seraing Chemin n°21 Rue de la Banque / Rue Molinay / Rue de la Chatqueue</desc>
<link href="https://chemins.be/seraing/chemin/21"/><trkseg>
<trkpt lat="50.609756" lon="5.512884"><time>2026-05-03T06:40:44Z</time></trkpt>
<trkpt lat="50.608967" lon="5.513134"><time>2026-05-03T06:50:44Z</time></trkpt>
</trkseg></trk>
<trk>
<name>lsrsr21</name>
<cmt>v</cmt>
<desc>Seraing Chemin n°21 Rue de la Banque / Rue Molinay / Rue de la Chatqueue</desc>
<link href="https://chemins.be/seraing/chemin/21"/><trkseg>
<trkpt lat="50.608967" lon="5.513134"><time>2026-05-03T06:50:44Z</time></trkpt>
<trkpt lat="50.608354" lon="5.513341"><time>2026-05-03T07:00:44Z</time></trkpt>
</trkseg></trk>
<trk>
<name>lsrsr21</name>
<cmt>r</cmt>
<desc>Seraing Chemin n°21 Rue de la Banque / Rue Molinay / Rue de la Chatqueue</desc>
<link href="https://chemins.be/seraing/chemin/21"/><trkseg>
<trkpt lat="50.608354" lon="5.513341"><time>2026-05-03T07:00:44Z</time></trkpt>
<trkpt lat="50.607541" lon="5.513535"><time>2026-05-03T07:10:44Z</time></trkpt>
<trkpt lat="50.606965" lon="5.514142"><time>2026-05-03T07:20:44Z</time></trkpt>
<trkpt lat="50.605694" lon="5.515001"><time>2026-05-03T07:30:44Z</time></trkpt>
<trkpt lat="50.604191" lon="5.516016"><time>2026-05-03T07:40:44Z</time></trkpt>
<trkpt lat="50.602648" lon="5.516331"><time>2026-05-03T07:50:44Z</time></trkpt>
<trkpt lat="50.602113" lon="5.517113"><time>2026-05-03T08:00:44Z</time></trkpt>
<trkpt lat="50.601738" lon="5.518177"><time>2026-05-03T08:10:44Z</time></trkpt>
<trkpt lat="50.600094" lon="5.519650"><time>2026-05-03T08:20:44Z</time></trkpt>
<trkpt lat="50.597942" lon="5.520755"><time>2026-05-03T08:30:44Z</time></trkpt>
<trkpt lat="50.597554" lon="5.520701"><time>2026-05-03T08:40:44Z</time></trkpt>
</trkseg>
</trk>
<trk>
<name>lsrsr22</name>
<cmt>r</cmt>
<desc>Seraing Chemin n°22 Rue Giordano Bruno</desc>
<link href="https://chemins.be/seraing/chemin/22"/><trkseg>
<trkpt lat="50.610118" lon="5.516641"><time>2026-05-03T06:40:44Z</time></trkpt>
<trkpt lat="50.609138" lon="5.516797"><time>2026-05-03T06:50:44Z</time></trkpt>
</trkseg></trk>
<trk>
<name>lsrsr22</name>
<cmt>s</cmt>
<desc>Seraing Chemin n°22 Rue Giordano Bruno</desc>
<link href="https://chemins.be/seraing/chemin/22"/><trkseg>
<trkpt lat="50.609138" lon="5.516797"><time>2026-05-03T06:50:44Z</time></trkpt>
<trkpt lat="50.608250" lon="5.516938"><time>2026-05-03T07:00:44Z</time></trkpt>
<trkpt lat="50.608266" lon="5.517310"><time>2026-05-03T07:10:44Z</time></trkpt>
<trkpt lat="50.607465" lon="5.518494"><time>2026-05-03T07:20:44Z</time></trkpt>
<trkpt lat="50.606806" lon="5.518533"><time>2026-05-03T07:30:44Z</time></trkpt>
</trkseg>
</trk>
<trk>
<name>lsrsr24</name>
<cmt>v</cmt>
<desc>Seraing Chemin n°24 Rue du Buisson</desc>
<link href="https://chemins.be/seraing/chemin/24"/><trkseg>
<trkpt lat="50.601240" lon="5.516127"><time>2026-05-03T06:40:44Z</time></trkpt>
<trkpt lat="50.601006" lon="5.516729"><time>2026-05-03T06:50:44Z</time></trkpt>
<trkpt lat="50.600900" lon="5.516967"><time>2026-05-03T07:00:44Z</time></trkpt>
<trkpt lat="50.600793" lon="5.517189"><time>2026-05-03T07:10:44Z</time></trkpt>
<trkpt lat="50.600451" lon="5.517839"><time>2026-05-03T07:20:44Z</time></trkpt>
</trkseg></trk>
<trk>
<name>lsrsr24</name>
<cmt>r</cmt>
<desc>Seraing Chemin n°24 Rue du Buisson</desc>
<link href="https://chemins.be/seraing/chemin/24"/><trkseg>
<trkpt lat="50.600451" lon="5.517839"><time>2026-05-03T07:20:44Z</time></trkpt>
<trkpt lat="50.599920" lon="5.518468"><time>2026-05-03T07:30:44Z</time></trkpt>
<trkpt lat="50.598386" lon="5.519455"><time>2026-05-03T07:40:44Z</time></trkpt>
<trkpt lat="50.597577" lon="5.520657"><time>2026-05-03T07:50:44Z</time></trkpt>
</trkseg>
</trk>
<trk>
<name>lsrsr25</name>
<cmt>s</cmt>
<desc>Seraing Chemin n°25 </desc>
<link href="https://chemins.be/seraing/chemin/25"/><trkseg>
<trkpt lat="50.603863" lon="5.524836"><time>2026-05-03T06:40:44Z</time></trkpt>
<trkpt lat="50.605177" lon="5.528612"><time>2026-05-03T06:50:44Z</time></trkpt>
<trkpt lat="50.605334" lon="5.528752"><time>2026-05-03T07:00:44Z</time></trkpt>
<trkpt lat="50.605640" lon="5.529631"><time>2026-05-03T07:10:44Z</time></trkpt>
<trkpt lat="50.605572" lon="5.532174"><time>2026-05-03T07:20:44Z</time></trkpt>
<trkpt lat="50.605879" lon="5.532356"><time>2026-05-03T07:30:44Z</time></trkpt>
</trkseg>
</trk>
<trk>
<name>lsrsr27</name>
<cmt>s</cmt>
<desc>Seraing Chemin n°27 </desc>
<link href="https://chemins.be/seraing/chemin/27"/><trkseg>
<trkpt lat="50.600799" lon="5.489250"><time>2026-05-03T06:40:44Z</time></trkpt>
<trkpt lat="50.601839" lon="5.487168"><time>2026-05-03T06:50:44Z</time></trkpt>
</trkseg>
</trk>
<trk>
<name>lsrsr3</name>
<cmt>d</cmt>
<desc>Seraing Chemin n°3 </desc>
<link href="https://chemins.be/seraing/chemin/3"/><trkseg>
<trkpt lat="50.576211" lon="5.508685"><time>2026-05-03T06:40:44Z</time></trkpt>
<trkpt lat="50.574340" lon="5.511260"><time>2026-05-03T06:50:44Z</time></trkpt>
<trkpt lat="50.572173" lon="5.511473"><time>2026-05-03T07:00:44Z</time></trkpt>
<trkpt lat="50.571684" lon="5.511301"><time>2026-05-03T07:10:44Z</time></trkpt>
</trkseg></trk>
<trk>
<name>lsrsr3</name>
<cmt>v</cmt>
<desc>Seraing Chemin n°3 </desc>
<link href="https://chemins.be/seraing/chemin/3"/><trkseg>
<trkpt lat="50.571684" lon="5.511301"><time>2026-05-03T07:10:44Z</time></trkpt>
<trkpt lat="50.570397" lon="5.510956"><time>2026-05-03T07:20:44Z</time></trkpt>
</trkseg>
</trk>
<trk>
<name>lsrsr30</name>
<cmt>r</cmt>
<desc>Seraing Chemin n°30 Rue du Haut Pré / Rue Guillaume d'Orange</desc>
<link href="https://chemins.be/seraing/chemin/30"/><trkseg>
<trkpt lat="50.601804" lon="5.532183"><time>2026-05-03T06:40:44Z</time></trkpt>
<trkpt lat="50.601605" lon="5.529867"><time>2026-05-03T06:50:44Z</time></trkpt>
<trkpt lat="50.601587" lon="5.528923"><time>2026-05-03T07:00:44Z</time></trkpt>
<trkpt lat="50.602597" lon="5.528784"><time>2026-05-03T07:10:44Z</time></trkpt>
</trkseg>
</trk>
<trk>
<name>lsrsr32</name>
<cmt>s</cmt>
<desc>Seraing Chemin n°32 </desc>
<link href="https://chemins.be/seraing/chemin/32"/><trkseg>
<trkpt lat="50.614700" lon="5.511180"><time>2026-05-03T06:40:44Z</time></trkpt>
<trkpt lat="50.614900" lon="5.511766"><time>2026-05-03T06:50:44Z</time></trkpt>
<trkpt lat="50.615381" lon="5.511602"><time>2026-05-03T07:00:44Z</time></trkpt>
</trkseg>
</trk>
<trk>
<name>lsrsr33</name>
<cmt>s</cmt>
<desc>Seraing Chemin n°33 </desc>
<link href="https://chemins.be/seraing/chemin/33"/><trkseg>
<trkpt lat="50.602907" lon="5.518019"><time>2026-05-03T06:40:44Z</time></trkpt>
<trkpt lat="50.602303" lon="5.519882"><time>2026-05-03T06:50:44Z</time></trkpt>
</trkseg>
</trk>
<trk>
<name>lsrsr35</name>
<cmt>v</cmt>
<desc>Seraing Chemin n°35 Rue Wathieu</desc>
<link href="https://chemins.be/seraing/chemin/35"/><trkseg>
<trkpt lat="50.598837" lon="5.512637"><time>2026-05-03T06:40:44Z</time></trkpt>
<trkpt lat="50.598650" lon="5.513145"><time>2026-05-03T06:50:44Z</time></trkpt>
<trkpt lat="50.598437" lon="5.513821"><time>2026-05-03T07:00:44Z</time></trkpt>
</trkseg></trk>
<trk>
<name>lsrsr35</name>
<cmt>r</cmt>
<desc>Seraing Chemin n°35 Rue Wathieu</desc>
<link href="https://chemins.be/seraing/chemin/35"/><trkseg>
<trkpt lat="50.598437" lon="5.513821"><time>2026-05-03T07:00:44Z</time></trkpt>
<trkpt lat="50.598178" lon="5.514407"><time>2026-05-03T07:10:44Z</time></trkpt>
<trkpt lat="50.598010" lon="5.514632"><time>2026-05-03T07:20:44Z</time></trkpt>
<trkpt lat="50.597731" lon="5.514333"><time>2026-05-03T07:30:44Z</time></trkpt>
<trkpt lat="50.597504" lon="5.514171"><time>2026-05-03T07:40:44Z</time></trkpt>
<trkpt lat="50.597120" lon="5.514210"><time>2026-05-03T07:50:44Z</time></trkpt>
<trkpt lat="50.596485" lon="5.514758"><time>2026-05-03T08:00:44Z</time></trkpt>
</trkseg></trk>
<trk>
<name>lsrsr35</name>
<cmt>d</cmt>
<desc>Seraing Chemin n°35 Rue Wathieu</desc>
<link href="https://chemins.be/seraing/chemin/35"/><trkseg>
<trkpt lat="50.596485" lon="5.514758"><time>2026-05-03T08:00:44Z</time></trkpt>
<trkpt lat="50.596199" lon="5.515044"><time>2026-05-03T08:10:44Z</time></trkpt>
</trkseg>
</trk>
<trk>
<name>lsrsr36</name>
<cmt>v</cmt>
<desc>Seraing Chemin n°36 </desc>
<link href="https://chemins.be/seraing/chemin/36"/><trkseg>
<trkpt lat="50.594037" lon="5.508667"><time>2026-05-03T06:40:44Z</time></trkpt>
<trkpt lat="50.594029" lon="5.508893"><time>2026-05-03T06:50:44Z</time></trkpt>
</trkseg></trk>
<trk>
<name>lsrsr36</name>
<cmt>s</cmt>
<desc>Seraing Chemin n°36 </desc>
<link href="https://chemins.be/seraing/chemin/36"/><trkseg>
<trkpt lat="50.594029" lon="5.508893"><time>2026-05-03T06:50:44Z</time></trkpt>
<trkpt lat="50.593917" lon="5.509980"><time>2026-05-03T07:00:44Z</time></trkpt>
<trkpt lat="50.593969" lon="5.510731"><time>2026-05-03T07:10:44Z</time></trkpt>
<trkpt lat="50.593411" lon="5.512093"><time>2026-05-03T07:20:44Z</time></trkpt>
</trkseg>
</trk>
<trk>
<name>lsrsr37</name>
<cmt>r</cmt>
<desc>Seraing Chemin n°37 Rue Lemonnier / Rue des Comtes d'Egmont et de Hornes / Rue de la Boverie</desc>
<link href="https://chemins.be/seraing/chemin/37"/><trkseg>
<trkpt lat="50.586441" lon="5.512905"><time>2026-05-03T06:40:44Z</time></trkpt>
<trkpt lat="50.586387" lon="5.511646"><time>2026-05-03T06:50:44Z</time></trkpt>
<trkpt lat="50.586237" lon="5.510309"><time>2026-05-03T07:00:44Z</time></trkpt>
<trkpt lat="50.585543" lon="5.508360"><time>2026-05-03T07:10:44Z</time></trkpt>
</trkseg></trk>
<trk>
<name>lsrsr37</name>
<cmt>s</cmt>
<desc>Seraing Chemin n°37 Rue Lemonnier / Rue des Comtes d'Egmont et de Hornes / Rue de la Boverie</desc>
<link href="https://chemins.be/seraing/chemin/37"/><trkseg>
<trkpt lat="50.585543" lon="5.508360"><time>2026-05-03T07:10:44Z</time></trkpt>
<trkpt lat="50.585595" lon="5.507913"><time>2026-05-03T07:20:44Z</time></trkpt>
<trkpt lat="50.586364" lon="5.506589"><time>2026-05-03T07:30:44Z</time></trkpt>
<trkpt lat="50.586653" lon="5.506368"><time>2026-05-03T07:40:44Z</time></trkpt>
</trkseg></trk>
<trk>
<name>lsrsr37</name>
<cmt>r</cmt>
<desc>Seraing Chemin n°37 Rue Lemonnier / Rue des Comtes d'Egmont et de Hornes / Rue de la Boverie</desc>
<link href="https://chemins.be/seraing/chemin/37"/><trkseg>
<trkpt lat="50.586653" lon="5.506368"><time>2026-05-03T07:40:44Z</time></trkpt>
<trkpt lat="50.587192" lon="5.505913"><time>2026-05-03T07:50:44Z</time></trkpt>
<trkpt lat="50.587985" lon="5.505674"><time>2026-05-03T08:00:44Z</time></trkpt>
<trkpt lat="50.590151" lon="5.505295"><time>2026-05-03T08:10:44Z</time></trkpt>
<trkpt lat="50.591722" lon="5.505424"><time>2026-05-03T08:20:44Z</time></trkpt>
<trkpt lat="50.591813" lon="5.504501"><time>2026-05-03T08:30:44Z</time></trkpt>
<trkpt lat="50.591959" lon="5.503900"><time>2026-05-03T08:40:44Z</time></trkpt>
<trkpt lat="50.591845" lon="5.503449"><time>2026-05-03T08:50:44Z</time></trkpt>
<trkpt lat="50.592582" lon="5.502267"><time>2026-05-03T09:00:44Z</time></trkpt>
</trkseg></trk>
<trk>
<name>lsrsr37</name>
<cmt>b</cmt>
<desc>Seraing Chemin n°37 Rue Lemonnier / Rue des Comtes d'Egmont et de Hornes / Rue de la Boverie</desc>
<link href="https://chemins.be/seraing/chemin/37"/><trkseg>
<trkpt lat="50.592582" lon="5.502267"><time>2026-05-03T09:00:44Z</time></trkpt>
<trkpt lat="50.592876" lon="5.501522"><time>2026-05-03T09:10:44Z</time></trkpt>
<trkpt lat="50.593260" lon="5.500517"><time>2026-05-03T09:20:44Z</time></trkpt>
</trkseg>
</trk>
<trk>
<name>lsrsr37bis</name>
<cmt>s</cmt>
<desc>Seraing Chemin n°37bis </desc>
<link href="https://chemins.be/seraing/chemin/37bis"/><trkseg>
<trkpt lat="50.590116" lon="5.505315"><time>2026-05-03T06:40:44Z</time></trkpt>
<trkpt lat="50.591250" lon="5.504771"><time>2026-05-03T06:50:44Z</time></trkpt>
<trkpt lat="50.591809" lon="5.504449"><time>2026-05-03T07:00:44Z</time></trkpt>
</trkseg>
</trk>
<trk>
<name>lsrsr38</name>
<cmt>r</cmt>
<desc>Seraing Chemin n°38 Rue Michael Servet</desc>
<link href="https://chemins.be/seraing/chemin/38"/><trkseg>
<trkpt lat="50.597634" lon="5.524455"><time>2026-05-03T06:40:44Z</time></trkpt>
<trkpt lat="50.598587" lon="5.526461"><time>2026-05-03T06:50:44Z</time></trkpt>
</trkseg>
</trk>
<trk>
<name>lsrsr4</name>
<cmt>s</cmt>
<desc>Seraing Chemin n°4 </desc>
<link href="https://chemins.be/seraing/chemin/4"/><trkseg>
<trkpt lat="50.601144" lon="5.526960"><time>2026-05-03T06:40:44Z</time></trkpt>
<trkpt lat="50.602315" lon="5.526588"><time>2026-05-03T06:50:44Z</time></trkpt>
<trkpt lat="50.602614" lon="5.528784"><time>2026-05-03T07:00:44Z</time></trkpt>
</trkseg></trk>
<trk>
<name>lsrsr4</name>
<cmt>r</cmt>
<desc>Seraing Chemin n°4 </desc>
<link href="https://chemins.be/seraing/chemin/4"/><trkseg>
<trkpt lat="50.602614" lon="5.528784"><time>2026-05-03T07:00:44Z</time></trkpt>
<trkpt lat="50.603438" lon="5.528700"><time>2026-05-03T07:10:44Z</time></trkpt>
<trkpt lat="50.604357" lon="5.528698"><time>2026-05-03T07:20:44Z</time></trkpt>
</trkseg></trk>
<trk>
<name>lsrsr4</name>
<cmt>s</cmt>
<desc>Seraing Chemin n°4 </desc>
<link href="https://chemins.be/seraing/chemin/4"/><trkseg>
<trkpt lat="50.604357" lon="5.528698"><time>2026-05-03T07:20:44Z</time></trkpt>
<trkpt lat="50.605286" lon="5.528666"><time>2026-05-03T07:30:44Z</time></trkpt>
<trkpt lat="50.605635" lon="5.529562"><time>2026-05-03T07:40:44Z</time></trkpt>
<trkpt lat="50.606257" lon="5.529834"><time>2026-05-03T07:50:44Z</time></trkpt>
<trkpt lat="50.606834" lon="5.530087"><time>2026-05-03T08:00:44Z</time></trkpt>
<trkpt lat="50.607447" lon="5.531589"><time>2026-05-03T08:10:44Z</time></trkpt>
<trkpt lat="50.607933" lon="5.532078"><time>2026-05-03T08:20:44Z</time></trkpt>
<trkpt lat="50.609132" lon="5.532432"><time>2026-05-03T08:30:44Z</time></trkpt>
</trkseg>
</trk>
<trk>
<name>lsrsr40</name>
<cmt>r</cmt>
<desc>Seraing Chemin n°40 Rue du Halage</desc>
<link href="https://chemins.be/seraing/chemin/40"/><trkseg>
<trkpt lat="50.614216" lon="5.508036"><time>2026-05-03T06:40:44Z</time></trkpt>
<trkpt lat="50.614682" lon="5.507471"><time>2026-05-03T06:50:44Z</time></trkpt>
</trkseg>
</trk>
<trk>
<name>lsrsr42</name>
<cmt>s</cmt>
<desc>Seraing Chemin n°42 </desc>
<link href="https://chemins.be/seraing/chemin/42"/><trkseg>
<trkpt lat="50.605789" lon="5.502237"><time>2026-05-03T06:40:44Z</time></trkpt>
<trkpt lat="50.603160" lon="5.503081"><time>2026-05-03T06:50:44Z</time></trkpt>
</trkseg>
</trk>
<trk>
<name>lsrsr43</name>
<cmt>s</cmt>
<desc>Seraing Sentier n°43 Allée du Fond d'Estienne / Sentier des Ânes / Avenue de Macar</desc>
<link href="https://chemins.be/seraing/sentier/43"/><trkseg>
<trkpt lat="50.597002" lon="5.504190"><time>2026-05-03T06:40:44Z</time></trkpt>
<trkpt lat="50.596209" lon="5.501914"><time>2026-05-03T06:50:44Z</time></trkpt>
<trkpt lat="50.596225" lon="5.500387"><time>2026-05-03T07:00:44Z</time></trkpt>
<trkpt lat="50.594261" lon="5.493793"><time>2026-05-03T07:10:44Z</time></trkpt>
<trkpt lat="50.594075" lon="5.492809"><time>2026-05-03T07:20:44Z</time></trkpt>
<trkpt lat="50.593588" lon="5.492188"><time>2026-05-03T07:30:44Z</time></trkpt>
</trkseg></trk>
<trk>
<name>lsrsr43</name>
<cmt>r</cmt>
<desc>Seraing Sentier n°43 Allée du Fond d'Estienne / Sentier des Ânes / Avenue de Macar</desc>
<link href="https://chemins.be/seraing/sentier/43"/><trkseg>
<trkpt lat="50.593588" lon="5.492188"><time>2026-05-03T07:30:44Z</time></trkpt>
<trkpt lat="50.592524" lon="5.490711"><time>2026-05-03T07:40:44Z</time></trkpt>
</trkseg></trk>
<trk>
<name>lsrsr43</name>
<cmt>v</cmt>
<desc>Seraing Sentier n°43 Allée du Fond d'Estienne / Sentier des Ânes / Avenue de Macar</desc>
<link href="https://chemins.be/seraing/sentier/43"/><trkseg>
<trkpt lat="50.592524" lon="5.490711"><time>2026-05-03T07:40:44Z</time></trkpt>
<trkpt lat="50.592256" lon="5.490319"><time>2026-05-03T07:50:44Z</time></trkpt>
<trkpt lat="50.590654" lon="5.488347"><time>2026-05-03T08:00:44Z</time></trkpt>
<trkpt lat="50.590620" lon="5.487877"><time>2026-05-03T08:10:44Z</time></trkpt>
<trkpt lat="50.590854" lon="5.487382"><time>2026-05-03T08:20:44Z</time></trkpt>
<trkpt lat="50.590891" lon="5.487057"><time>2026-05-03T08:30:44Z</time></trkpt>
<trkpt lat="50.590787" lon="5.486103"><time>2026-05-03T08:40:44Z</time></trkpt>
<trkpt lat="50.590878" lon="5.484648"><time>2026-05-03T08:50:44Z</time></trkpt>
<trkpt lat="50.590767" lon="5.484104"><time>2026-05-03T09:00:44Z</time></trkpt>
</trkseg></trk>
<trk>
<name>lsrsr43</name>
<cmt>r</cmt>
<desc>Seraing Sentier n°43 Allée du Fond d'Estienne / Sentier des Ânes / Avenue de Macar</desc>
<link href="https://chemins.be/seraing/sentier/43"/><trkseg>
<trkpt lat="50.590767" lon="5.484104"><time>2026-05-03T09:00:44Z</time></trkpt>
<trkpt lat="50.590671" lon="5.483538"><time>2026-05-03T09:10:44Z</time></trkpt>
<trkpt lat="50.590698" lon="5.483332"><time>2026-05-03T09:20:44Z</time></trkpt>
<trkpt lat="50.590640" lon="5.483184"><time>2026-05-03T09:30:44Z</time></trkpt>
</trkseg></trk>
<trk>
<name>lsrsr43</name>
<cmt>d</cmt>
<desc>Seraing Sentier n°43 Allée du Fond d'Estienne / Sentier des Ânes / Avenue de Macar</desc>
<link href="https://chemins.be/seraing/sentier/43"/><trkseg>
<trkpt lat="50.590640" lon="5.483184"><time>2026-05-03T09:30:44Z</time></trkpt>
<trkpt lat="50.590847" lon="5.482293"><time>2026-05-03T09:40:44Z</time></trkpt>
</trkseg></trk>
<trk>
<name>lsrsr43</name>
<cmt>s</cmt>
<desc>Seraing Sentier n°43 Allée du Fond d'Estienne / Sentier des Ânes / Avenue de Macar</desc>
<link href="https://chemins.be/seraing/sentier/43"/><trkseg>
<trkpt lat="50.590847" lon="5.482293"><time>2026-05-03T09:40:44Z</time></trkpt>
<trkpt lat="50.590967" lon="5.481774"><time>2026-05-03T09:50:44Z</time></trkpt>
<trkpt lat="50.590844" lon="5.481216"><time>2026-05-03T10:00:44Z</time></trkpt>
<trkpt lat="50.590972" lon="5.480722"><time>2026-05-03T10:10:44Z</time></trkpt>
</trkseg>
</trk>
<trk>
<name>lsrsr46</name>
<cmt>d</cmt>
<desc>Seraing Chemin n°46 Rue du Maquis</desc>
<link href="https://chemins.be/seraing/chemin/46"/><trkseg>
<trkpt lat="50.597241" lon="5.520998"><time>2026-05-03T06:40:44Z</time></trkpt>
<trkpt lat="50.597281" lon="5.520558"><time>2026-05-03T06:50:44Z</time></trkpt>
</trkseg></trk>
<trk>
<name>lsrsr46</name>
<cmt>r</cmt>
<desc>Seraing Chemin n°46 Rue du Maquis</desc>
<link href="https://chemins.be/seraing/chemin/46"/><trkseg>
<trkpt lat="50.597281" lon="5.520558"><time>2026-05-03T06:50:44Z</time></trkpt>
<trkpt lat="50.597264" lon="5.519741"><time>2026-05-03T07:00:44Z</time></trkpt>
<trkpt lat="50.597246" lon="5.518082"><time>2026-05-03T07:10:44Z</time></trkpt>
<trkpt lat="50.596896" lon="5.516687"><time>2026-05-03T07:20:44Z</time></trkpt>
</trkseg></trk>
<trk>
<name>lsrsr46</name>
<cmt>s</cmt>
<desc>Seraing Chemin n°46 Rue du Maquis</desc>
<link href="https://chemins.be/seraing/chemin/46"/><trkseg>
<trkpt lat="50.596896" lon="5.516687"><time>2026-05-03T07:20:44Z</time></trkpt>
<trkpt lat="50.597879" lon="5.515991"><time>2026-05-03T07:30:44Z</time></trkpt>
<trkpt lat="50.597872" lon="5.515912"><time>2026-05-03T07:40:44Z</time></trkpt>
<trkpt lat="50.598219" lon="5.514410"><time>2026-05-03T07:50:44Z</time></trkpt>
</trkseg>
</trk>
<trk>
<name>lsrsr5</name>
<cmt>r</cmt>
<desc>Seraing Chemin n°5 Rue de la Baume / Rue de la Glacière</desc>
<link href="https://chemins.be/seraing/chemin/5"/><trkseg>
<trkpt lat="50.599036" lon="5.511289"><time>2026-05-03T06:40:44Z</time></trkpt>
<trkpt lat="50.601268" lon="5.510688"><time>2026-05-03T06:50:44Z</time></trkpt>
<trkpt lat="50.603702" lon="5.510634"><time>2026-05-03T07:00:44Z</time></trkpt>
<trkpt lat="50.604382" lon="5.510688"><time>2026-05-03T07:10:44Z</time></trkpt>
<trkpt lat="50.606116" lon="5.511789"><time>2026-05-03T07:20:44Z</time></trkpt>
<trkpt lat="50.608233" lon="5.511628"><time>2026-05-03T07:30:44Z</time></trkpt>
<trkpt lat="50.608598" lon="5.511551"><time>2026-05-03T07:40:44Z</time></trkpt>
</trkseg></trk>
<trk>
<name>lsrsr5</name>
<cmt>s</cmt>
<desc>Seraing Chemin n°5 Rue de la Baume / Rue de la Glacière</desc>
<link href="https://chemins.be/seraing/chemin/5"/><trkseg>
<trkpt lat="50.608598" lon="5.511551"><time>2026-05-03T07:40:44Z</time></trkpt>
<trkpt lat="50.608918" lon="5.511565"><time>2026-05-03T07:50:44Z</time></trkpt>
</trkseg></trk>
<trk>
<name>lsrsr5</name>
<cmt>r</cmt>
<desc>Seraing Chemin n°5 Rue de la Baume / Rue de la Glacière</desc>
<link href="https://chemins.be/seraing/chemin/5"/><trkseg>
<trkpt lat="50.608918" lon="5.511565"><time>2026-05-03T07:50:44Z</time></trkpt>
<trkpt lat="50.609602" lon="5.511446"><time>2026-05-03T08:00:44Z</time></trkpt>
</trkseg>
</trk>
<trk>
<name>lsrsr50</name>
<cmt>r</cmt>
<desc>Seraing Sentier n°50 Rue du Marais</desc>
<link href="https://chemins.be/seraing/sentier/50"/><trkseg>
<trkpt lat="50.611641" lon="5.504828"><time>2026-05-03T06:40:44Z</time></trkpt>
<trkpt lat="50.611059" lon="5.505697"><time>2026-05-03T06:50:44Z</time></trkpt>
<trkpt lat="50.610598" lon="5.506379"><time>2026-05-03T07:00:44Z</time></trkpt>
<trkpt lat="50.610295" lon="5.506838"><time>2026-05-03T07:10:44Z</time></trkpt>
<trkpt lat="50.609119" lon="5.507439"><time>2026-05-03T07:20:44Z</time></trkpt>
</trkseg>
</trk>
<trk>
<name>lsrsr51</name>
<cmt>s</cmt>
<desc>Seraing Sentier n°51 </desc>
<link href="https://chemins.be/seraing/sentier/51"/><trkseg>
<trkpt lat="50.610189" lon="5.516789"><time>2026-05-03T06:40:44Z</time></trkpt>
<trkpt lat="50.610536" lon="5.518538"><time>2026-05-03T06:50:44Z</time></trkpt>
<trkpt lat="50.610379" lon="5.525887"><time>2026-05-03T07:00:44Z</time></trkpt>
<trkpt lat="50.609426" lon="5.529771"><time>2026-05-03T07:10:44Z</time></trkpt>
<trkpt lat="50.608764" lon="5.531289"><time>2026-05-03T07:20:44Z</time></trkpt>
<trkpt lat="50.608836" lon="5.531525"><time>2026-05-03T07:30:44Z</time></trkpt>
<trkpt lat="50.608315" lon="5.533065"><time>2026-05-03T07:40:44Z</time></trkpt>
</trkseg>
</trk>
<trk>
<name>lsrsr52</name>
<cmt>s</cmt>
<desc>Seraing Sentier n°52 </desc>
<link href="https://chemins.be/seraing/sentier/52"/><trkseg>
<trkpt lat="50.607452" lon="5.526016"><time>2026-05-03T06:40:44Z</time></trkpt>
<trkpt lat="50.610134" lon="5.526863"><time>2026-05-03T06:50:44Z</time></trkpt>
<trkpt lat="50.610379" lon="5.525984"><time>2026-05-03T07:00:44Z</time></trkpt>
<trkpt lat="50.610407" lon="5.524889"><time>2026-05-03T07:10:44Z</time></trkpt>
<trkpt lat="50.612143" lon="5.525683"><time>2026-05-03T07:20:44Z</time></trkpt>
</trkseg>
</trk>
<trk>
<name>lsrsr53</name>
<cmt>d</cmt>
<desc>Seraing Sentier n°53 </desc>
<link href="https://chemins.be/seraing/sentier/53"/><trkseg>
<trkpt lat="50.603117" lon="5.528777"><time>2026-05-03T06:40:44Z</time></trkpt>
<trkpt lat="50.603144" lon="5.529871"><time>2026-05-03T06:50:44Z</time></trkpt>
</trkseg></trk>
<trk>
<name>lsrsr53</name>
<cmt>s</cmt>
<desc>Seraing Sentier n°53 </desc>
<link href="https://chemins.be/seraing/sentier/53"/><trkseg>
<trkpt lat="50.603144" lon="5.529871"><time>2026-05-03T06:50:44Z</time></trkpt>
<trkpt lat="50.603258" lon="5.531752"><time>2026-05-03T07:00:44Z</time></trkpt>
<trkpt lat="50.603010" lon="5.531970"><time>2026-05-03T07:10:44Z</time></trkpt>
<trkpt lat="50.602983" lon="5.532145"><time>2026-05-03T07:20:44Z</time></trkpt>
</trkseg>
</trk>
<trk>
<name>lsrsr54</name>
<cmt>q</cmt>
<desc>Seraing Sentier n°54 Rue Michel Servet</desc>
<link href="https://chemins.be/seraing/sentier/54"/><trkseg>
<trkpt lat="50.601686" lon="5.530972"><time>2026-05-03T06:40:44Z</time></trkpt>
<trkpt lat="50.600490" lon="5.529720"><time>2026-05-03T06:50:44Z</time></trkpt>
</trkseg></trk>
<trk>
<name>lsrsr54</name>
<cmt>s</cmt>
<desc>Seraing Sentier n°54 Rue Michel Servet</desc>
<link href="https://chemins.be/seraing/sentier/54"/><trkseg>
<trkpt lat="50.600490" lon="5.529720"><time>2026-05-03T06:50:44Z</time></trkpt>
<trkpt lat="50.600047" lon="5.529255"><time>2026-05-03T07:00:44Z</time></trkpt>
<trkpt lat="50.599893" lon="5.528372"><time>2026-05-03T07:10:44Z</time></trkpt>
<trkpt lat="50.599564" lon="5.527782"><time>2026-05-03T07:20:44Z</time></trkpt>
<trkpt lat="50.599129" lon="5.527094"><time>2026-05-03T07:30:44Z</time></trkpt>
</trkseg></trk>
<trk>
<name>lsrsr54</name>
<cmt>r</cmt>
<desc>Seraing Sentier n°54 Rue Michel Servet</desc>
<link href="https://chemins.be/seraing/sentier/54"/><trkseg>
<trkpt lat="50.599129" lon="5.527094"><time>2026-05-03T07:30:44Z</time></trkpt>
<trkpt lat="50.598934" lon="5.526759"><time>2026-05-03T07:40:44Z</time></trkpt>
<trkpt lat="50.598866" lon="5.526716"><time>2026-05-03T07:50:44Z</time></trkpt>
<trkpt lat="50.598597" lon="5.526474"><time>2026-05-03T08:00:44Z</time></trkpt>
</trkseg>
</trk>
<trk>
<name>lsrsr55</name>
<cmt>v</cmt>
<desc>Seraing Sentier n°55 Ruelle des Ânes / Rue Strivay</desc>
<link href="https://chemins.be/seraing/sentier/55"/><trkseg>
<trkpt lat="50.603140" lon="5.515040"><time>2026-05-03T06:40:44Z</time></trkpt>
<trkpt lat="50.602960" lon="5.516273"><time>2026-05-03T06:50:44Z</time></trkpt>
</trkseg></trk>
<trk>
<name>lsrsr55</name>
<cmt>r</cmt>
<desc>Seraing Sentier n°55 Ruelle des Ânes / Rue Strivay</desc>
<link href="https://chemins.be/seraing/sentier/55"/><trkseg>
<trkpt lat="50.602960" lon="5.516273"><time>2026-05-03T06:50:44Z</time></trkpt>
<trkpt lat="50.603306" lon="5.516549"><time>2026-05-03T07:00:44Z</time></trkpt>
</trkseg></trk>
<trk>
<name>lsrsr55</name>
<cmt>s</cmt>
<desc>Seraing Sentier n°55 Ruelle des Ânes / Rue Strivay</desc>
<link href="https://chemins.be/seraing/sentier/55"/><trkseg>
<trkpt lat="50.603306" lon="5.516549"><time>2026-05-03T07:00:44Z</time></trkpt>
<trkpt lat="50.603472" lon="5.517039"><time>2026-05-03T07:10:44Z</time></trkpt>
<trkpt lat="50.604216" lon="5.517665"><time>2026-05-03T07:20:44Z</time></trkpt>
<trkpt lat="50.604278" lon="5.517493"><time>2026-05-03T07:30:44Z</time></trkpt>
<trkpt lat="50.604647" lon="5.517451"><time>2026-05-03T07:40:44Z</time></trkpt>
</trkseg></trk>
<trk>
<name>lsrsr55</name>
<cmt>r</cmt>
<desc>Seraing Sentier n°55 Ruelle des Ânes / Rue Strivay</desc>
<link href="https://chemins.be/seraing/sentier/55"/><trkseg>
<trkpt lat="50.604647" lon="5.517451"><time>2026-05-03T07:40:44Z</time></trkpt>
<trkpt lat="50.605340" lon="5.517994"><time>2026-05-03T07:50:44Z</time></trkpt>
</trkseg>
</trk>
<trk>
<name>lsrsr56</name>
<cmt>r</cmt>
<desc>Seraing Sentier n°56 Rue Mava</desc>
<link href="https://chemins.be/seraing/sentier/56"/><trkseg>
<trkpt lat="50.604094" lon="5.518806"><time>2026-05-03T06:40:44Z</time></trkpt>
<trkpt lat="50.603068" lon="5.520369"><time>2026-05-03T06:50:44Z</time></trkpt>
</trkseg>
</trk>
<trk>
<name>lsrsr57</name>
<cmt>s</cmt>
<desc>Seraing Sentier n°57 Pasay du Tige d'elle Trok.</desc>
<link href="https://chemins.be/seraing/sentier/57"/><trkseg>
<trkpt lat="50.602983" lon="5.496252"><time>2026-05-03T06:40:44Z</time></trkpt>
<trkpt lat="50.601849" lon="5.496997"><time>2026-05-03T06:50:44Z</time></trkpt>
<trkpt lat="50.601144" lon="5.497461"><time>2026-05-03T07:00:44Z</time></trkpt>
<trkpt lat="50.600268" lon="5.498448"><time>2026-05-03T07:10:44Z</time></trkpt>
<trkpt lat="50.599333" lon="5.498527"><time>2026-05-03T07:20:44Z</time></trkpt>
<trkpt lat="50.598992" lon="5.498005"><time>2026-05-03T07:30:44Z</time></trkpt>
<trkpt lat="50.598225" lon="5.499971"><time>2026-05-03T07:40:44Z</time></trkpt>
<trkpt lat="50.596218" lon="5.500365"><time>2026-05-03T07:50:44Z</time></trkpt>
</trkseg>
</trk>
<trk>
<name>lsrsr58</name>
<cmt>r</cmt>
<desc>Seraing Sentier n°58 </desc>
<link href="https://chemins.be/seraing/sentier/58"/><trkseg>
<trkpt lat="50.597208" lon="5.492477"><time>2026-05-03T06:40:44Z</time></trkpt>
<trkpt lat="50.597939" lon="5.495616"><time>2026-05-03T06:50:44Z</time></trkpt>
</trkseg></trk>
<trk>
<name>lsrsr58</name>
<cmt>s</cmt>
<desc>Seraing Sentier n°58 </desc>
<link href="https://chemins.be/seraing/sentier/58"/><trkseg>
<trkpt lat="50.597939" lon="5.495616"><time>2026-05-03T06:50:44Z</time></trkpt>
<trkpt lat="50.598339" lon="5.497741"><time>2026-05-03T07:00:44Z</time></trkpt>
<trkpt lat="50.598995" lon="5.498030"><time>2026-05-03T07:10:44Z</time></trkpt>
</trkseg>
</trk>
<trk>
<name>lsrsr59</name>
<cmt>s</cmt>
<desc>Seraing Sentier n°59 pasay du Val Saint-Lambert</desc>
<link href="https://chemins.be/seraing/sentier/59"/><trkseg>
<trkpt lat="50.595145" lon="5.482542"><time>2026-05-03T06:40:44Z</time></trkpt>
<trkpt lat="50.594471" lon="5.483775"><time>2026-05-03T06:50:44Z</time></trkpt>
<trkpt lat="50.594552" lon="5.483879"><time>2026-05-03T07:00:44Z</time></trkpt>
<trkpt lat="50.594190" lon="5.485275"><time>2026-05-03T07:10:44Z</time></trkpt>
<trkpt lat="50.594198" lon="5.486396"><time>2026-05-03T07:20:44Z</time></trkpt>
</trkseg></trk>
<trk>
<name>lsrsr59</name>
<cmt>d</cmt>
<desc>Seraing Sentier n°59 pasay du Val Saint-Lambert</desc>
<link href="https://chemins.be/seraing/sentier/59"/><trkseg>
<trkpt lat="50.594198" lon="5.486396"><time>2026-05-03T07:20:44Z</time></trkpt>
<trkpt lat="50.594216" lon="5.488868"><time>2026-05-03T07:30:44Z</time></trkpt>
</trkseg></trk>
<trk>
<name>lsrsr59</name>
<cmt>s</cmt>
<desc>Seraing Sentier n°59 pasay du Val Saint-Lambert</desc>
<link href="https://chemins.be/seraing/sentier/59"/><trkseg>
<trkpt lat="50.594216" lon="5.488868"><time>2026-05-03T07:30:44Z</time></trkpt>
<trkpt lat="50.594248" lon="5.492065"><time>2026-05-03T07:40:44Z</time></trkpt>
<trkpt lat="50.594048" lon="5.492673"><time>2026-05-03T07:50:44Z</time></trkpt>
</trkseg>
</trk>
<trk>
<name>lsrsr6</name>
<cmt>r</cmt>
<desc>Seraing Chemin n°6 Rue du Halage / Rue de la Province / Rue Ramoux</desc>
<link href="https://chemins.be/seraing/chemin/6"/><trkseg>
<trkpt lat="50.615022" lon="5.510818"><time>2026-05-03T06:40:44Z</time></trkpt>
<trkpt lat="50.614189" lon="5.507982"><time>2026-05-03T06:50:44Z</time></trkpt>
<trkpt lat="50.613810" lon="5.507925"><time>2026-05-03T07:00:44Z</time></trkpt>
<trkpt lat="50.612545" lon="5.505720"><time>2026-05-03T07:10:44Z</time></trkpt>
<trkpt lat="50.610298" lon="5.503589"><time>2026-05-03T07:20:44Z</time></trkpt>
<trkpt lat="50.609091" lon="5.504526"><time>2026-05-03T07:30:44Z</time></trkpt>
<trkpt lat="50.608469" lon="5.504798"><time>2026-05-03T07:40:44Z</time></trkpt>
</trkseg>
</trk>
<trk>
<name>lsrsr60</name>
<cmt>s</cmt>
<desc>Seraing Sentier n°60 </desc>
<link href="https://chemins.be/seraing/sentier/60"/><trkseg>
<trkpt lat="50.584342" lon="5.496445"><time>2026-05-03T06:40:44Z</time></trkpt>
<trkpt lat="50.582698" lon="5.497504"><time>2026-05-03T06:50:44Z</time></trkpt>
<trkpt lat="50.582562" lon="5.497597"><time>2026-05-03T07:00:44Z</time></trkpt>
<trkpt lat="50.577232" lon="5.490877"><time>2026-05-03T07:10:44Z</time></trkpt>
</trkseg></trk>
<trk>
<name>lsrsr60</name>
<cmt>d</cmt>
<desc>Seraing Sentier n°60 </desc>
<link href="https://chemins.be/seraing/sentier/60"/><trkseg>
<trkpt lat="50.577232" lon="5.490877"><time>2026-05-03T07:10:44Z</time></trkpt>
<trkpt lat="50.571789" lon="5.484155"><time>2026-05-03T07:20:44Z</time></trkpt>
</trkseg>
</trk>
<trk>
<name>lsrsr62</name>
<cmt>s</cmt>
<desc>Seraing Sentier n°62 </desc>
<link href="https://chemins.be/seraing/sentier/62"/><trkseg>
<trkpt lat="50.612814" lon="5.506170"><time>2026-05-03T06:40:44Z</time></trkpt>
<trkpt lat="50.613117" lon="5.505659"><time>2026-05-03T06:50:44Z</time></trkpt>
</trkseg>
</trk>
<trk>
<name>lsrsr64</name>
<cmt>r</cmt>
<desc>Seraing Sentier n°64 Rue de la Fontaine</desc>
<link href="https://chemins.be/seraing/sentier/64"/><trkseg>
<trkpt lat="50.601160" lon="5.526981"><time>2026-05-03T06:40:44Z</time></trkpt>
<trkpt lat="50.601607" lon="5.528920"><time>2026-05-03T06:50:44Z</time></trkpt>
</trkseg>
</trk>
<trk>
<name>lsrsr66</name>
<cmt>s</cmt>
<desc>Seraing Sentier n°66 </desc>
<link href="https://chemins.be/seraing/sentier/66"/><trkseg>
<trkpt lat="50.596199" lon="5.515004"><time>2026-05-03T06:40:44Z</time></trkpt>
<trkpt lat="50.595758" lon="5.515444"><time>2026-05-03T06:50:44Z</time></trkpt>
<trkpt lat="50.595624" lon="5.515405"><time>2026-05-03T07:00:44Z</time></trkpt>
<trkpt lat="50.595272" lon="5.515630"><time>2026-05-03T07:10:44Z</time></trkpt>
<trkpt lat="50.594973" lon="5.515405"><time>2026-05-03T07:20:44Z</time></trkpt>
<trkpt lat="50.594192" lon="5.515777"><time>2026-05-03T07:30:44Z</time></trkpt>
</trkseg>
</trk>
<trk>
<name>lsrsr67</name>
<cmt>s</cmt>
<desc>Seraing Sentier n°67 Rue du Fort / Rue Michel Servet</desc>
<link href="https://chemins.be/seraing/sentier/67"/><trkseg>
<trkpt lat="50.593118" lon="5.524187"><time>2026-05-03T06:40:44Z</time></trkpt>
<trkpt lat="50.593466" lon="5.524879"><time>2026-05-03T06:50:44Z</time></trkpt>
<trkpt lat="50.593859" lon="5.525085"><time>2026-05-03T07:00:44Z</time></trkpt>
<trkpt lat="50.594510" lon="5.526192"><time>2026-05-03T07:10:44Z</time></trkpt>
<trkpt lat="50.595565" lon="5.526818"><time>2026-05-03T07:20:44Z</time></trkpt>
</trkseg></trk>
<trk>
<name>lsrsr67</name>
<cmt>r</cmt>
<desc>Seraing Sentier n°67 Rue du Fort / Rue Michel Servet</desc>
<link href="https://chemins.be/seraing/sentier/67"/><trkseg>
<trkpt lat="50.595565" lon="5.526818"><time>2026-05-03T07:20:44Z</time></trkpt>
<trkpt lat="50.596390" lon="5.526861"><time>2026-05-03T07:30:44Z</time></trkpt>
</trkseg></trk>
<trk>
<name>lsrsr67</name>
<cmt>d</cmt>
<desc>Seraing Sentier n°67 Rue du Fort / Rue Michel Servet</desc>
<link href="https://chemins.be/seraing/sentier/67"/><trkseg>
<trkpt lat="50.596390" lon="5.526861"><time>2026-05-03T07:30:44Z</time></trkpt>
<trkpt lat="50.596805" lon="5.527185"><time>2026-05-03T07:40:44Z</time></trkpt>
</trkseg></trk>
<trk>
<name>lsrsr67</name>
<cmt>s</cmt>
<desc>Seraing Sentier n°67 Rue du Fort / Rue Michel Servet</desc>
<link href="https://chemins.be/seraing/sentier/67"/><trkseg>
<trkpt lat="50.596805" lon="5.527185"><time>2026-05-03T07:40:44Z</time></trkpt>
<trkpt lat="50.597548" lon="5.527031"><time>2026-05-03T07:50:44Z</time></trkpt>
</trkseg></trk>
<trk>
<name>lsrsr67</name>
<cmt>q</cmt>
<desc>Seraing Sentier n°67 Rue du Fort / Rue Michel Servet</desc>
<link href="https://chemins.be/seraing/sentier/67"/><trkseg>
<trkpt lat="50.597548" lon="5.527031"><time>2026-05-03T07:50:44Z</time></trkpt>
<trkpt lat="50.597724" lon="5.526985"><time>2026-05-03T08:00:44Z</time></trkpt>
</trkseg></trk>
<trk>
<name>lsrsr67</name>
<cmt>v</cmt>
<desc>Seraing Sentier n°67 Rue du Fort / Rue Michel Servet</desc>
<link href="https://chemins.be/seraing/sentier/67"/><trkseg>
<trkpt lat="50.597724" lon="5.526985"><time>2026-05-03T08:00:44Z</time></trkpt>
<trkpt lat="50.598034" lon="5.526809"><time>2026-05-03T08:10:44Z</time></trkpt>
<trkpt lat="50.598581" lon="5.526494"><time>2026-05-03T08:20:44Z</time></trkpt>
</trkseg>
</trk>
<trk>
<name>lsrsr68</name>
<cmt>r</cmt>
<desc>Seraing Chemin n°68 Rue de la Jeunesse / Rue du Cimetière / Rue de la Colline</desc>
<link href="https://chemins.be/seraing/chemin/68"/><trkseg>
<trkpt lat="50.587486" lon="5.502548"><time>2026-05-03T06:40:44Z</time></trkpt>
<trkpt lat="50.589525" lon="5.505481"><time>2026-05-03T06:50:44Z</time></trkpt>
</trkseg></trk>
<trk>
<name>lsrsr68</name>
<cmt>s</cmt>
<desc>Seraing Chemin n°68 Rue de la Jeunesse / Rue du Cimetière / Rue de la Colline</desc>
<link href="https://chemins.be/seraing/chemin/68"/><trkseg>
<trkpt lat="50.589525" lon="5.505481"><time>2026-05-03T06:50:44Z</time></trkpt>
<trkpt lat="50.590415" lon="5.507017"><time>2026-05-03T07:00:44Z</time></trkpt>
<trkpt lat="50.590442" lon="5.507496"><time>2026-05-03T07:10:44Z</time></trkpt>
<trkpt lat="50.590483" lon="5.508113"><time>2026-05-03T07:20:44Z</time></trkpt>
</trkseg></trk>
<trk>
<name>lsrsr68</name>
<cmt>r</cmt>
<desc>Seraing Chemin n°68 Rue de la Jeunesse / Rue du Cimetière / Rue de la Colline</desc>
<link href="https://chemins.be/seraing/chemin/68"/><trkseg>
<trkpt lat="50.590483" lon="5.508113"><time>2026-05-03T07:20:44Z</time></trkpt>
<trkpt lat="50.591169" lon="5.508463"><time>2026-05-03T07:30:44Z</time></trkpt>
<trkpt lat="50.591296" lon="5.508527"><time>2026-05-03T07:40:44Z</time></trkpt>
<trkpt lat="50.591423" lon="5.508249"><time>2026-05-03T07:50:44Z</time></trkpt>
<trkpt lat="50.591979" lon="5.508645"><time>2026-05-03T08:00:44Z</time></trkpt>
<trkpt lat="50.592324" lon="5.508688"><time>2026-05-03T08:10:44Z</time></trkpt>
</trkseg>
</trk>
<trk>
<name>lsrsr69</name>
<cmt>s</cmt>
<desc>Seraing Chemin n°69 </desc>
<link href="https://chemins.be/seraing/chemin/69"/><trkseg>
<trkpt lat="50.589019" lon="5.505463"><time>2026-05-03T06:40:44Z</time></trkpt>
<trkpt lat="50.588111" lon="5.504905"><time>2026-05-03T06:50:44Z</time></trkpt>
<trkpt lat="50.587203" lon="5.504705"><time>2026-05-03T07:00:44Z</time></trkpt>
<trkpt lat="50.586476" lon="5.503618"><time>2026-05-03T07:10:44Z</time></trkpt>
</trkseg>
</trk>
<trk>
<name>lsrsr7</name>
<cmt>s</cmt>
<desc>Seraing Chemin n°7 Rue des Trois Mêlées</desc>
<link href="https://chemins.be/seraing/chemin/7"/><trkseg>
<trkpt lat="50.605766" lon="5.501250"><time>2026-05-03T06:40:44Z</time></trkpt>
<trkpt lat="50.605920" lon="5.505527"><time>2026-05-03T06:50:44Z</time></trkpt>
<trkpt lat="50.606056" lon="5.507122"><time>2026-05-03T07:00:44Z</time></trkpt>
<trkpt lat="50.606170" lon="5.510291"><time>2026-05-03T07:10:44Z</time></trkpt>
</trkseg></trk>
<trk>
<name>lsrsr7</name>
<cmt>r</cmt>
<desc>Seraing Chemin n°7 Rue des Trois Mêlées</desc>
<link href="https://chemins.be/seraing/chemin/7"/><trkseg>
<trkpt lat="50.606170" lon="5.510291"><time>2026-05-03T07:10:44Z</time></trkpt>
<trkpt lat="50.606220" lon="5.511800"><time>2026-05-03T07:20:44Z</time></trkpt>
</trkseg>
</trk>
<trk>
<name>lsrsr70</name>
<cmt>r</cmt>
<desc>Seraing Sentier n°70 Rue de la Neuville</desc>
<link href="https://chemins.be/seraing/sentier/70"/><trkseg>
<trkpt lat="50.587358" lon="5.502361"><time>2026-05-03T06:40:44Z</time></trkpt>
<trkpt lat="50.585705" lon="5.501576"><time>2026-05-03T06:50:44Z</time></trkpt>
<trkpt lat="50.585189" lon="5.501331"><time>2026-05-03T07:00:44Z</time></trkpt>
<trkpt lat="50.584393" lon="5.500481"><time>2026-05-03T07:10:44Z</time></trkpt>
<trkpt lat="50.584012" lon="5.500309"><time>2026-05-03T07:20:44Z</time></trkpt>
<trkpt lat="50.583726" lon="5.500123"><time>2026-05-03T07:30:44Z</time></trkpt>
</trkseg></trk>
<trk>
<name>lsrsr70</name>
<cmt>s</cmt>
<desc>Seraing Sentier n°70 Rue de la Neuville</desc>
<link href="https://chemins.be/seraing/sentier/70"/><trkseg>
<trkpt lat="50.583726" lon="5.500123"><time>2026-05-03T07:30:44Z</time></trkpt>
<trkpt lat="50.582791" lon="5.498533"><time>2026-05-03T07:40:44Z</time></trkpt>
<trkpt lat="50.582606" lon="5.497571"><time>2026-05-03T07:50:44Z</time></trkpt>
</trkseg>
</trk>
<trk>
<name>lsrsr9</name>
<cmt>v</cmt>
<desc>Seraing Chemin n°9 Voie de Liège</desc>
<link href="https://chemins.be/seraing/chemin/9"/><trkseg>
<trkpt lat="50.562423" lon="5.539916"><time>2026-05-03T06:40:44Z</time></trkpt>
<trkpt lat="50.562215" lon="5.539563"><time>2026-05-03T06:50:44Z</time></trkpt>
<trkpt lat="50.561694" lon="5.538919"><time>2026-05-03T07:00:44Z</time></trkpt>
<trkpt lat="50.561223" lon="5.538218"><time>2026-05-03T07:10:44Z</time></trkpt>
<trkpt lat="50.559858" lon="5.536759"><time>2026-05-03T07:20:44Z</time></trkpt>
<trkpt lat="50.559062" lon="5.535768"><time>2026-05-03T07:30:44Z</time></trkpt>
<trkpt lat="50.558151" lon="5.534856"><time>2026-05-03T07:40:44Z</time></trkpt>
<trkpt lat="50.558073" lon="5.534785"><time>2026-05-03T07:50:44Z</time></trkpt>
</trkseg></trk>
<trk>
<name>lsrsr9</name>
<cmt>s</cmt>
<desc>Seraing Chemin n°9 Voie de Liège</desc>
<link href="https://chemins.be/seraing/chemin/9"/><trkseg>
<trkpt lat="50.558073" lon="5.534785"><time>2026-05-03T07:50:44Z</time></trkpt>
<trkpt lat="50.557823" lon="5.534399"><time>2026-05-03T08:00:44Z</time></trkpt>
</trkseg></trk>
<trk>
<name>lsrsr9</name>
<cmt>d</cmt>
<desc>Seraing Chemin n°9 Voie de Liège</desc>
<link href="https://chemins.be/seraing/chemin/9"/><trkseg>
<trkpt lat="50.557823" lon="5.534399"><time>2026-05-03T08:00:44Z</time></trkpt>
<trkpt lat="50.557401" lon="5.533968"><time>2026-05-03T08:10:44Z</time></trkpt>
</trkseg>
</trk>
<trk>
<name>lsrsri1</name>
<cmt>v</cmt>
<desc>Seraing Sentier n°i1 </desc>
<link href="https://chemins.be/seraing/sentier/i1"/><trkseg>
<trkpt lat="50.607858" lon="5.499082"><time>2026-05-03T06:40:44Z</time></trkpt>
<trkpt lat="50.608851" lon="5.501423"><time>2026-05-03T06:50:44Z</time></trkpt>
<trkpt lat="50.608957" lon="5.501609"><time>2026-05-03T07:00:44Z</time></trkpt>
<trkpt lat="50.610147" lon="5.499391"><time>2026-05-03T07:10:44Z</time></trkpt>
<trkpt lat="50.610231" lon="5.499110"><time>2026-05-03T07:20:44Z</time></trkpt>
<trkpt lat="50.610316" lon="5.498731"><time>2026-05-03T07:30:44Z</time></trkpt>
<trkpt lat="50.610201" lon="5.498544"><time>2026-05-03T07:40:44Z</time></trkpt>
<trkpt lat="50.610119" lon="5.498613"><time>2026-05-03T07:50:44Z</time></trkpt>
</trkseg>
</trk>
<trk>
<name>lsrsri10</name>
<cmt>v</cmt>
<desc>Seraing Chemin n°i10 Chemin du Crucifix</desc>
<link href="https://chemins.be/seraing/chemin/i10"/><trkseg>
<trkpt lat="50.560139" lon="5.500340"><time>2026-05-03T06:40:44Z</time></trkpt>
<trkpt lat="50.559933" lon="5.500620"><time>2026-05-03T06:50:44Z</time></trkpt>
<trkpt lat="50.559287" lon="5.501929"><time>2026-05-03T07:00:44Z</time></trkpt>
<trkpt lat="50.560772" lon="5.508246"><time>2026-05-03T07:10:44Z</time></trkpt>
<trkpt lat="50.561908" lon="5.513453"><time>2026-05-03T07:20:44Z</time></trkpt>
</trkseg>
</trk>
<trk>
<name>lsrsri11</name>
<cmt>v</cmt>
<desc>Seraing Sentier n°i11 </desc>
<link href="https://chemins.be/seraing/sentier/i11"/><trkseg>
<trkpt lat="50.577103" lon="5.492119"><time>2026-05-03T06:40:44Z</time></trkpt>
<trkpt lat="50.577458" lon="5.493582"><time>2026-05-03T06:50:44Z</time></trkpt>
<trkpt lat="50.577699" lon="5.494745"><time>2026-05-03T07:00:44Z</time></trkpt>
<trkpt lat="50.577930" lon="5.495923"><time>2026-05-03T07:10:44Z</time></trkpt>
</trkseg>
</trk>
<trk>
<name>lsrsri12</name>
<cmt>v</cmt>
<desc>Seraing Chemin n°i12 Allée des Acacias</desc>
<link href="https://chemins.be/seraing/chemin/i12"/><trkseg>
<trkpt lat="50.572891" lon="5.506448"><time>2026-05-03T06:40:44Z</time></trkpt>
<trkpt lat="50.572559" lon="5.506468"><time>2026-05-03T06:50:44Z</time></trkpt>
<trkpt lat="50.571008" lon="5.506939"><time>2026-05-03T07:00:44Z</time></trkpt>
<trkpt lat="50.569565" lon="5.507314"><time>2026-05-03T07:10:44Z</time></trkpt>
<trkpt lat="50.569088" lon="5.507401"><time>2026-05-03T07:20:44Z</time></trkpt>
<trkpt lat="50.568428" lon="5.506807"><time>2026-05-03T07:30:44Z</time></trkpt>
<trkpt lat="50.567927" lon="5.506597"><time>2026-05-03T07:40:44Z</time></trkpt>
<trkpt lat="50.567210" lon="5.506396"><time>2026-05-03T07:50:44Z</time></trkpt>
<trkpt lat="50.565965" lon="5.506747"><time>2026-05-03T08:00:44Z</time></trkpt>
<trkpt lat="50.565205" lon="5.507251"><time>2026-05-03T08:10:44Z</time></trkpt>
<trkpt lat="50.564078" lon="5.507563"><time>2026-05-03T08:20:44Z</time></trkpt>
<trkpt lat="50.562397" lon="5.507401"><time>2026-05-03T08:30:44Z</time></trkpt>
<trkpt lat="50.560799" lon="5.508232"><time>2026-05-03T08:40:44Z</time></trkpt>
<trkpt lat="50.554608" lon="5.511446"><time>2026-05-03T08:50:44Z</time></trkpt>
</trkseg></trk>
<trk>
<name>lsrsri12</name>
<cmt>d</cmt>
<desc>Seraing Chemin n°i12 Allée des Acacias</desc>
<link href="https://chemins.be/seraing/chemin/i12"/><trkseg>
<trkpt lat="50.554608" lon="5.511446"><time>2026-05-03T08:50:44Z</time></trkpt>
<trkpt lat="50.552476" lon="5.512491"><time>2026-05-03T09:00:44Z</time></trkpt>
</trkseg>
</trk>
<trk>
<name>lsrsri13</name>
<cmt>v</cmt>
<desc>Seraing Chemin n°i13 Voie lente de la Marchandise d'Arras / Ravel Bois de la Marchandise</desc>
<link href="https://chemins.be/seraing/chemin/i13"/><trkseg>
<trkpt lat="50.593417" lon="5.520319"><time>2026-05-03T06:40:44Z</time></trkpt>
<trkpt lat="50.593036" lon="5.520606"><time>2026-05-03T06:50:44Z</time></trkpt>
<trkpt lat="50.592523" lon="5.520749"><time>2026-05-03T07:00:44Z</time></trkpt>
<trkpt lat="50.592403" lon="5.520972"><time>2026-05-03T07:10:44Z</time></trkpt>
<trkpt lat="50.591473" lon="5.521430"><time>2026-05-03T07:20:44Z</time></trkpt>
<trkpt lat="50.589074" lon="5.522032"><time>2026-05-03T07:30:44Z</time></trkpt>
<trkpt lat="50.582879" lon="5.523634"><time>2026-05-03T07:40:44Z</time></trkpt>
<trkpt lat="50.581053" lon="5.522346"><time>2026-05-03T07:50:44Z</time></trkpt>
<trkpt lat="50.579527" lon="5.521803"><time>2026-05-03T08:00:44Z</time></trkpt>
<trkpt lat="50.578274" lon="5.522175"><time>2026-05-03T08:10:44Z</time></trkpt>
<trkpt lat="50.577656" lon="5.522947"><time>2026-05-03T08:20:44Z</time></trkpt>
<trkpt lat="50.576012" lon="5.523162"><time>2026-05-03T08:30:44Z</time></trkpt>
<trkpt lat="50.573296" lon="5.524206"><time>2026-05-03T08:40:44Z</time></trkpt>
<trkpt lat="50.572535" lon="5.525540"><time>2026-05-03T08:50:44Z</time></trkpt>
</trkseg>
</trk>
<trk>
<name>lsrsri14</name>
<cmt>v</cmt>
<desc>Seraing Sentier n°i14 </desc>
<link href="https://chemins.be/seraing/sentier/i14"/><trkseg>
<trkpt lat="50.577247" lon="5.495115"><time>2026-05-03T06:40:44Z</time></trkpt>
<trkpt lat="50.577240" lon="5.495241"><time>2026-05-03T06:50:44Z</time></trkpt>
<trkpt lat="50.577217" lon="5.495576"><time>2026-05-03T07:00:44Z</time></trkpt>
<trkpt lat="50.577207" lon="5.495686"><time>2026-05-03T07:10:44Z</time></trkpt>
<trkpt lat="50.577187" lon="5.495696"><time>2026-05-03T07:20:44Z</time></trkpt>
<trkpt lat="50.577097" lon="5.495716"><time>2026-05-03T07:30:44Z</time></trkpt>
<trkpt lat="50.576957" lon="5.495756"><time>2026-05-03T07:40:44Z</time></trkpt>
<trkpt lat="50.576847" lon="5.495846"><time>2026-05-03T07:50:44Z</time></trkpt>
<trkpt lat="50.576787" lon="5.495926"><time>2026-05-03T08:00:44Z</time></trkpt>
<trkpt lat="50.576697" lon="5.496116"><time>2026-05-03T08:10:44Z</time></trkpt>
<trkpt lat="50.576657" lon="5.496466"><time>2026-05-03T08:20:44Z</time></trkpt>
<trkpt lat="50.576667" lon="5.496636"><time>2026-05-03T08:30:44Z</time></trkpt>
</trkseg>
</trk>
<trk>
<name>lsrsri15</name>
<cmt>v</cmt>
<desc>Seraing Sentier n°i15 </desc>
<link href="https://chemins.be/seraing/sentier/i15"/><trkseg>
<trkpt lat="50.588095" lon="5.496850"><time>2026-05-03T06:40:44Z</time></trkpt>
<trkpt lat="50.587954" lon="5.497551"><time>2026-05-03T06:50:44Z</time></trkpt>
<trkpt lat="50.587915" lon="5.497726"><time>2026-05-03T07:00:44Z</time></trkpt>
<trkpt lat="50.587772" lon="5.498364"><time>2026-05-03T07:10:44Z</time></trkpt>
</trkseg>
</trk>
<trk>
<name>lsrsri16</name>
<cmt>v</cmt>
<desc>Seraing Sentier n°i16 </desc>
<link href="https://chemins.be/seraing/sentier/i16"/><trkseg>
<trkpt lat="50.595411" lon="5.517430"><time>2026-05-03T06:40:44Z</time></trkpt>
<trkpt lat="50.594674" lon="5.517773"><time>2026-05-03T06:50:44Z</time></trkpt>
<trkpt lat="50.594556" lon="5.518065"><time>2026-05-03T07:00:44Z</time></trkpt>
<trkpt lat="50.594363" lon="5.518151"><time>2026-05-03T07:10:44Z</time></trkpt>
<trkpt lat="50.594216" lon="5.518139"><time>2026-05-03T07:20:44Z</time></trkpt>
<trkpt lat="50.593919" lon="5.518276"><time>2026-05-03T07:30:44Z</time></trkpt>
<trkpt lat="50.593815" lon="5.518334"><time>2026-05-03T07:40:44Z</time></trkpt>
<trkpt lat="50.593644" lon="5.517890"><time>2026-05-03T07:50:44Z</time></trkpt>
<trkpt lat="50.593381" lon="5.518072"><time>2026-05-03T08:00:44Z</time></trkpt>
<trkpt lat="50.593293" lon="5.518196"><time>2026-05-03T08:10:44Z</time></trkpt>
</trkseg>
</trk>
<trk>
<name>lsrsri17</name>
<cmt>v</cmt>
<desc>Seraing Chemin n°i17 </desc>
<link href="https://chemins.be/seraing/chemin/i17"/><trkseg>
<trkpt lat="50.596063" lon="5.521359"><time>2026-05-03T06:40:44Z</time></trkpt>
<trkpt lat="50.595948" lon="5.521434"><time>2026-05-03T06:50:44Z</time></trkpt>
<trkpt lat="50.595840" lon="5.521467"><time>2026-05-03T07:00:44Z</time></trkpt>
<trkpt lat="50.595762" lon="5.521478"><time>2026-05-03T07:10:44Z</time></trkpt>
<trkpt lat="50.595383" lon="5.521364"><time>2026-05-03T07:20:44Z</time></trkpt>
<trkpt lat="50.595313" lon="5.521336"><time>2026-05-03T07:30:44Z</time></trkpt>
</trkseg>
</trk>
<trk>
<name>lsrsri18</name>
<cmt>v</cmt>
<desc>Seraing Chemin n°i18 Drève de l'Évèché</desc>
<link href="https://chemins.be/seraing/chemin/i18"/><trkseg>
<trkpt lat="50.563469" lon="5.505334"><time>2026-05-03T06:40:44Z</time></trkpt>
<trkpt lat="50.562474" lon="5.501271"><time>2026-05-03T06:50:44Z</time></trkpt>
<trkpt lat="50.562192" lon="5.499853"><time>2026-05-03T07:00:44Z</time></trkpt>
<trkpt lat="50.563169" lon="5.498460"><time>2026-05-03T07:10:44Z</time></trkpt>
</trkseg>
</trk>
<trk>
<name>lsrsri19</name>
<cmt>v</cmt>
<desc>Seraing Sentier n°i19 </desc>
<link href="https://chemins.be/seraing/sentier/i19"/><trkseg>
<trkpt lat="50.576633" lon="5.493170"><time>2026-05-03T06:40:44Z</time></trkpt>
<trkpt lat="50.576595" lon="5.492527"><time>2026-05-03T06:50:44Z</time></trkpt>
<trkpt lat="50.576854" lon="5.491672"><time>2026-05-03T07:00:44Z</time></trkpt>
<trkpt lat="50.576851" lon="5.491488"><time>2026-05-03T07:10:44Z</time></trkpt>
<trkpt lat="50.576766" lon="5.491211"><time>2026-05-03T07:20:44Z</time></trkpt>
<trkpt lat="50.576748" lon="5.490903"><time>2026-05-03T07:30:44Z</time></trkpt>
<trkpt lat="50.576888" lon="5.490969"><time>2026-05-03T07:40:44Z</time></trkpt>
<trkpt lat="50.576899" lon="5.490939"><time>2026-05-03T07:50:44Z</time></trkpt>
<trkpt lat="50.577025" lon="5.489722"><time>2026-05-03T08:00:44Z</time></trkpt>
<trkpt lat="50.576716" lon="5.488163"><time>2026-05-03T08:10:44Z</time></trkpt>
<trkpt lat="50.576229" lon="5.486229"><time>2026-05-03T08:20:44Z</time></trkpt>
<trkpt lat="50.576125" lon="5.485188"><time>2026-05-03T08:30:44Z</time></trkpt>
<trkpt lat="50.575977" lon="5.482670"><time>2026-05-03T08:40:44Z</time></trkpt>
</trkseg>
</trk>
<trk>
<name>lsrsri2</name>
<cmt>v</cmt>
<desc>Seraing Sentier n°i2 </desc>
<link href="https://chemins.be/seraing/sentier/i2"/><trkseg>
<trkpt lat="50.582921" lon="5.526969"><time>2026-05-03T06:40:44Z</time></trkpt>
<trkpt lat="50.582933" lon="5.526658"><time>2026-05-03T06:50:44Z</time></trkpt>
<trkpt lat="50.583084" lon="5.525887"><time>2026-05-03T07:00:44Z</time></trkpt>
<trkpt lat="50.582888" lon="5.523648"><time>2026-05-03T07:10:44Z</time></trkpt>
</trkseg>
</trk>
<trk>
<name>lsrsri20</name>
<cmt>s</cmt>
<desc>Seraing Chemin n°i20 </desc>
<link href="https://chemins.be/seraing/chemin/i20"/><trkseg>
<trkpt lat="50.610335" lon="5.516660"><time>2026-05-03T06:40:44Z</time></trkpt>
<trkpt lat="50.612587" lon="5.527968"><time>2026-05-03T06:50:44Z</time></trkpt>
</trkseg>
</trk>
<trk>
<name>lsrsri21</name>
<cmt>v</cmt>
<desc>Seraing Sentier n°i21 </desc>
<link href="https://chemins.be/seraing/sentier/i21"/><trkseg>
<trkpt lat="50.572592" lon="5.525583"><time>2026-05-03T06:40:44Z</time></trkpt>
<trkpt lat="50.572115" lon="5.525715"><time>2026-05-03T06:50:44Z</time></trkpt>
</trkseg></trk>
<trk>
<name>lsrsri21</name>
<cmt>d</cmt>
<desc>Seraing Sentier n°i21 </desc>
<link href="https://chemins.be/seraing/sentier/i21"/><trkseg>
<trkpt lat="50.572115" lon="5.525715"><time>2026-05-03T06:50:44Z</time></trkpt>
<trkpt lat="50.571820" lon="5.525322"><time>2026-05-03T07:00:44Z</time></trkpt>
<trkpt lat="50.571736" lon="5.525209"><time>2026-05-03T07:10:44Z</time></trkpt>
</trkseg></trk>
<trk>
<name>lsrsri21</name>
<cmt>v</cmt>
<desc>Seraing Sentier n°i21 </desc>
<link href="https://chemins.be/seraing/sentier/i21"/><trkseg>
<trkpt lat="50.571736" lon="5.525209"><time>2026-05-03T07:10:44Z</time></trkpt>
<trkpt lat="50.571549" lon="5.524840"><time>2026-05-03T07:20:44Z</time></trkpt>
<trkpt lat="50.571630" lon="5.524545"><time>2026-05-03T07:30:44Z</time></trkpt>
<trkpt lat="50.571959" lon="5.524073"><time>2026-05-03T07:40:44Z</time></trkpt>
<trkpt lat="50.571954" lon="5.523948"><time>2026-05-03T07:50:44Z</time></trkpt>
</trkseg>
</trk>
<trk>
<name>lsrsri22</name>
<cmt>v</cmt>
<desc>Seraing Chemin n°i22 Rue du Grand Sart</desc>
<link href="https://chemins.be/seraing/chemin/i22"/><trkseg>
<trkpt lat="50.590533" lon="5.478943"><time>2026-05-03T06:40:44Z</time></trkpt>
<trkpt lat="50.590444" lon="5.479147"><time>2026-05-03T06:50:44Z</time></trkpt>
<trkpt lat="50.589295" lon="5.479537"><time>2026-05-03T07:00:44Z</time></trkpt>
</trkseg>
</trk>
<trk>
<name>lsrsri23</name>
<cmt>v</cmt>
<desc>Seraing Sentier n°i23 </desc>
<link href="https://chemins.be/seraing/sentier/i23"/><trkseg>
<trkpt lat="50.582192" lon="5.491700"><time>2026-05-03T06:40:44Z</time></trkpt>
<trkpt lat="50.582646" lon="5.491689"><time>2026-05-03T06:50:44Z</time></trkpt>
<trkpt lat="50.582775" lon="5.491921"><time>2026-05-03T07:00:44Z</time></trkpt>
<trkpt lat="50.582764" lon="5.492007"><time>2026-05-03T07:10:44Z</time></trkpt>
</trkseg>
</trk>
<trk>
<name>lsrsri24</name>
<cmt>v</cmt>
<desc>Seraing Sentier n°i24 </desc>
<link href="https://chemins.be/seraing/sentier/i24"/><trkseg>
<trkpt lat="50.583030" lon="5.493697"><time>2026-05-03T06:40:44Z</time></trkpt>
<trkpt lat="50.582229" lon="5.493718"><time>2026-05-03T06:50:44Z</time></trkpt>
</trkseg>
</trk>
<trk>
<name>lsrsri25</name>
<cmt>v</cmt>
<desc>Seraing Sentier n°i25 </desc>
<link href="https://chemins.be/seraing/sentier/i25"/><trkseg>
<trkpt lat="50.583145" lon="5.492474"><time>2026-05-03T06:40:44Z</time></trkpt>
<trkpt lat="50.583504" lon="5.493225"><time>2026-05-03T06:50:44Z</time></trkpt>
<trkpt lat="50.583722" lon="5.493359"><time>2026-05-03T07:00:44Z</time></trkpt>
<trkpt lat="50.583734" lon="5.493277"><time>2026-05-03T07:10:44Z</time></trkpt>
<trkpt lat="50.583790" lon="5.493305"><time>2026-05-03T07:20:44Z</time></trkpt>
</trkseg>
</trk>
<trk>
<name>lsrsri26</name>
<cmt>v</cmt>
<desc>Seraing Sentier n°i26 </desc>
<link href="https://chemins.be/seraing/sentier/i26"/><trkseg>
<trkpt lat="50.582019" lon="5.489749"><time>2026-05-03T06:40:44Z</time></trkpt>
<trkpt lat="50.582178" lon="5.490314"><time>2026-05-03T06:50:44Z</time></trkpt>
<trkpt lat="50.582173" lon="5.490764"><time>2026-05-03T07:00:44Z</time></trkpt>
</trkseg>
</trk>
<trk>
<name>lsrsri27</name>
<cmt>v</cmt>
<desc>Seraing Sentier n°i27 </desc>
<link href="https://chemins.be/seraing/sentier/i27"/><trkseg>
<trkpt lat="50.582760" lon="5.496338"><time>2026-05-03T06:40:44Z</time></trkpt>
<trkpt lat="50.582717" lon="5.496317"><time>2026-05-03T06:50:44Z</time></trkpt>
<trkpt lat="50.582238" lon="5.496574"><time>2026-05-03T07:00:44Z</time></trkpt>
</trkseg>
</trk>
<trk>
<name>lsrsri28</name>
<cmt>v</cmt>
<desc>Seraing Sentier n°i28 </desc>
<link href="https://chemins.be/seraing/sentier/i28"/><trkseg>
<trkpt lat="50.578764" lon="5.490158"><time>2026-05-03T06:40:44Z</time></trkpt>
<trkpt lat="50.579538" lon="5.489765"><time>2026-05-03T06:50:44Z</time></trkpt>
<trkpt lat="50.579529" lon="5.489700"><time>2026-05-03T07:00:44Z</time></trkpt>
<trkpt lat="50.580242" lon="5.489311"><time>2026-05-03T07:10:44Z</time></trkpt>
</trkseg>
</trk>
<trk>
<name>lsrsri29</name>
<cmt>v</cmt>
<desc>Seraing Chemin n°i29 Allée des Myrtilles</desc>
<link href="https://chemins.be/seraing/chemin/i29"/><trkseg>
<trkpt lat="50.574435" lon="5.500900"><time>2026-05-03T06:40:44Z</time></trkpt>
<trkpt lat="50.571564" lon="5.502400"><time>2026-05-03T06:50:44Z</time></trkpt>
<trkpt lat="50.569834" lon="5.503310"><time>2026-05-03T07:00:44Z</time></trkpt>
<trkpt lat="50.569050" lon="5.503737"><time>2026-05-03T07:10:44Z</time></trkpt>
<trkpt lat="50.566845" lon="5.504912"><time>2026-05-03T07:20:44Z</time></trkpt>
<trkpt lat="50.563755" lon="5.506650"><time>2026-05-03T07:30:44Z</time></trkpt>
<trkpt lat="50.562415" lon="5.507387"><time>2026-05-03T07:40:44Z</time></trkpt>
</trkseg>
</trk>
<trk>
<name>lsrsri3</name>
<cmt>v</cmt>
<desc>Seraing Sentier n°i3 Sentier des Bouleaux</desc>
<link href="https://chemins.be/seraing/sentier/i3"/><trkseg>
<trkpt lat="50.557905" lon="5.523660"><time>2026-05-03T06:40:44Z</time></trkpt>
<trkpt lat="50.557925" lon="5.527020"><time>2026-05-03T06:50:44Z</time></trkpt>
<trkpt lat="50.557961" lon="5.531398"><time>2026-05-03T07:00:44Z</time></trkpt>
<trkpt lat="50.557825" lon="5.532215"><time>2026-05-03T07:10:44Z</time></trkpt>
<trkpt lat="50.558303" lon="5.534202"><time>2026-05-03T07:20:44Z</time></trkpt>
<trkpt lat="50.558703" lon="5.535049"><time>2026-05-03T07:30:44Z</time></trkpt>
<trkpt lat="50.558544" lon="5.535498"><time>2026-05-03T07:40:44Z</time></trkpt>
</trkseg>
</trk>
<trk>
<name>lsrsri30</name>
<cmt>v</cmt>
<desc>Seraing Chemin n°i30 Chemin du Meunier</desc>
<link href="https://chemins.be/seraing/chemin/i30"/><trkseg>
<trkpt lat="50.555404" lon="5.514951"><time>2026-05-03T06:40:44Z</time></trkpt>
<trkpt lat="50.554599" lon="5.511396"><time>2026-05-03T06:50:44Z</time></trkpt>
<trkpt lat="50.554445" lon="5.510709"><time>2026-05-03T07:00:44Z</time></trkpt>
<trkpt lat="50.554181" lon="5.510373"><time>2026-05-03T07:10:44Z</time></trkpt>
<trkpt lat="50.550435" lon="5.506459"><time>2026-05-03T07:20:44Z</time></trkpt>
<trkpt lat="50.550345" lon="5.506450"><time>2026-05-03T07:30:44Z</time></trkpt>
</trkseg>
</trk>
<trk>
<name>lsrsri31</name>
<cmt>v</cmt>
<desc>Seraing Sentier n°i31 </desc>
<link href="https://chemins.be/seraing/sentier/i31"/><trkseg>
<trkpt lat="50.550474" lon="5.506396"><time>2026-05-03T06:40:44Z</time></trkpt>
<trkpt lat="50.549943" lon="5.504676"><time>2026-05-03T06:50:44Z</time></trkpt>
<trkpt lat="50.549886" lon="5.503170"><time>2026-05-03T07:00:44Z</time></trkpt>
<trkpt lat="50.549865" lon="5.501261"><time>2026-05-03T07:10:44Z</time></trkpt>
<trkpt lat="50.549480" lon="5.497199"><time>2026-05-03T07:20:44Z</time></trkpt>
</trkseg>
</trk>
<trk>
<name>lsrsri32</name>
<cmt>v</cmt>
<desc>Seraing Sentier n°i32 </desc>
<link href="https://chemins.be/seraing/sentier/i32"/><trkseg>
<trkpt lat="50.594224" lon="5.518104"><time>2026-05-03T06:40:44Z</time></trkpt>
<trkpt lat="50.593630" lon="5.515633"><time>2026-05-03T06:50:44Z</time></trkpt>
<trkpt lat="50.593375" lon="5.514585"><time>2026-05-03T07:00:44Z</time></trkpt>
<trkpt lat="50.593402" lon="5.513008"><time>2026-05-03T07:10:44Z</time></trkpt>
<trkpt lat="50.593287" lon="5.512800"><time>2026-05-03T07:20:44Z</time></trkpt>
<trkpt lat="50.593089" lon="5.512672"><time>2026-05-03T07:30:44Z</time></trkpt>
</trkseg>
</trk>
<trk>
<name>lsrsri33</name>
<cmt>v</cmt>
<desc>Seraing Chemin n°i33 Rue des Chasseurs</desc>
<link href="https://chemins.be/seraing/chemin/i33"/><trkseg>
<trkpt lat="50.595048" lon="5.517571"><time>2026-05-03T06:40:44Z</time></trkpt>
<trkpt lat="50.594917" lon="5.517019"><time>2026-05-03T06:50:44Z</time></trkpt>
</trkseg></trk>
<trk>
<name>lsrsri33</name>
<cmt>d</cmt>
<desc>Seraing Chemin n°i33 Rue des Chasseurs</desc>
<link href="https://chemins.be/seraing/chemin/i33"/><trkseg>
<trkpt lat="50.594917" lon="5.517019"><time>2026-05-03T06:50:44Z</time></trkpt>
<trkpt lat="50.594250" lon="5.514227"><time>2026-05-03T07:00:44Z</time></trkpt>
<trkpt lat="50.593750" lon="5.512493"><time>2026-05-03T07:10:44Z</time></trkpt>
</trkseg>
</trk>
<trk>
<name>lsrsri34</name>
<cmt>v</cmt>
<desc>Seraing Chemin n°i34 </desc>
<link href="https://chemins.be/seraing/chemin/i34"/><trkseg>
<trkpt lat="50.600265" lon="5.529845"><time>2026-05-03T06:40:44Z</time></trkpt>
<trkpt lat="50.599906" lon="5.528003"><time>2026-05-03T06:50:44Z</time></trkpt>
<trkpt lat="50.599609" lon="5.526315"><time>2026-05-03T07:00:44Z</time></trkpt>
<trkpt lat="50.599677" lon="5.526061"><time>2026-05-03T07:10:44Z</time></trkpt>
<trkpt lat="50.600497" lon="5.525464"><time>2026-05-03T07:20:44Z</time></trkpt>
</trkseg>
</trk>
<trk>
<name>lsrsri35</name>
<cmt>v</cmt>
<desc>Seraing Chemin n°i35 </desc>
<link href="https://chemins.be/seraing/chemin/i35"/><trkseg>
<trkpt lat="50.588254" lon="5.478872"><time>2026-05-03T06:40:44Z</time></trkpt>
<trkpt lat="50.586859" lon="5.477927"><time>2026-05-03T06:50:44Z</time></trkpt>
<trkpt lat="50.586400" lon="5.477920"><time>2026-05-03T07:00:44Z</time></trkpt>
<trkpt lat="50.585451" lon="5.476919"><time>2026-05-03T07:10:44Z</time></trkpt>
</trkseg>
</trk>
<trk>
<name>lsrsri36</name>
<cmt>v</cmt>
<desc>Seraing Sentier n°i36 </desc>
<link href="https://chemins.be/seraing/sentier/i36"/><trkseg>
<trkpt lat="50.576793" lon="5.493098"><time>2026-05-03T06:40:44Z</time></trkpt>
<trkpt lat="50.574763" lon="5.493720"><time>2026-05-03T06:50:44Z</time></trkpt>
</trkseg>
</trk>
<trk>
<name>lsrsri37</name>
<cmt>v</cmt>
<desc>Seraing Chemin n°i37 </desc>
<link href="https://chemins.be/seraing/chemin/i37"/><trkseg>
<trkpt lat="50.556590" lon="5.531705"><time>2026-05-03T06:40:44Z</time></trkpt>
<trkpt lat="50.556343" lon="5.531315"><time>2026-05-03T06:50:44Z</time></trkpt>
<trkpt lat="50.555585" lon="5.529985"><time>2026-05-03T07:00:44Z</time></trkpt>
<trkpt lat="50.554431" lon="5.528340"><time>2026-05-03T07:10:44Z</time></trkpt>
<trkpt lat="50.551091" lon="5.526502"><time>2026-05-03T07:20:44Z</time></trkpt>
</trkseg>
</trk>
<trk>
<name>lsrsri38</name>
<cmt>v</cmt>
<desc>Seraing Chemin n°i38 </desc>
<link href="https://chemins.be/seraing/chemin/i38"/><trkseg>
<trkpt lat="50.550864" lon="5.517333"><time>2026-05-03T06:40:44Z</time></trkpt>
<trkpt lat="50.549518" lon="5.516953"><time>2026-05-03T06:50:44Z</time></trkpt>
</trkseg>
</trk>
<trk>
<name>lsrsri39</name>
<cmt>v</cmt>
<desc>Seraing Chemin n°i39 </desc>
<link href="https://chemins.be/seraing/chemin/i39"/><trkseg>
<trkpt lat="50.562501" lon="5.539205"><time>2026-05-03T06:40:44Z</time></trkpt>
<trkpt lat="50.562310" lon="5.539287"><time>2026-05-03T06:50:44Z</time></trkpt>
<trkpt lat="50.562231" lon="5.539438"><time>2026-05-03T07:00:44Z</time></trkpt>
<trkpt lat="50.562226" lon="5.539595"><time>2026-05-03T07:10:44Z</time></trkpt>
</trkseg>
</trk>
<trk>
<name>lsrsri4</name>
<cmt>v</cmt>
<desc>Seraing Chemin n°i4 Sentier du Garde</desc>
<link href="https://chemins.be/seraing/chemin/i4"/><trkseg>
<trkpt lat="50.563374" lon="5.535904"><time>2026-05-03T06:40:44Z</time></trkpt>
<trkpt lat="50.563133" lon="5.535877"><time>2026-05-03T06:50:44Z</time></trkpt>
<trkpt lat="50.562873" lon="5.535112"><time>2026-05-03T07:00:44Z</time></trkpt>
<trkpt lat="50.562469" lon="5.534559"><time>2026-05-03T07:10:44Z</time></trkpt>
<trkpt lat="50.561462" lon="5.533783"><time>2026-05-03T07:20:44Z</time></trkpt>
<trkpt lat="50.560472" lon="5.532267"><time>2026-05-03T07:30:44Z</time></trkpt>
<trkpt lat="50.560050" lon="5.532167"><time>2026-05-03T07:40:44Z</time></trkpt>
<trkpt lat="50.559652" lon="5.531142"><time>2026-05-03T07:50:44Z</time></trkpt>
</trkseg>
</trk>
<trk>
<name>lsrsri40</name>
<cmt>v</cmt>
<desc>Seraing Chemin n°i40 Chemin des Macrâles / Rue du Grand Sart</desc>
<link href="https://chemins.be/seraing/chemin/i40"/><trkseg>
<trkpt lat="50.584343" lon="5.471819"><time>2026-05-03T06:40:44Z</time></trkpt>
<trkpt lat="50.584148" lon="5.472191"><time>2026-05-03T06:50:44Z</time></trkpt>
<trkpt lat="50.585020" lon="5.474036"><time>2026-05-03T07:00:44Z</time></trkpt>
<trkpt lat="50.585477" lon="5.476953"><time>2026-05-03T07:10:44Z</time></trkpt>
<trkpt lat="50.585896" lon="5.479580"><time>2026-05-03T07:20:44Z</time></trkpt>
<trkpt lat="50.586627" lon="5.482285"><time>2026-05-03T07:30:44Z</time></trkpt>
<trkpt lat="50.586394" lon="5.484205"><time>2026-05-03T07:40:44Z</time></trkpt>
<trkpt lat="50.586531" lon="5.485135"><time>2026-05-03T07:50:44Z</time></trkpt>
<trkpt lat="50.587445" lon="5.486176"><time>2026-05-03T08:00:44Z</time></trkpt>
</trkseg>
</trk>
<trk>
<name>lsrsri41</name>
<cmt>v</cmt>
<desc>Seraing Sentier n°i41 </desc>
<link href="https://chemins.be/seraing/sentier/i41"/><trkseg>
<trkpt lat="50.588463" lon="5.499175"><time>2026-05-03T06:40:44Z</time></trkpt>
<trkpt lat="50.588006" lon="5.499594"><time>2026-05-03T06:50:44Z</time></trkpt>
<trkpt lat="50.587709" lon="5.499583"><time>2026-05-03T07:00:44Z</time></trkpt>
</trkseg>
</trk>
<trk>
<name>lsrsri42</name>
<cmt>b</cmt>
<desc>Seraing Sentier n°i42 </desc>
<link href="https://chemins.be/seraing/sentier/i42"/><trkseg>
<trkpt lat="50.592654" lon="5.502108"><time>2026-05-03T06:40:44Z</time></trkpt>
<trkpt lat="50.591855" lon="5.500731"><time>2026-05-03T06:50:44Z</time></trkpt>
</trkseg>
</trk>
<trk>
<name>lsrsri43</name>
<cmt>r</cmt>
<desc>Seraing Chemin n°i43 Rue du Lapin</desc>
<link href="https://chemins.be/seraing/chemin/i43"/><trkseg>
<trkpt lat="50.591269" lon="5.501740"><time>2026-05-03T06:40:44Z</time></trkpt>
<trkpt lat="50.591696" lon="5.501267"><time>2026-05-03T06:50:44Z</time></trkpt>
</trkseg></trk>
<trk>
<name>lsrsri43</name>
<cmt>v</cmt>
<desc>Seraing Chemin n°i43 Rue du Lapin</desc>
<link href="https://chemins.be/seraing/chemin/i43"/><trkseg>
<trkpt lat="50.591696" lon="5.501267"><time>2026-05-03T06:50:44Z</time></trkpt>
<trkpt lat="50.591833" lon="5.500726"><time>2026-05-03T07:00:44Z</time></trkpt>
<trkpt lat="50.591864" lon="5.500449"><time>2026-05-03T07:10:44Z</time></trkpt>
<trkpt lat="50.591866" lon="5.500224"><time>2026-05-03T07:20:44Z</time></trkpt>
</trkseg></trk>
<trk>
<name>lsrsri43</name>
<cmt>d</cmt>
<desc>Seraing Chemin n°i43 Rue du Lapin</desc>
<link href="https://chemins.be/seraing/chemin/i43"/><trkseg>
<trkpt lat="50.591866" lon="5.500224"><time>2026-05-03T07:20:44Z</time></trkpt>
<trkpt lat="50.591772" lon="5.499741"><time>2026-05-03T07:30:44Z</time></trkpt>
<trkpt lat="50.591764" lon="5.499462"><time>2026-05-03T07:40:44Z</time></trkpt>
<trkpt lat="50.591810" lon="5.499229"><time>2026-05-03T07:50:44Z</time></trkpt>
</trkseg>
</trk>
<trk>
<name>lsrsri44</name>
<cmt>v</cmt>
<desc>Seraing Chemin n°i44 Chemin des Papillons / ?</desc>
<link href="https://chemins.be/seraing/chemin/i44"/><trkseg>
<trkpt lat="50.577228" lon="5.490981"><time>2026-05-03T06:40:44Z</time></trkpt>
<trkpt lat="50.577446" lon="5.489264"><time>2026-05-03T06:50:44Z</time></trkpt>
<trkpt lat="50.577356" lon="5.485774"><time>2026-05-03T07:00:44Z</time></trkpt>
<trkpt lat="50.577628" lon="5.485138"><time>2026-05-03T07:10:44Z</time></trkpt>
<trkpt lat="50.578166" lon="5.484841"><time>2026-05-03T07:20:44Z</time></trkpt>
<trkpt lat="50.579323" lon="5.485081"><time>2026-05-03T07:30:44Z</time></trkpt>
<trkpt lat="50.579799" lon="5.484958"><time>2026-05-03T07:40:44Z</time></trkpt>
<trkpt lat="50.580540" lon="5.484486"><time>2026-05-03T07:50:44Z</time></trkpt>
</trkseg>
</trk>
<trk>
<name>lsrsri45</name>
<cmt>v</cmt>
<desc>Seraing Sentier n°i45 </desc>
<link href="https://chemins.be/seraing/sentier/i45"/><trkseg>
<trkpt lat="50.583414" lon="5.487048"><time>2026-05-03T06:40:44Z</time></trkpt>
<trkpt lat="50.582885" lon="5.487312"><time>2026-05-03T06:50:44Z</time></trkpt>
<trkpt lat="50.582794" lon="5.487459"><time>2026-05-03T07:00:44Z</time></trkpt>
<trkpt lat="50.582472" lon="5.487953"><time>2026-05-03T07:10:44Z</time></trkpt>
<trkpt lat="50.582215" lon="5.488346"><time>2026-05-03T07:20:44Z</time></trkpt>
</trkseg>
</trk>
<trk>
<name>lsrsri46</name>
<cmt>v</cmt>
<desc>Seraing Sentier n°i46 </desc>
<link href="https://chemins.be/seraing/sentier/i46"/><trkseg>
<trkpt lat="50.582454" lon="5.486712"><time>2026-05-03T06:40:44Z</time></trkpt>
<trkpt lat="50.582349" lon="5.486794"><time>2026-05-03T06:50:44Z</time></trkpt>
<trkpt lat="50.582018" lon="5.487312"><time>2026-05-03T07:00:44Z</time></trkpt>
</trkseg>
</trk>
<trk>
<name>lsrsri47</name>
<cmt>v</cmt>
<desc>Seraing Sentier n°i47 </desc>
<link href="https://chemins.be/seraing/sentier/i47"/><trkseg>
<trkpt lat="50.582810" lon="5.487452"><time>2026-05-03T06:40:44Z</time></trkpt>
<trkpt lat="50.582354" lon="5.486815"><time>2026-05-03T06:50:44Z</time></trkpt>
</trkseg>
</trk>
<trk>
<name>lsrsri48</name>
<cmt>v</cmt>
<desc>Seraing Sentier n°i48 </desc>
<link href="https://chemins.be/seraing/sentier/i48"/><trkseg>
<trkpt lat="50.582242" lon="5.485453"><time>2026-05-03T06:40:44Z</time></trkpt>
<trkpt lat="50.582465" lon="5.486497"><time>2026-05-03T06:50:44Z</time></trkpt>
<trkpt lat="50.582467" lon="5.486697"><time>2026-05-03T07:00:44Z</time></trkpt>
</trkseg>
</trk>
<trk>
<name>lsrsri49</name>
<cmt>v</cmt>
<desc>Seraing Sentier n°i49 </desc>
<link href="https://chemins.be/seraing/sentier/i49"/><trkseg>
<trkpt lat="50.580585" lon="5.484508"><time>2026-05-03T06:40:44Z</time></trkpt>
<trkpt lat="50.580680" lon="5.483442"><time>2026-05-03T06:50:44Z</time></trkpt>
<trkpt lat="50.580880" lon="5.479029"><time>2026-05-03T07:00:44Z</time></trkpt>
<trkpt lat="50.581782" lon="5.478717"><time>2026-05-03T07:10:44Z</time></trkpt>
</trkseg>
</trk>
<trk>
<name>lsrsri5</name>
<cmt>v</cmt>
<desc>Seraing Sentier n°i5 Drève des Lapins / Chemin de l'Arboretum / Chein de l'Arboretum</desc>
<link href="https://chemins.be/seraing/sentier/i5"/><trkseg>
<trkpt lat="50.570206" lon="5.518977"><time>2026-05-03T06:40:44Z</time></trkpt>
<trkpt lat="50.570081" lon="5.518903"><time>2026-05-03T06:50:44Z</time></trkpt>
<trkpt lat="50.570031" lon="5.517603"><time>2026-05-03T07:00:44Z</time></trkpt>
<trkpt lat="50.569972" lon="5.517136"><time>2026-05-03T07:10:44Z</time></trkpt>
<trkpt lat="50.569870" lon="5.516583"><time>2026-05-03T07:20:44Z</time></trkpt>
<trkpt lat="50.569760" lon="5.515888"><time>2026-05-03T07:30:44Z</time></trkpt>
<trkpt lat="50.569604" lon="5.515277"><time>2026-05-03T07:40:44Z</time></trkpt>
<trkpt lat="50.569304" lon="5.514748"><time>2026-05-03T07:50:44Z</time></trkpt>
<trkpt lat="50.568438" lon="5.511381"><time>2026-05-03T08:00:44Z</time></trkpt>
<trkpt lat="50.566890" lon="5.505076"><time>2026-05-03T08:10:44Z</time></trkpt>
<trkpt lat="50.566363" lon="5.502832"><time>2026-05-03T08:20:44Z</time></trkpt>
<trkpt lat="50.565672" lon="5.499936"><time>2026-05-03T08:30:44Z</time></trkpt>
<trkpt lat="50.565428" lon="5.499168"><time>2026-05-03T08:40:44Z</time></trkpt>
<trkpt lat="50.565515" lon="5.498478"><time>2026-05-03T08:50:44Z</time></trkpt>
<trkpt lat="50.565665" lon="5.497903"><time>2026-05-03T09:00:44Z</time></trkpt>
</trkseg>
</trk>
<trk>
<name>lsrsri50</name>
<cmt>v</cmt>
<desc>Seraing Sentier n°i50 </desc>
<link href="https://chemins.be/seraing/sentier/i50"/><trkseg>
<trkpt lat="50.578518" lon="5.494447"><time>2026-05-03T06:40:44Z</time></trkpt>
<trkpt lat="50.578791" lon="5.493195"><time>2026-05-03T06:50:44Z</time></trkpt>
<trkpt lat="50.578688" lon="5.492580"><time>2026-05-03T07:00:44Z</time></trkpt>
<trkpt lat="50.578625" lon="5.492473"><time>2026-05-03T07:10:44Z</time></trkpt>
</trkseg>
</trk>
<trk>
<name>lsrsri51</name>
<cmt>v</cmt>
<desc>Seraing Sentier n°i51 </desc>
<link href="https://chemins.be/seraing/sentier/i51"/><trkseg>
<trkpt lat="50.578425" lon="5.493303"><time>2026-05-03T06:40:44Z</time></trkpt>
<trkpt lat="50.578636" lon="5.493295"><time>2026-05-03T06:50:44Z</time></trkpt>
<trkpt lat="50.578790" lon="5.493183"><time>2026-05-03T07:00:44Z</time></trkpt>
<trkpt lat="50.579252" lon="5.493399"><time>2026-05-03T07:10:44Z</time></trkpt>
</trkseg>
</trk>
<trk>
<name>lsrsri52</name>
<cmt>v</cmt>
<desc>Seraing Sentier n°i52 </desc>
<link href="https://chemins.be/seraing/sentier/i52"/><trkseg>
<trkpt lat="50.589423" lon="5.507641"><time>2026-05-03T06:40:44Z</time></trkpt>
<trkpt lat="50.589433" lon="5.507260"><time>2026-05-03T06:50:44Z</time></trkpt>
<trkpt lat="50.589648" lon="5.507301"><time>2026-05-03T07:00:44Z</time></trkpt>
<trkpt lat="50.589733" lon="5.506960"><time>2026-05-03T07:10:44Z</time></trkpt>
</trkseg>
</trk>
<trk>
<name>lsrsri53</name>
<cmt>v</cmt>
<desc>Seraing Sentier n°i53 </desc>
<link href="https://chemins.be/seraing/sentier/i53"/><trkseg>
<trkpt lat="50.589432" lon="5.507245"><time>2026-05-03T06:40:44Z</time></trkpt>
<trkpt lat="50.589332" lon="5.507172"><time>2026-05-03T06:50:44Z</time></trkpt>
</trkseg></trk>
<trk>
<name>lsrsri53</name>
<cmt>b</cmt>
<desc>Seraing Sentier n°i53 </desc>
<link href="https://chemins.be/seraing/sentier/i53"/><trkseg>
<trkpt lat="50.589332" lon="5.507172"><time>2026-05-03T06:50:44Z</time></trkpt>
<trkpt lat="50.589343" lon="5.506921"><time>2026-05-03T07:00:44Z</time></trkpt>
<trkpt lat="50.589382" lon="5.506777"><time>2026-05-03T07:10:44Z</time></trkpt>
</trkseg>
</trk>
<trk>
<name>lsrsri54</name>
<cmt>v</cmt>
<desc>Seraing Sentier n°i54 </desc>
<link href="https://chemins.be/seraing/sentier/i54"/><trkseg>
<trkpt lat="50.591917" lon="5.510365"><time>2026-05-03T06:40:44Z</time></trkpt>
<trkpt lat="50.591970" lon="5.510530"><time>2026-05-03T06:50:44Z</time></trkpt>
<trkpt lat="50.592079" lon="5.510633"><time>2026-05-03T07:00:44Z</time></trkpt>
<trkpt lat="50.592306" lon="5.511198"><time>2026-05-03T07:10:44Z</time></trkpt>
</trkseg>
</trk>
<trk>
<name>lsrsri55</name>
<cmt>v</cmt>
<desc>Seraing Sentier n°i55 Thier Berger</desc>
<link href="https://chemins.be/seraing/sentier/i55"/><trkseg>
<trkpt lat="50.591663" lon="5.512060"><time>2026-05-03T06:40:44Z</time></trkpt>
<trkpt lat="50.591030" lon="5.510612"><time>2026-05-03T06:50:44Z</time></trkpt>
</trkseg>
</trk>
<trk>
<name>lsrsri56</name>
<cmt>v</cmt>
<desc>Seraing Sentier n°i56 </desc>
<link href="https://chemins.be/seraing/sentier/i56"/><trkseg>
<trkpt lat="50.592210" lon="5.507583"><time>2026-05-03T06:40:44Z</time></trkpt>
<trkpt lat="50.592487" lon="5.507547"><time>2026-05-03T06:50:44Z</time></trkpt>
<trkpt lat="50.592655" lon="5.507568"><time>2026-05-03T07:00:44Z</time></trkpt>
<trkpt lat="50.592751" lon="5.507490"><time>2026-05-03T07:10:44Z</time></trkpt>
</trkseg>
</trk>
<trk>
<name>lsrsri57</name>
<cmt>v</cmt>
<desc>Seraing Sentier n°i57 </desc>
<link href="https://chemins.be/seraing/sentier/i57"/><trkseg>
<trkpt lat="50.597545" lon="5.520688"><time>2026-05-03T06:40:44Z</time></trkpt>
<trkpt lat="50.597488" lon="5.520615"><time>2026-05-03T06:50:44Z</time></trkpt>
<trkpt lat="50.597289" lon="5.520610"><time>2026-05-03T07:00:44Z</time></trkpt>
</trkseg>
</trk>
<trk>
<name>lsrsri58</name>
<cmt>v</cmt>
<desc>Seraing Sentier n°i58 </desc>
<link href="https://chemins.be/seraing/sentier/i58"/><trkseg>
<trkpt lat="50.595888" lon="5.510122"><time>2026-05-03T06:40:44Z</time></trkpt>
<trkpt lat="50.595568" lon="5.510247"><time>2026-05-03T06:50:44Z</time></trkpt>
<trkpt lat="50.595434" lon="5.510497"><time>2026-05-03T07:00:44Z</time></trkpt>
<trkpt lat="50.595289" lon="5.511098"><time>2026-05-03T07:10:44Z</time></trkpt>
<trkpt lat="50.594839" lon="5.512622"><time>2026-05-03T07:20:44Z</time></trkpt>
<trkpt lat="50.594744" lon="5.512775"><time>2026-05-03T07:30:44Z</time></trkpt>
</trkseg>
</trk>
<trk>
<name>lsrsri59</name>
<cmt>v</cmt>
<desc>Seraing Chemin n°i59 </desc>
<link href="https://chemins.be/seraing/chemin/i59"/><trkseg>
<trkpt lat="50.594317" lon="5.509700"><time>2026-05-03T06:40:44Z</time></trkpt>
<trkpt lat="50.594376" lon="5.509979"><time>2026-05-03T06:50:44Z</time></trkpt>
<trkpt lat="50.594466" lon="5.510382"><time>2026-05-03T07:00:44Z</time></trkpt>
<trkpt lat="50.594939" lon="5.510614"><time>2026-05-03T07:10:44Z</time></trkpt>
<trkpt lat="50.595194" lon="5.510607"><time>2026-05-03T07:20:44Z</time></trkpt>
<trkpt lat="50.595267" lon="5.510535"><time>2026-05-03T07:30:44Z</time></trkpt>
<trkpt lat="50.595445" lon="5.510467"><time>2026-05-03T07:40:44Z</time></trkpt>
</trkseg>
</trk>
<trk>
<name>lsrsri6</name>
<cmt>v</cmt>
<desc>Seraing Chemin n°i6 Drève des Airelles</desc>
<link href="https://chemins.be/seraing/chemin/i6"/><trkseg>
<trkpt lat="50.575911" lon="5.501642"><time>2026-05-03T06:40:44Z</time></trkpt>
<trkpt lat="50.575627" lon="5.500858"><time>2026-05-03T06:50:44Z</time></trkpt>
<trkpt lat="50.575436" lon="5.499054"><time>2026-05-03T07:00:44Z</time></trkpt>
<trkpt lat="50.575045" lon="5.495798"><time>2026-05-03T07:10:44Z</time></trkpt>
<trkpt lat="50.574764" lon="5.493618"><time>2026-05-03T07:20:44Z</time></trkpt>
<trkpt lat="50.574485" lon="5.491687"><time>2026-05-03T07:30:44Z</time></trkpt>
<trkpt lat="50.574221" lon="5.489674"><time>2026-05-03T07:40:44Z</time></trkpt>
<trkpt lat="50.573986" lon="5.487843"><time>2026-05-03T07:50:44Z</time></trkpt>
<trkpt lat="50.573709" lon="5.486112"><time>2026-05-03T08:00:44Z</time></trkpt>
</trkseg>
</trk>
<trk>
<name>lsrsri60</name>
<cmt>v</cmt>
<desc>Seraing Sentier n°i60 </desc>
<link href="https://chemins.be/seraing/sentier/i60"/><trkseg>
<trkpt lat="50.585220" lon="5.513459"><time>2026-05-03T06:40:44Z</time></trkpt>
<trkpt lat="50.585313" lon="5.513665"><time>2026-05-03T06:50:44Z</time></trkpt>
<trkpt lat="50.585420" lon="5.513790"><time>2026-05-03T07:00:44Z</time></trkpt>
<trkpt lat="50.585573" lon="5.513962"><time>2026-05-03T07:10:44Z</time></trkpt>
</trkseg>
</trk>
<trk>
<name>lsrsri61</name>
<cmt>v</cmt>
<desc>Seraing Sentier n°i61 </desc>
<link href="https://chemins.be/seraing/sentier/i61"/><trkseg>
<trkpt lat="50.585423" lon="5.513790"><time>2026-05-03T06:40:44Z</time></trkpt>
<trkpt lat="50.585660" lon="5.513484"><time>2026-05-03T06:50:44Z</time></trkpt>
</trkseg>
</trk>
<trk>
<name>lsrsri62</name>
<cmt>v</cmt>
<desc>Seraing Sentier n°i62 </desc>
<link href="https://chemins.be/seraing/sentier/i62"/><trkseg>
<trkpt lat="50.584604" lon="5.515702"><time>2026-05-03T06:40:44Z</time></trkpt>
<trkpt lat="50.584445" lon="5.516324"><time>2026-05-03T06:50:44Z</time></trkpt>
</trkseg>
</trk>
<trk>
<name>lsrsri63</name>
<cmt>v</cmt>
<desc>Seraing Sentier n°i63 </desc>
<link href="https://chemins.be/seraing/sentier/i63"/><trkseg>
<trkpt lat="50.585819" lon="5.516345"><time>2026-05-03T06:40:44Z</time></trkpt>
<trkpt lat="50.586193" lon="5.516260"><time>2026-05-03T06:50:44Z</time></trkpt>
</trkseg>
</trk>
<trk>
<name>lsrsri64</name>
<cmt>v</cmt>
<desc>Seraing Sentier n°i64 </desc>
<link href="https://chemins.be/seraing/sentier/i64"/><trkseg>
<trkpt lat="50.593710" lon="5.503377"><time>2026-05-03T06:40:44Z</time></trkpt>
<trkpt lat="50.593944" lon="5.504396"><time>2026-05-03T06:50:44Z</time></trkpt>
<trkpt lat="50.593776" lon="5.504493"><time>2026-05-03T07:00:44Z</time></trkpt>
<trkpt lat="50.593794" lon="5.504593"><time>2026-05-03T07:10:44Z</time></trkpt>
<trkpt lat="50.593715" lon="5.504647"><time>2026-05-03T07:20:44Z</time></trkpt>
<trkpt lat="50.593751" lon="5.504979"><time>2026-05-03T07:30:44Z</time></trkpt>
</trkseg>
</trk>
<trk>
<name>lsrsri65</name>
<cmt>v</cmt>
<desc>Seraing Chemin n°i65 </desc>
<link href="https://chemins.be/seraing/chemin/i65"/><trkseg>
<trkpt lat="50.589342" lon="5.481265"><time>2026-05-03T06:40:44Z</time></trkpt>
<trkpt lat="50.588865" lon="5.480757"><time>2026-05-03T06:50:44Z</time></trkpt>
<trkpt lat="50.588815" lon="5.480317"><time>2026-05-03T07:00:44Z</time></trkpt>
<trkpt lat="50.588858" lon="5.479870"><time>2026-05-03T07:10:44Z</time></trkpt>
<trkpt lat="50.588574" lon="5.479069"><time>2026-05-03T07:20:44Z</time></trkpt>
</trkseg>
</trk>
<trk>
<name>lsrsri66</name>
<cmt>v</cmt>
<desc>Seraing Chemin n°i66 </desc>
<link href="https://chemins.be/seraing/chemin/i66"/><trkseg>
<trkpt lat="50.583224" lon="5.486280"><time>2026-05-03T06:40:44Z</time></trkpt>
<trkpt lat="50.583751" lon="5.485922"><time>2026-05-03T06:50:44Z</time></trkpt>
<trkpt lat="50.583892" lon="5.485682"><time>2026-05-03T07:00:44Z</time></trkpt>
<trkpt lat="50.584096" lon="5.485321"><time>2026-05-03T07:10:44Z</time></trkpt>
<trkpt lat="50.585460" lon="5.484321"><time>2026-05-03T07:20:44Z</time></trkpt>
<trkpt lat="50.586358" lon="5.484120"><time>2026-05-03T07:30:44Z</time></trkpt>
</trkseg>
</trk>
<trk>
<name>lsrsri67</name>
<cmt>v</cmt>
<desc>Seraing Sentier n°i67 </desc>
<link href="https://chemins.be/seraing/sentier/i67"/><trkseg>
<trkpt lat="50.582225" lon="5.480515"><time>2026-05-03T06:40:44Z</time></trkpt>
<trkpt lat="50.582578" lon="5.480352"><time>2026-05-03T06:50:44Z</time></trkpt>
<trkpt lat="50.582879" lon="5.480286"><time>2026-05-03T07:00:44Z</time></trkpt>
<trkpt lat="50.584408" lon="5.479930"><time>2026-05-03T07:10:44Z</time></trkpt>
<trkpt lat="50.585895" lon="5.479585"><time>2026-05-03T07:20:44Z</time></trkpt>
</trkseg>
</trk>
<trk>
<name>lsrsri68</name>
<cmt>v</cmt>
<desc>Seraing Sentier n°i68 </desc>
<link href="https://chemins.be/seraing/sentier/i68"/><trkseg>
<trkpt lat="50.585495" lon="5.484449"><time>2026-05-03T06:40:44Z</time></trkpt>
<trkpt lat="50.584366" lon="5.479901"><time>2026-05-03T06:50:44Z</time></trkpt>
<trkpt lat="50.582144" lon="5.473334"><time>2026-05-03T07:00:44Z</time></trkpt>
<trkpt lat="50.581453" lon="5.471975"><time>2026-05-03T07:10:44Z</time></trkpt>
<trkpt lat="50.581090" lon="5.472189"><time>2026-05-03T07:20:44Z</time></trkpt>
<trkpt lat="50.580508" lon="5.473949"><time>2026-05-03T07:30:44Z</time></trkpt>
<trkpt lat="50.580926" lon="5.478955"><time>2026-05-03T07:40:44Z</time></trkpt>
</trkseg>
</trk>
<trk>
<name>lsrsri69</name>
<cmt>v</cmt>
<desc>Seraing Sentier n°i69 </desc>
<link href="https://chemins.be/seraing/sentier/i69"/><trkseg>
<trkpt lat="50.553744" lon="5.522590"><time>2026-05-03T06:40:44Z</time></trkpt>
<trkpt lat="50.553353" lon="5.523806"><time>2026-05-03T06:50:44Z</time></trkpt>
<trkpt lat="50.553244" lon="5.526395"><time>2026-05-03T07:00:44Z</time></trkpt>
<trkpt lat="50.552926" lon="5.527496"><time>2026-05-03T07:10:44Z</time></trkpt>
</trkseg>
</trk>
<trk>
<name>lsrsri7</name>
<cmt>v</cmt>
<desc>Seraing Chemin n°i7 Drève du Chasseur</desc>
<link href="https://chemins.be/seraing/chemin/i7"/><trkseg>
<trkpt lat="50.576733" lon="5.490898"><time>2026-05-03T06:40:44Z</time></trkpt>
<trkpt lat="50.574572" lon="5.491734"><time>2026-05-03T06:50:44Z</time></trkpt>
<trkpt lat="50.573778" lon="5.491941"><time>2026-05-03T07:00:44Z</time></trkpt>
<trkpt lat="50.573174" lon="5.492130"><time>2026-05-03T07:10:44Z</time></trkpt>
<trkpt lat="50.571190" lon="5.492811"><time>2026-05-03T07:20:44Z</time></trkpt>
</trkseg>
</trk>
<trk>
<name>lsrsri70</name>
<cmt>v</cmt>
<desc>Seraing Chemin n°i70 Rue Michel Servet</desc>
<link href="https://chemins.be/seraing/chemin/i70"/><trkseg>
<trkpt lat="50.597974" lon="5.527931"><time>2026-05-03T06:40:44Z</time></trkpt>
<trkpt lat="50.597741" lon="5.527118"><time>2026-05-03T06:50:44Z</time></trkpt>
<trkpt lat="50.597689" lon="5.527104"><time>2026-05-03T07:00:44Z</time></trkpt>
<trkpt lat="50.597582" lon="5.526818"><time>2026-05-03T07:10:44Z</time></trkpt>
<trkpt lat="50.597539" lon="5.526828"><time>2026-05-03T07:20:44Z</time></trkpt>
</trkseg>
</trk>
<trk>
<name>lsrsri71</name>
<cmt>v</cmt>
<desc>Seraing Sentier n°i71 Rue du Myosotis</desc>
<link href="https://chemins.be/seraing/sentier/i71"/><trkseg>
<trkpt lat="50.596742" lon="5.526875"><time>2026-05-03T06:40:44Z</time></trkpt>
<trkpt lat="50.596692" lon="5.527507"><time>2026-05-03T06:50:44Z</time></trkpt>
<trkpt lat="50.596725" lon="5.527854"><time>2026-05-03T07:00:44Z</time></trkpt>
<trkpt lat="50.597005" lon="5.528592"><time>2026-05-03T07:10:44Z</time></trkpt>
<trkpt lat="50.597282" lon="5.529664"><time>2026-05-03T07:20:44Z</time></trkpt>
</trkseg>
</trk>
<trk>
<name>lsrsri72</name>
<cmt>v</cmt>
<desc>Seraing Chemin n°i72 Chemin des Hêtres / Drève des Fougères / Drève de la Bécasse</desc>
<link href="https://chemins.be/seraing/chemin/i72"/><trkseg>
<trkpt lat="50.559780" lon="5.514361"><time>2026-05-03T06:40:44Z</time></trkpt>
<trkpt lat="50.559852" lon="5.516635"><time>2026-05-03T06:50:44Z</time></trkpt>
<trkpt lat="50.561524" lon="5.518810"><time>2026-05-03T07:00:44Z</time></trkpt>
<trkpt lat="50.563125" lon="5.518652"><time>2026-05-03T07:10:44Z</time></trkpt>
<trkpt lat="50.565020" lon="5.518504"><time>2026-05-03T07:20:44Z</time></trkpt>
<trkpt lat="50.566708" lon="5.518298"><time>2026-05-03T07:30:44Z</time></trkpt>
<trkpt lat="50.569784" lon="5.517994"><time>2026-05-03T07:40:44Z</time></trkpt>
<trkpt lat="50.569975" lon="5.517622"><time>2026-05-03T07:50:44Z</time></trkpt>
</trkseg>
</trk>
<trk>
<name>lsrsri73</name>
<cmt>v</cmt>
<desc>Seraing Sentier n°i73 </desc>
<link href="https://chemins.be/seraing/sentier/i73"/><trkseg>
<trkpt lat="50.592420" lon="5.507833"><time>2026-05-03T06:40:44Z</time></trkpt>
<trkpt lat="50.592632" lon="5.507909"><time>2026-05-03T06:50:44Z</time></trkpt>
</trkseg>
</trk>
<trk>
<name>lsrsri74</name>
<cmt>b</cmt>
<desc>Seraing Sentier n°i74 </desc>
<link href="https://chemins.be/seraing/sentier/i74"/><trkseg>
<trkpt lat="50.592393" lon="5.509713"><time>2026-05-03T06:40:44Z</time></trkpt>
<trkpt lat="50.592031" lon="5.509917"><time>2026-05-03T06:50:44Z</time></trkpt>
</trkseg>
</trk>
<trk>
<name>lsrsri8</name>
<cmt>v</cmt>
<desc>Seraing Sentier n°i8 Sentier des Princes Eveques</desc>
<link href="https://chemins.be/seraing/sentier/i8"/><trkseg>
<trkpt lat="50.551254" lon="5.496755"><time>2026-05-03T06:40:44Z</time></trkpt>
<trkpt lat="50.552247" lon="5.500889"><time>2026-05-03T06:50:44Z</time></trkpt>
<trkpt lat="50.552519" lon="5.501633"><time>2026-05-03T07:00:44Z</time></trkpt>
<trkpt lat="50.552846" lon="5.501976"><time>2026-05-03T07:10:44Z</time></trkpt>
<trkpt lat="50.552883" lon="5.502934"><time>2026-05-03T07:20:44Z</time></trkpt>
<trkpt lat="50.552774" lon="5.504479"><time>2026-05-03T07:30:44Z</time></trkpt>
<trkpt lat="50.554292" lon="5.509286"><time>2026-05-03T07:40:44Z</time></trkpt>
<trkpt lat="50.554201" lon="5.510387"><time>2026-05-03T07:50:44Z</time></trkpt>
</trkseg>
</trk>
<trk>
<name>lsrsri9</name>
<cmt>v</cmt>
<desc>Seraing Sentier n°i9 Sentier de la Borne</desc>
<link href="https://chemins.be/seraing/sentier/i9"/><trkseg>
<trkpt lat="50.558825" lon="5.498615"><time>2026-05-03T06:40:44Z</time></trkpt>
<trkpt lat="50.558400" lon="5.498830"><time>2026-05-03T06:50:44Z</time></trkpt>
<trkpt lat="50.557977" lon="5.498891"><time>2026-05-03T07:00:44Z</time></trkpt>
<trkpt lat="50.556857" lon="5.499358"><time>2026-05-03T07:10:44Z</time></trkpt>
<trkpt lat="50.555248" lon="5.500308"><time>2026-05-03T07:20:44Z</time></trkpt>
<trkpt lat="50.552248" lon="5.500885"><time>2026-05-03T07:30:44Z</time></trkpt>
<trkpt lat="50.549844" lon="5.501279"><time>2026-05-03T07:40:44Z</time></trkpt>
</trkseg>
</trk>
<trk>
<name>lsrsrLv713</name>
<cmt>v</cmt>
<desc>Seraing Chemin n°Lv713 Ligne Vicinale 713 - Seraing à Clavier / Chemin n°i19</desc>
<link href="https://chemins.be/seraing/chemin/Lv713"/><trkseg>
<trkpt lat="50.590514" lon="5.478945"><time>2026-05-03T06:40:44Z</time></trkpt>
<trkpt lat="50.590332" lon="5.478963"><time>2026-05-03T06:50:44Z</time></trkpt>
<trkpt lat="50.589428" lon="5.479209"><time>2026-05-03T07:00:44Z</time></trkpt>
<trkpt lat="50.589256" lon="5.479184"><time>2026-05-03T07:10:44Z</time></trkpt>
<trkpt lat="50.588794" lon="5.478888"><time>2026-05-03T07:20:44Z</time></trkpt>
<trkpt lat="50.587552" lon="5.476475"><time>2026-05-03T07:30:44Z</time></trkpt>
<trkpt lat="50.585495" lon="5.473021"><time>2026-05-03T07:40:44Z</time></trkpt>
<trkpt lat="50.585011" lon="5.472693"><time>2026-05-03T07:50:44Z</time></trkpt>
<trkpt lat="50.584292" lon="5.471933"><time>2026-05-03T08:00:44Z</time></trkpt>
<trkpt lat="50.581796" lon="5.469952"><time>2026-05-03T08:10:44Z</time></trkpt>
<trkpt lat="50.581147" lon="5.470158"><time>2026-05-03T08:20:44Z</time></trkpt>
<trkpt lat="50.579643" lon="5.471454"><time>2026-05-03T08:30:44Z</time></trkpt>
<trkpt lat="50.579098" lon="5.472484"><time>2026-05-03T08:40:44Z</time></trkpt>
<trkpt lat="50.579087" lon="5.473763"><time>2026-05-03T08:50:44Z</time></trkpt>
<trkpt lat="50.579539" lon="5.476072"><time>2026-05-03T09:00:44Z</time></trkpt>
<trkpt lat="50.579370" lon="5.477145"><time>2026-05-03T09:10:44Z</time></trkpt>
<trkpt lat="50.578526" lon="5.478140"><time>2026-05-03T09:20:44Z</time></trkpt>
<trkpt lat="50.578308" lon="5.479213"><time>2026-05-03T09:30:44Z</time></trkpt>
<trkpt lat="50.578417" lon="5.480569"><time>2026-05-03T09:40:44Z</time></trkpt>
<trkpt lat="50.578417" lon="5.481187"><time>2026-05-03T09:50:44Z</time></trkpt>
<trkpt lat="50.578117" lon="5.481814"><time>2026-05-03T10:00:44Z</time></trkpt>
<trkpt lat="50.577441" lon="5.482561"><time>2026-05-03T10:10:44Z</time></trkpt>
<trkpt lat="50.576722" lon="5.482458"><time>2026-05-03T10:20:44Z</time></trkpt>
<trkpt lat="50.576033" lon="5.482635"><time>2026-05-03T10:30:44Z</time></trkpt>
<trkpt lat="50.574525" lon="5.483050"><time>2026-05-03T10:40:44Z</time></trkpt>
<trkpt lat="50.573126" lon="5.482836"><time>2026-05-03T10:50:44Z</time></trkpt>
<trkpt lat="50.571963" lon="5.483901"><time>2026-05-03T11:00:44Z</time></trkpt>
<trkpt lat="50.571686" lon="5.484065"><time>2026-05-03T11:10:44Z</time></trkpt>
</trkseg>
</trk>
<trk>
<name>lsrsrLv725</name>
<cmt>v</cmt>
<desc>Seraing Chemin n°Lv725 Ravel Bois de la Marchandise / Rue du Fort</desc>
<link href="https://chemins.be/seraing/chemin/Lv725"/><trkseg>
<trkpt lat="50.599237" lon="5.528548"><time>2026-05-03T06:40:44Z</time></trkpt>
<trkpt lat="50.599051" lon="5.527618"><time>2026-05-03T06:50:44Z</time></trkpt>
</trkseg></trk>
<trk>
<name>lsrsrLv725</name>
<cmt>r</cmt>
<desc>Seraing Chemin n°Lv725 Ravel Bois de la Marchandise / Rue du Fort</desc>
<link href="https://chemins.be/seraing/chemin/Lv725"/><trkseg>
<trkpt lat="50.599051" lon="5.527618"><time>2026-05-03T06:50:44Z</time></trkpt>
<trkpt lat="50.598831" lon="5.526491"><time>2026-05-03T07:00:44Z</time></trkpt>
</trkseg></trk>
<trk>
<name>lsrsrLv725</name>
<cmt>s</cmt>
<desc>Seraing Chemin n°Lv725 Ravel Bois de la Marchandise / Rue du Fort</desc>
<link href="https://chemins.be/seraing/chemin/Lv725"/><trkseg>
<trkpt lat="50.598831" lon="5.526491"><time>2026-05-03T07:00:44Z</time></trkpt>
<trkpt lat="50.598159" lon="5.523473"><time>2026-05-03T07:10:44Z</time></trkpt>
</trkseg></trk>
<trk>
<name>lsrsrLv725</name>
<cmt>v</cmt>
<desc>Seraing Chemin n°Lv725 Ravel Bois de la Marchandise / Rue du Fort</desc>
<link href="https://chemins.be/seraing/chemin/Lv725"/><trkseg>
<trkpt lat="50.598159" lon="5.523473"><time>2026-05-03T07:10:44Z</time></trkpt>
<trkpt lat="50.597655" lon="5.522103"><time>2026-05-03T07:20:44Z</time></trkpt>
</trkseg></trk>
<trk>
<name>lsrsrLv725</name>
<cmt>s</cmt>
<desc>Seraing Chemin n°Lv725 Ravel Bois de la Marchandise / Rue du Fort</desc>
<link href="https://chemins.be/seraing/chemin/Lv725"/><trkseg>
<trkpt lat="50.597655" lon="5.522103"><time>2026-05-03T07:20:44Z</time></trkpt>
<trkpt lat="50.597327" lon="5.518162"><time>2026-05-03T07:30:44Z</time></trkpt>
<trkpt lat="50.595119" lon="5.514300"><time>2026-05-03T07:40:44Z</time></trkpt>
</trkseg></trk>
<trk>
<name>lsrsrLv725</name>
<cmt>r</cmt>
<desc>Seraing Chemin n°Lv725 Ravel Bois de la Marchandise / Rue du Fort</desc>
<link href="https://chemins.be/seraing/chemin/Lv725"/><trkseg>
<trkpt lat="50.595119" lon="5.514300"><time>2026-05-03T07:40:44Z</time></trkpt>
<trkpt lat="50.594149" lon="5.512698"><time>2026-05-03T07:50:44Z</time></trkpt>
<trkpt lat="50.593620" lon="5.512410"><time>2026-05-03T08:00:44Z</time></trkpt>
<trkpt lat="50.592976" lon="5.512769"><time>2026-05-03T08:10:44Z</time></trkpt>
</trkseg></trk>
<trk>
<name>lsrsrLv725</name>
<cmt>v</cmt>
<desc>Seraing Chemin n°Lv725 Ravel Bois de la Marchandise / Rue du Fort</desc>
<link href="https://chemins.be/seraing/chemin/Lv725"/><trkseg>
<trkpt lat="50.592976" lon="5.512769"><time>2026-05-03T08:10:44Z</time></trkpt>
<trkpt lat="50.592149" lon="5.513735"><time>2026-05-03T08:20:44Z</time></trkpt>
<trkpt lat="50.590764" lon="5.516517"><time>2026-05-03T08:30:44Z</time></trkpt>
<trkpt lat="50.589920" lon="5.518813"><time>2026-05-03T08:40:44Z</time></trkpt>
<trkpt lat="50.587882" lon="5.520050"><time>2026-05-03T08:50:44Z</time></trkpt>
<trkpt lat="50.586677" lon="5.520008"><time>2026-05-03T09:00:44Z</time></trkpt>
<trkpt lat="50.586078" lon="5.519814"><time>2026-05-03T09:10:44Z</time></trkpt>
<trkpt lat="50.585249" lon="5.518935"><time>2026-05-03T09:20:44Z</time></trkpt>
<trkpt lat="50.584679" lon="5.518033"><time>2026-05-03T09:30:44Z</time></trkpt>
<trkpt lat="50.584211" lon="5.518219"><time>2026-05-03T09:40:44Z</time></trkpt>
<trkpt lat="50.584143" lon="5.519063"><time>2026-05-03T09:50:44Z</time></trkpt>
<trkpt lat="50.584439" lon="5.519435"><time>2026-05-03T10:00:44Z</time></trkpt>
<trkpt lat="50.585342" lon="5.519507"><time>2026-05-03T10:10:44Z</time></trkpt>
<trkpt lat="50.585955" lon="5.520086"><time>2026-05-03T10:20:44Z</time></trkpt>
<trkpt lat="50.588067" lon="5.521209"><time>2026-05-03T10:30:44Z</time></trkpt>
<trkpt lat="50.589057" lon="5.522032"><time>2026-05-03T10:40:44Z</time></trkpt>
<trkpt lat="50.590991" lon="5.522675"><time>2026-05-03T10:50:44Z</time></trkpt>
<trkpt lat="50.591300" lon="5.523527"><time>2026-05-03T11:00:44Z</time></trkpt>
<trkpt lat="50.591150" lon="5.524321"><time>2026-05-03T11:10:44Z</time></trkpt>
</trkseg></trk>
<trk>
<name>lsrsrLv725</name>
<cmt>d</cmt>
<desc>Seraing Chemin n°Lv725 Ravel Bois de la Marchandise / Rue du Fort</desc>
<link href="https://chemins.be/seraing/chemin/Lv725"/><trkseg>
<trkpt lat="50.591150" lon="5.524321"><time>2026-05-03T11:10:44Z</time></trkpt>
<trkpt lat="50.590898" lon="5.524628"><time>2026-05-03T11:20:44Z</time></trkpt>
</trkseg></trk>
<trk>
<name>lsrsrLv725</name>
<cmt>r</cmt>
<desc>Seraing Chemin n°Lv725 Ravel Bois de la Marchandise / Rue du Fort</desc>
<link href="https://chemins.be/seraing/chemin/Lv725"/><trkseg>
<trkpt lat="50.590898" lon="5.524628"><time>2026-05-03T11:20:44Z</time></trkpt>
<trkpt lat="50.587831" lon="5.525722"><time>2026-05-03T11:30:44Z</time></trkpt>
</trkseg></trk>
<trk>
<name>lsrsrLv725</name>
<cmt>q</cmt>
<desc>Seraing Chemin n°Lv725 Ravel Bois de la Marchandise / Rue du Fort</desc>
<link href="https://chemins.be/seraing/chemin/Lv725"/><trkseg>
<trkpt lat="50.587831" lon="5.525722"><time>2026-05-03T11:30:44Z</time></trkpt>
<trkpt lat="50.587604" lon="5.526624"><time>2026-05-03T11:40:44Z</time></trkpt>
<trkpt lat="50.587763" lon="5.527911"><time>2026-05-03T11:50:44Z</time></trkpt>
<trkpt lat="50.587740" lon="5.528741"><time>2026-05-03T12:00:44Z</time></trkpt>
<trkpt lat="50.583632" lon="5.536101"><time>2026-05-03T12:10:44Z</time></trkpt>
<trkpt lat="50.582184" lon="5.537710"><time>2026-05-03T12:20:44Z</time></trkpt>
</trkseg>
</trk>
<trk>
<name>lsrsrLv725b</name>
<cmt>d</cmt>
<desc>Seraing Chemin n°Lv725 partie b Voie de Liège / Ligne Vicinale 725 - Ougrée à Warzée</desc>
<link href="https://chemins.be/seraing/chemin/Lv725b"/><trkseg>
<trkpt lat="50.562489" lon="5.539234"><time>2026-05-03T06:40:44Z</time></trkpt>
<trkpt lat="50.561690" lon="5.538926"><time>2026-05-03T06:50:44Z</time></trkpt>
</trkseg></trk>
<trk>
<name>lsrsrLv725b</name>
<cmt>v</cmt>
<desc>Seraing Chemin n°Lv725 partie b Voie de Liège / Ligne Vicinale 725 - Ougrée à Warzée</desc>
<link href="https://chemins.be/seraing/chemin/Lv725b"/><trkseg>
<trkpt lat="50.561690" lon="5.538926"><time>2026-05-03T06:50:44Z</time></trkpt>
<trkpt lat="50.560681" lon="5.537875"><time>2026-05-03T07:00:44Z</time></trkpt>
<trkpt lat="50.559049" lon="5.536055"><time>2026-05-03T07:10:44Z</time></trkpt>
<trkpt lat="50.558554" lon="5.535509"><time>2026-05-03T07:20:44Z</time></trkpt>
<trkpt lat="50.558436" lon="5.535371"><time>2026-05-03T07:30:44Z</time></trkpt>
<trkpt lat="50.558218" lon="5.535176"><time>2026-05-03T07:40:44Z</time></trkpt>
</trkseg></trk>
<trk>
<name>lsrsrLv725b</name>
<cmt>s</cmt>
<desc>Seraing Chemin n°Lv725 partie b Voie de Liège / Ligne Vicinale 725 - Ougrée à Warzée</desc>
<link href="https://chemins.be/seraing/chemin/Lv725b"/><trkseg>
<trkpt lat="50.558218" lon="5.535176"><time>2026-05-03T07:40:44Z</time></trkpt>
<trkpt lat="50.558004" lon="5.534985"><time>2026-05-03T07:50:44Z</time></trkpt>
</trkseg></trk>
<trk>
<name>lsrsrLv725b</name>
<cmt>v</cmt>
<desc>Seraing Chemin n°Lv725 partie b Voie de Liège / Ligne Vicinale 725 - Ougrée à Warzée</desc>
<link href="https://chemins.be/seraing/chemin/Lv725b"/><trkseg>
<trkpt lat="50.558004" lon="5.534985"><time>2026-05-03T07:50:44Z</time></trkpt>
<trkpt lat="50.557686" lon="5.534905"><time>2026-05-03T08:00:44Z</time></trkpt>
</trkseg>
</trk>
</gpx>